GFSSW_sfc_temp_003.txt.gz
Temp
61 60 60 60 60 60 60 61 61 61 61 62 62 62 61 61 62 66 71 81 81 70 75 79 80 82 82 81 80 78 70 66 67 67 72 75 74 74 77 75 74 76 74 74 74
60 60 60 60 60 60 60 60 60 61 61 61 61 61 61 61 67 72 78 75 73 73 81 80 77 79 78 78 78 76 69 69 75 76 75 77 76 77 74 71 72 72 72 72 74
59 60 60 60 60 59 59 60 60 60 61 61 61 61 61 62 70 78 76 75 73 77 87 85 83 81 77 78 76 74 70 77 77 79 79 76 73 77 74 69 76 74 72 72 73
59 59 59 59 59 59 58 59 59 60 60 60 60 60 60 65 65 81 75 75 73 82 85 82 81 77 75 73 78 71 75 77 79 77 74 72 76 73 74 79 77 77 76 73 71
58 58 58 58 58 58 58 58 59 59 59 59 60 60 63 66 70 84 76 75 78 80 82 81 79 78 73 75 74 72 76 76 76 75 74 74 74 75 73 78 75 74 72 72 71
58 58 58 58 58 58 58 58 57 58 58 59 60 60 63 60 84 83 82 81 83 81 80 83 82 83 77 75 74 78 76 75 74 73 73 73 71 72 76 74 72 72 72 71 70
57 57 57 57 58 58 58 57 57 57 58 60 61 61 61 69 84 82 82 81 81 82 78 84 85 81 79 75 79 76 71 72 73 74 74 75 70 70 77 74 72 71 70 69 70
57 57 57 57 58 58 58 57 57 58 59 61 61 61 61 78 80 79 82 81 83 84 83 85 87 82 79 80 77 71 70 65 71 71 72 73 64 77 76 71 70 69 68 68 68
57 57 57 57 57 57 57 56 57 59 60 61 59 59 63 76 74 81 82 78 82 82 84 85 85 78 77 72 68 67 63 64 66 72 70 71 66 76 72 70 70 68 67 68 67
58 57 57 57 57 57 56 56 57 59 62 63 65 59 69 71 77 79 79 82 79 78 78 79 77 73 72 69 57 62 62 63 63 70 69 68 67 74 74 69 68 67 67 67 67
58 58 57 56 56 56 55 55 61 58 59 63 62 65 69 76 80 78 80 79 78 76 69 73 68 64 69 70 70 69 65 63 66 72 68 68 68 71 74 68 68 66 66 66 66
57 58 57 56 56 55 53 55 53 53 52 63 63 65 71 73 67 74 81 74 73 68 69 67 64 71 72 70 67 66 63 63 67 69 67 67 66 71 71 70 70 68 66 66 66
57 56 57 56 55 54 50 54 58 57 51 59 65 65 69 72 67 69 76 74 71 66 68 67 69 70 69 66 64 64 63 62 63 65 67 64 63 67 74 68 68 69 70 68 67
56 56 56 56 52 52 51 56 58 54 49 55 58 66 70 73 64 78 80 75 70 67 67 69 71 67 66 65 67 60 68 67 63 61 56 65 52 63 70 68 67 68 66 67 67
56 56 56 56 52 50 55 57 58 54 38 61 62 76 72 68 71 68 80 75 68 67 68 66 65 65 63 66 68 65 68 66 64 61 58 59 54 63 63 66 71 72 67 67 68
55 56 55 50 53 56 57 56 55 47 38 56 65 62 61 67 69 70 72 78 76 69 67 71 72 72 71 71 70 72 65 61 59 59 51 60 58 61 65 68 73 73 69 66 68
55 56 54 54 50 57 55 53 45 39 58 57 59 62 62 60 64 67 65 64 63 58 58 65 67 70 73 67 67 68 62 53 49 50 50 56 55 62 71 73 73 74 70 67 68
54 54 53 53 55 56 53 47 37 52 54 62 62 62 58 62 62 65 63 61 68 67 62 56 54 65 70 70 66 64 64 54 42 47 53 55 53 63 72 72 70 71 70 67 67
52 51 49 52 53 55 45 39 47 52 60 60 61 57 57 61 62 62 62 63 67 69 60 57 58 68 71 73 72 61 59 67 58 54 53 58 61 68 71 70 69 67 64 63 66
49 47 48 52 53 50 40 42 51 59 62 63 56 61 54 57 58 60 60 67 65 69 72 62 55 67 70 73 70 67 69 56 58 46 44 54 54 59 68 72 69 64 63 63 66
46 40 51 52 49 41 34 43 52 60 60 59 58 58 60 57 60 59 61 67 70 66 70 68 64 58 65 63 64 63 61 60 61 58 50 47 55 69 69 70 69 68 67 65 67
44 34 50 51 34 36 37 45 48 54 61 58 61 62 58 59 59 58 59 65 72 69 62 68 63 57 60 66 72 70 65 64 56 52 57 56 57 72 70 71 70 68 67 68 69
39 38 48 49 31 33 42 43 46 46 53 56 55 59 63 58 55 60 60 69 70 70 65 64 61 53 55 59 62 62 65 66 63 61 56 53 58 70 70 71 69 68 67 66 68
37 32 36 41 42 36 38 38 38 50 49 51 52 57 57 58 59 56 60 64 69 71 65 67 61 58 52 57 63 59 60 64 62 57 59 59 64 68 70 71 69 68 68 69 67
37 34 37 31 34 35 39 40 38 39 51 54 52 53 52 54 57 58 59 63 65 63 66 65 57 62 65 66 65 64 63 63 60 63 58 63 61 70 74 73 74 71 68 67 68
33 35 36 35 34 37 35 37 39 44 46 48 48 51 52 50 52 55 57 58 59 63 63 59 58 61 60 65 66 62 65 66 64 66 65 67 65 74 74 74 71 68 67 67 69
40 43 39 35 34 34 35 39 42 46 49 52 51 51 49 52 56 58 58 59 59 58 57 58 57 55 53 61 62 54 63 64 64 67 67 62 70 71 69 71 73 69 69 70 70

GFSSW_sfc_temp_006.txt.gz
Temp
61 61 60 60 60 60 60 60 61 61 62 62 62 62 62 62 62 71 78 87 87 71 76 89 90 91 93 90 91 91 78 75 77 77 81 88 84 89 88 86 84 86 85 86 86
60 60 60 60 60 60 60 60 60 60 61 61 61 61 61 61 77 81 85 77 74 73 91 87 86 89 86 88 88 83 77 77 84 86 84 88 86 88 82 82 81 82 84 83 85
59 60 60 60 60 59 59 59 59 60 61 61 61 61 61 66 79 88 75 75 73 77 96 94 94 89 83 87 85 84 76 84 86 88 89 87 87 89 83 82 85 84 87 83 84
59 59 59 59 59 59 59 59 59 60 60 60 60 60 61 77 72 87 76 73 73 91 94 91 89 83 82 80 86 78 84 85 87 89 86 83 87 83 84 87 88 89 88 86 83
58 59 59 59 59 58 58 59 59 59 59 59 60 60 73 74 77 93 76 76 84 87 87 87 84 84 79 83 86 81 84 86 88 87 87 85 83 83 85 89 88 88 86 84 84
58 58 58 58 58 58 58 58 58 58 58 59 60 60 71 66 92 94 93 89 89 88 87 90 88 91 86 84 83 86 85 85 87 87 85 82 82 80 87 87 85 84 84 84 84
58 58 58 58 58 58 58 57 57 58 58 60 61 68 68 73 92 93 91 90 94 91 87 92 95 89 87 82 89 85 78 82 83 85 82 83 77 77 88 84 82 81 83 84 82
58 58 58 58 58 58 58 58 57 58 59 60 62 69 67 88 93 90 93 90 91 93 91 94 95 90 87 89 83 79 80 73 83 82 81 79 68 79 87 80 80 82 82 81 80
58 58 58 59 59 58 57 57 58 59 60 62 67 68 69 79 79 88 91 85 89 90 90 92 90 84 85 78 75 77 69 73 76 83 80 78 74 82 87 83 81 82 81 80 79
58 57 57 58 58 57 56 57 61 59 66 71 72 64 76 77 85 86 91 89 85 85 82 82 83 78 80 76 65 69 70 73 71 79 78 77 76 81 85 84 80 81 81 79 78
58 57 57 58 57 56 59 71 68 65 67 71 72 74 77 84 86 85 86 83 85 82 74 80 75 70 75 78 78 77 72 71 76 80 75 75 76 79 83 84 83 81 79 78 77
58 57 57 57 57 56 62 65 61 59 59 73 73 75 81 80 74 81 88 78 76 71 79 75 69 79 82 81 76 74 71 71 76 78 75 74 74 79 82 83 84 82 79 78 78
56 57 57 57 56 59 62 63 68 67 60 69 75 73 75 80 74 79 83 81 76 74 75 72 76 82 79 76 72 73 70 70 69 75 76 73 70 76 80 83 84 82 83 81 78
55 56 56 56 54 66 61 67 70 66 57 66 67 73 78 80 70 85 86 82 78 75 78 76 83 78 74 73 75 68 76 73 71 68 63 73 59 71 77 79 82 82 80 80 79
55 55 55 55 60 61 64 70 69 64 45 74 71 85 81 73 79 78 87 82 74 76 78 73 77 74 72 74 78 71 78 74 72 68 67 68 63 70 77 74 79 83 83 81 80
55 55 55 54 55 66 69 67 64 52 44 65 71 68 70 71 77 82 78 84 83 78 79 78 84 80 78 80 79 79 73 71 71 69 57 67 66 68 75 75 79 83 83 81 79
55 55 55 58 48 69 68 62 49 47 69 63 64 69 69 66 70 72 70 69 68 63 65 72 74 80 81 75 77 75 68 58 55 56 55 67 63 68 77 81 82 82 84 80 79
54 53 57 59 57 62 61 51 42 57 62 71 71 69 66 70 70 70 68 66 74 73 70 64 61 73 78 76 71 71 69 61 48 52 59 66 59 71 80 83 82 82 82 80 78
52 59 56 60 60 55 47 40 49 59 68 67 68 64 65 69 70 69 69 69 73 76 68 66 66 79 79 80 79 71 65 75 64 66 59 65 69 76 81 81 80 79 77 76 77
54 55 57 63 61 47 37 40 54 66 68 70 60 67 62 65 65 67 67 74 73 77 80 72 63 74 77 80 80 76 78 62 65 51 49 61 62 67 73 76 77 76 76 75 77
51 44 59 63 55 39 33 42 53 65 67 62 63 64 68 66 67 66 69 74 77 76 79 76 70 68 74 69 70 71 69 69 69 67 55 53 62 77 75 78 78 80 78 76 77
52 36 58 54 36 36 34 48 53 58 62 62 63 65 67 70 67 68 67 72 80 79 70 76 69 62 65 77 80 77 71 69 62 58 64 63 64 81 80 81 81 81 79 80 80
44 44 57 48 32 33 46 47 52 54 53 55 58 65 69 67 62 68 70 77 80 77 71 74 66 58 62 67 73 70 73 73 71 69 62 60 63 81 81 80 80 81 80 79 80
45 34 42 40 41 44 43 42 41 55 53 54 54 58 59 63 69 67 69 75 79 79 67 72 68 63 59 63 69 64 69 73 70 62 63 65 69 76 78 79 80 81 80 80 80
47 39 41 34 34 39 42 43 41 41 53 56 53 57 59 58 63 64 69 71 75 72 73 72 62 67 70 73 72 69 69 70 67 68 63 68 70 75 80 81 83 82 80 79 79
37 37 38 38 39 41 41 40 43 46 45 50 50 53 58 56 62 63 68 68 68 75 71 71 62 68 66 72 72 68 71 71 71 71 71 72 71 82 85 86 83 81 80 79 79
42 43 38 37 36 35 34 40 44 48 51 55 55 54 53 59 62 65 67 66 69 69 68 67 64 63 58 68 68 61 69 71 71 74 73 67 75 83 81 81 82 82 81 80 81

GFSSW_sfc_temp_009.txt.gz
Temp
61 61 60 60 60 60 60 60 60 61 61 62 62 61 62 62 62 79 84 91 90 71 74 95 96 96 97 93 97 97 80 77 81 81 84 92 88 94 96 91 92 92 90 92 94
60 60 60 60 60 60 60 60 60 60 61 61 61 61 61 61 75 86 92 81 73 75 90 92 90 93 90 90 93 87 79 80 89 89 86 89 90 92 90 89 88 88 91 90 92
60 60 60 60 60 59 59 59 60 60 61 61 60 61 61 65 81 92 75 77 74 79 98 98 98 93 87 92 90 88 79 86 88 90 91 88 89 94 88 85 90 87 91 90 91
59 60 59 59 59 59 59 59 59 60 60 60 60 60 61 74 72 90 75 74 74 92 95 95 93 88 84 84 92 83 87 88 88 91 90 87 92 88 89 89 94 93 93 93 90
59 59 59 59 59 59 59 59 59 59 59 59 60 60 70 76 79 96 76 76 86 87 88 91 88 88 83 86 89 84 85 88 91 92 91 91 87 87 88 93 94 93 92 91 90
59 59 59 59 59 59 58 58 58 58 58 59 60 60 68 64 93 99 93 90 92 89 89 92 90 93 88 86 85 88 88 88 91 90 91 86 87 86 89 92 89 90 90 90 87
59 59 59 59 59 59 58 58 58 58 59 60 61 68 71 72 95 100 97 94 96 93 88 93 95 90 89 83 92 90 82 86 87 88 87 90 81 82 90 91 89 87 86 88 90
59 58 59 59 59 59 59 58 58 58 59 61 61 72 68 90 96 92 96 94 96 97 94 96 95 90 90 92 88 83 83 75 86 88 88 84 73 87 92 89 86 87 89 89 89
58 58 58 59 59 59 58 57 58 60 61 62 67 72 71 88 85 92 96 90 93 94 95 96 94 86 88 81 78 79 71 75 79 89 85 82 76 86 91 89 86 87 88 88 87
58 58 58 58 58 58 57 56 62 61 64 73 79 68 77 79 89 91 96 93 88 88 85 84 84 79 81 77 66 72 74 77 76 84 83 80 79 86 89 88 86 88 88 88 85
58 57 57 58 58 57 58 71 69 65 72 72 74 73 84 88 92 88 92 89 88 84 74 81 75 70 76 79 80 80 77 76 81 85 81 79 78 82 87 88 87 87 88 86 85
57 57 58 57 57 57 62 63 72 68 63 75 76 80 85 88 78 85 93 80 78 73 79 77 70 80 83 82 79 79 76 75 80 84 81 78 76 82 85 86 88 87 88 86 85
56 56 56 57 56 58 64 70 77 76 63 71 78 77 80 85 78 81 88 83 77 74 76 73 78 83 82 79 77 77 74 74 74 80 82 77 73 78 85 87 88 89 88 88 85
55 55 56 56 54 68 68 76 77 75 58 68 74 79 83 83 74 87 91 84 80 74 78 78 85 82 79 77 80 72 81 78 75 72 65 79 63 74 80 82 85 87 87 87 85
55 55 55 54 58 64 70 76 77 70 46 79 79 90 86 77 81 80 90 84 76 77 79 75 79 79 76 78 83 76 83 79 76 71 70 71 66 72 81 78 81 86 88 87 86
55 55 55 60 64 67 71 74 69 53 46 70 79 74 76 77 78 86 81 87 86 80 81 81 89 85 83 85 83 84 79 77 76 72 60 68 68 70 76 78 81 86 88 86 86
55 55 56 64 59 70 66 65 49 47 71 69 71 75 75 72 73 79 74 72 70 65 68 77 80 86 87 79 83 80 72 61 56 58 57 73 68 71 80 83 84 84 87 87 86
54 54 58 64 70 67 60 52 41 58 64 78 76 74 70 76 72 74 72 69 76 75 73 68 65 80 85 79 76 75 72 63 50 56 63 72 62 73 83 86 86 87 87 86 84
52 53 61 63 67 63 47 36 46 59 70 69 74 68 68 75 74 72 72 71 75 78 69 69 70 83 84 84 83 75 68 77 67 69 65 69 74 79 83 83 85 85 83 82 82
49 48 54 65 63 57 37 38 52 64 68 72 63 70 65 71 70 70 70 76 75 80 83 78 67 81 82 84 84 79 81 66 69 54 52 64 67 71 75 79 82 82 81 80 82
46 40 58 65 56 42 31 41 52 62 67 60 61 63 70 70 73 71 72 78 80 80 82 80 75 74 80 74 73 75 73 73 72 69 59 56 65 80 79 81 81 83 83 81 82
43 38 65 58 38 38 36 48 51 57 65 62 61 59 61 70 71 70 71 77 85 83 73 80 74 68 72 82 83 80 75 74 64 60 68 67 68 84 83 84 84 85 84 84 84
43 50 61 56 34 37 49 50 50 52 55 56 57 59 63 61 59 72 73 84 86 81 76 79 70 63 67 74 78 74 77 77 74 71 65 62 66 86 85 84 86 85 86 85 84
40 36 43 43 42 41 42 47 47 55 55 55 55 60 56 56 65 65 73 80 85 83 73 75 72 66 63 67 74 68 73 76 72 65 65 68 72 78 80 82 85 85 86 86 84
49 43 48 35 38 40 43 44 44 47 52 57 53 55 56 55 62 65 74 77 81 75 78 75 65 71 74 78 76 74 72 74 71 71 66 70 72 78 83 84 86 86 86 85 84
39 45 52 43 45 43 43 44 43 47 48 49 51 55 55 54 60 59 66 70 72 78 76 76 65 70 68 75 77 71 74 74 75 75 74 74 74 85 87 89 87 86 86 84 84
52 53 44 39 39 39 38 43 45 50 53 52 53 54 52 55 56 60 66 67 70 73 72 70 68 65 61 72 72 66 73 74 75 77 76 70 77 85 84 85 86 86 86 85 85

GFSSW_sfc_temp_012.txt.gz
Temp
61 61 60 60 60 60 60 60 60 61 61 61 61 61 61 61 62 80 78 88 90 72 74 93 92 93 96 90 94 94 76 72 76 79 82 91 88 94 97 90 92 93 91 92 93
60 60 60 60 60 60 60 60 60 60 61 61 61 61 61 61 73 80 87 81 75 74 88 90 87 91 87 88 89 84 76 76 86 87 85 89 88 89 88 88 88 90 93 92 92
60 60 60 60 60 60 59 59 60 60 60 60 60 60 60 64 77 87 75 75 75 77 94 95 94 91 84 87 87 85 77 84 86 89 90 88 88 91 87 83 89 86 90 89 89
60 60 60 60 60 60 59 59 60 60 60 60 60 60 60 76 68 87 75 75 74 91 91 90 89 84 82 80 87 80 86 87 88 90 88 86 90 86 88 88 94 93 93 91 87
60 60 60 60 60 59 59 59 59 59 59 59 60 60 71 74 77 94 76 76 85 88 86 85 84 84 79 84 85 82 85 89 90 89 88 91 87 86 87 93 95 95 93 90 89
59 60 60 60 59 59 59 59 58 58 59 59 60 59 68 62 90 94 95 89 90 87 85 86 85 89 84 83 83 86 86 87 88 87 89 86 86 87 89 93 91 91 90 90 89
58 59 59 59 59 59 59 59 58 58 59 60 60 66 66 69 90 96 96 92 92 88 84 88 89 85 87 81 89 86 79 84 86 87 85 89 81 82 90 91 89 89 89 89 90
58 58 58 59 59 59 59 59 58 59 60 60 61 66 61 83 88 83 87 89 95 95 92 93 94 87 83 87 84 78 79 72 82 86 87 86 71 84 90 89 86 88 89 89 87
58 58 58 58 59 59 58 58 59 60 61 63 62 65 65 84 77 87 93 86 92 93 94 95 91 82 82 74 71 75 67 71 76 87 86 84 75 84 90 88 86 87 88 89 88
57 57 57 57 58 58 57 57 61 61 66 71 74 65 74 73 85 89 93 91 86 86 84 84 82 74 76 72 59 66 69 73 72 81 85 80 78 84 87 87 86 86 87 87 87
57 57 56 57 57 57 58 66 68 63 67 67 70 71 81 88 90 88 93 87 85 81 71 77 69 66 70 74 75 75 74 73 79 85 79 77 78 82 86 86 85 86 86 86 85
57 56 57 56 57 57 60 57 66 71 60 72 73 77 81 87 78 83 93 79 77 69 76 72 66 74 78 78 75 74 72 72 79 84 81 79 77 82 84 84 85 85 85 86 84
56 56 56 56 56 57 59 61 73 76 60 66 74 72 75 81 75 78 85 82 75 69 71 67 72 78 77 75 73 73 71 72 73 80 82 78 73 77 83 86 88 89 88 88 82
56 55 55 55 53 65 64 74 78 77 52 61 69 75 78 79 71 86 89 82 76 70 73 72 79 77 74 73 76 68 79 78 76 72 64 78 60 73 79 80 85 86 86 85 83
55 56 55 55 58 58 66 72 78 71 38 74 75 90 83 73 78 77 89 83 72 73 74 70 74 74 73 75 80 74 82 78 77 71 69 69 63 69 78 76 81 84 87 85 83
55 55 55 58 59 65 70 72 68 48 39 66 83 76 74 73 75 85 79 84 83 76 77 75 84 81 79 83 83 84 79 78 76 71 59 67 65 66 72 77 81 85 86 84 84
55 56 55 63 57 70 70 61 44 39 65 65 73 76 73 71 71 73 71 69 68 62 64 73 75 82 85 78 83 80 72 60 55 56 55 70 66 68 78 83 83 84 86 84 84
54 54 56 62 67 66 59 45 35 51 54 76 77 75 68 74 71 71 71 66 73 71 67 64 62 76 84 79 75 76 71 62 49 52 58 71 61 70 83 86 87 87 86 85 83
52 57 55 59 66 62 47 33 41 50 64 62 68 63 68 72 74 70 69 70 73 75 64 65 66 82 83 85 82 75 68 77 65 68 62 66 71 79 82 82 84 85 83 80 81
52 50 54 63 64 53 39 35 48 57 60 61 53 62 55 68 68 69 68 75 73 78 80 73 64 79 82 85 84 78 81 65 67 52 50 62 66 68 73 77 81 80 80 80 80
49 40 54 66 61 43 33 41 49 58 58 53 53 54 56 55 64 69 69 76 80 78 79 77 71 73 80 75 73 74 72 72 70 67 56 53 62 75 76 80 78 79 81 79 79
45 35 56 63 39 37 35 46 50 53 58 55 55 54 52 57 56 58 68 74 84 82 72 77 71 64 72 82 84 79 74 73 63 59 66 65 63 82 81 83 83 81 81 81 81
39 41 53 57 34 34 45 46 50 51 52 52 51 54 56 53 50 61 66 80 84 80 75 75 66 60 65 75 79 73 76 76 73 70 63 59 64 82 83 83 84 82 82 81 81
40 36 45 45 44 42 43 44 45 54 54 55 52 54 49 49 57 55 62 74 84 84 74 74 68 63 61 68 74 68 73 76 71 63 64 66 70 76 79 80 83 84 82 82 81
43 41 47 38 39 40 41 43 43 42 54 56 52 50 48 45 50 56 58 55 67 73 75 73 62 69 72 76 76 74 72 73 71 71 65 69 71 76 80 81 84 85 84 83 82
41 42 49 45 48 44 40 42 44 48 50 49 46 53 51 46 51 48 52 54 55 61 73 73 62 68 67 74 75 72 74 74 74 74 72 73 72 83 86 86 85 84 84 83 82
53 52 48 43 44 40 42 44 44 48 53 56 53 50 47 50 57 59 60 58 58 56 58 67 67 63 59 71 71 65 73 74 74 77 76 69 75 83 83 84 85 83 85 84 84

GFSSW_sfc_temp_015.txt.gz
Temp
61 61 61 60 60 60 60 60 60 60 61 61 61 61 61 61 61 67 67 78 78 75 74 84 82 84 84 78 82 81 63 61 65 68 73 82 78 85 89 82 84 86 83 82 82
61 61 61 60 60 60 60 60 60 60 60 61 61 61 61 61 60 67 79 78 78 75 80 80 78 81 75 76 79 73 62 67 76 77 75 78 78 81 82 82 81 82 83 85 84
60 61 60 60 60 60 59 59 60 60 60 60 60 60 60 60 60 75 75 75 78 75 86 85 84 80 73 78 77 75 67 75 78 82 82 80 78 84 81 75 79 78 78 80 79
60 60 60 60 60 60 59 59 60 60 60 60 60 60 60 60 57 78 75 75 74 81 84 82 80 73 71 70 79 71 77 79 81 84 82 77 81 81 81 80 86 84 82 80 77
59 60 60 60 60 59 59 59 60 60 60 60 60 60 57 60 65 84 77 76 81 81 80 78 74 73 67 73 76 74 77 82 84 83 79 81 79 80 81 85 87 87 84 77 75
58 59 59 59 59 59 59 59 58 58 59 60 60 60 55 51 78 87 87 84 85 78 79 78 76 79 71 73 73 78 78 79 82 80 79 78 80 81 82 86 85 85 80 80 78
57 58 58 58 59 59 58 58 58 58 59 60 61 61 55 58 81 84 80 78 82 82 77 81 82 76 75 71 78 78 71 76 78 79 77 82 74 76 81 84 81 80 80 80 79
57 57 57 58 58 58 58 58 58 58 60 61 62 58 49 74 77 74 79 78 84 86 84 85 85 77 73 74 74 69 69 63 73 77 80 76 66 77 81 79 77 80 80 79 77
57 56 57 57 58 58 58 57 58 60 61 61 57 53 51 76 70 78 80 76 81 83 85 88 83 73 71 66 61 64 56 60 67 78 78 75 69 78 81 80 75 76 76 78 76
57 56 56 56 57 57 57 57 59 60 61 65 65 52 61 65 77 78 79 81 78 78 78 77 73 66 66 61 51 55 57 64 64 73 76 73 72 76 78 78 76 74 75 76 74
57 57 56 56 56 56 54 54 53 50 56 55 57 59 73 77 83 80 81 77 76 71 62 69 60 57 63 67 68 66 63 63 69 76 74 70 72 74 76 76 74 73 72 73 72
57 57 56 56 56 55 51 46 54 57 48 63 63 66 72 76 69 78 85 70 67 59 67 62 57 67 71 71 67 66 63 62 69 76 72 70 69 72 75 74 74 74 72 69 68
55 56 56 55 55 51 49 52 62 60 47 58 66 64 66 71 66 69 79 75 67 62 62 58 64 72 70 67 65 65 62 63 63 71 73 67 61 66 74 75 77 77 74 70 69
55 55 55 55 49 53 54 64 67 63 40 50 60 64 69 69 62 77 80 75 69 63 64 62 70 69 66 64 67 59 71 70 68 64 53 66 48 60 67 69 73 77 70 69 70
55 55 55 55 47 48 58 63 68 63 26 61 64 77 70 63 70 69 80 75 65 66 66 60 64 65 64 66 71 64 73 70 69 63 58 59 50 56 65 65 69 71 72 69 70
55 55 55 52 49 53 60 64 58 38 27 56 71 65 62 63 67 76 71 76 76 68 69 66 75 71 68 74 74 75 70 68 67 64 46 56 54 56 59 66 69 72 72 71 69
55 55 53 57 48 60 61 53 33 30 56 57 63 66 64 60 61 65 62 61 57 54 55 64 66 73 76 68 73 71 62 49 41 44 41 60 55 57 66 71 73 68 69 69 70
53 53 53 56 57 58 55 40 27 43 44 55 56 60 56 64 60 62 61 56 64 62 55 53 51 67 75 70 66 66 63 50 38 39 47 61 52 60 72 76 74 75 72 71 68
52 50 51 55 58 57 43 29 32 41 51 52 52 49 54 56 60 61 59 58 63 64 54 53 55 72 75 77 73 65 59 66 53 52 47 54 61 66 71 71 72 71 70 66 67
48 47 48 57 58 47 35 32 39 49 53 52 41 48 41 47 49 52 58 65 64 68 69 58 51 69 73 76 75 70 70 56 49 41 37 50 54 54 65 67 69 67 66 65 65
46 40 51 57 52 41 31 35 43 52 52 47 43 42 44 45 49 47 53 65 71 68 69 65 55 59 70 66 64 65 63 58 56 51 41 40 47 63 65 67 67 66 67 66 67
44 35 51 52 37 37 33 40 46 48 51 49 49 48 44 46 44 44 50 59 73 73 62 67 54 52 59 73 76 71 62 58 54 46 51 49 50 72 66 68 69 68 70 66 67
39 40 48 48 31 33 39 42 46 46 47 47 45 49 51 45 36 44 52 63 63 59 65 67 58 44 51 60 69 66 67 65 57 54 50 47 49 69 72 69 72 68 70 70 68
40 33 41 42 40 36 35 39 39 50 49 50 48 50 47 44 46 42 45 57 60 62 60 69 58 55 47 55 64 63 66 67 58 49 53 56 58 64 69 68 67 70 70 70 71
41 37 42 33 36 38 39 39 37 38 48 50 45 46 45 41 42 40 47 51 56 59 54 57 56 58 63 66 66 68 67 67 62 60 57 59 59 64 69 69 69 71 71 71 70
36 38 42 37 41 40 39 37 38 42 44 44 43 48 46 43 43 39 44 42 45 51 48 51 55 61 58 66 67 66 69 69 68 65 62 64 63 70 74 73 71 72 73 73 72
45 46 40 39 37 36 36 39 41 44 47 49 49 46 46 48 49 49 47 47 48 45 45 44 47 54 51 62 62 55 67 67 68 67 67 60 63 68 69 72 69 73 75 74 75

GFSSW_sfc_temp_018.txt.gz
Temp
61 61 61 60 60 60 60 60 60 60 61 61 61 61 61 61 60 64 65 75 74 73 73 81 78 80 77 73 75 73 56 54 58 62 67 76 68 82 84 80 81 81 76 79 80
61 61 61 60 60 60 60 60 60 60 60 61 61 61 60 60 56 59 74 75 74 73 79 76 74 76 68 70 72 65 55 62 70 71 69 75 71 77 77 77 77 75 78 80 80
60 60 60 60 61 60 60 60 60 60 60 60 60 60 60 59 59 67 76 74 75 74 81 80 77 74 65 66 69 67 62 71 72 76 77 76 77 79 76 72 77 74 75 76 75
59 59 60 60 60 60 60 60 60 60 60 60 60 60 60 57 55 75 76 74 73 79 79 76 72 64 62 62 72 61 71 74 75 79 78 76 80 77 78 78 81 79 79 75 73
58 58 59 59 59 59 59 59 59 60 60 59 60 60 55 54 60 80 77 77 77 78 75 74 68 66 61 65 70 67 71 75 78 78 78 81 76 77 78 83 82 81 78 75 74
57 58 58 58 58 58 58 58 58 58 58 59 60 60 51 44 72 80 81 80 81 76 75 74 71 75 64 66 66 71 72 73 76 76 77 75 77 75 80 82 80 77 75 76 73
57 57 57 57 58 58 58 58 57 58 59 60 60 60 50 51 72 77 72 72 77 80 75 78 79 70 67 65 73 71 64 69 72 75 75 75 70 71 78 79 77 76 76 74 75
57 57 57 57 57 57 58 58 57 58 59 60 61 57 46 65 67 67 72 72 76 77 77 80 78 70 65 67 68 62 59 54 69 72 76 70 63 73 78 76 73 76 76 76 73
57 57 57 57 57 57 57 56 57 58 60 61 55 51 44 67 62 70 73 70 78 77 76 84 74 67 64 60 53 55 52 55 61 71 72 68 65 73 78 78 75 73 73 74 74
57 56 56 56 56 56 56 56 56 57 58 61 60 47 54 60 71 75 75 74 72 73 71 70 65 60 57 54 47 52 51 57 59 68 68 65 65 73 77 74 74 72 72 71 71
57 56 56 56 56 56 52 47 48 46 48 47 50 53 68 71 78 75 76 70 70 65 59 65 56 52 58 62 63 60 57 56 64 71 66 64 66 72 75 69 71 70 70 70 68
56 56 56 56 56 55 48 42 49 51 42 56 56 57 66 70 62 70 78 64 62 55 61 58 54 63 67 65 62 60 57 57 65 70 64 65 65 72 72 69 70 71 69 64 61
55 55 55 55 55 48 45 50 58 53 43 50 57 57 59 65 59 63 72 67 60 56 58 56 60 69 66 62 60 60 58 58 59 66 66 63 60 64 71 70 72 72 70 65 64
55 55 55 55 47 46 47 59 58 60 33 44 53 59 62 63 57 69 74 69 63 56 59 58 67 65 63 60 62 55 66 65 63 58 49 62 45 56 64 67 69 72 65 62 65
54 55 55 55 45 42 52 55 59 52 23 55 57 69 65 58 65 64 73 68 60 61 59 55 61 60 59 61 66 60 67 64 63 58 54 58 48 54 61 63 67 69 63 63 66
54 55 54 52 48 49 53 53 49 34 24 48 60 56 54 57 62 69 65 71 69 63 64 61 68 66 63 68 68 69 63 61 59 55 44 56 51 56 57 64 66 66 64 63 62
54 54 53 54 46 49 52 45 32 27 49 47 49 53 53 53 55 60 58 56 52 49 51 60 61 67 70 62 67 63 53 41 37 41 42 57 51 58 61 66 69 66 63 62 63
53 53 51 52 48 51 45 36 27 40 42 52 50 51 49 50 52 56 55 53 59 58 53 49 47 62 69 64 59 59 56 44 36 36 43 56 48 59 68 71 71 68 66 66 62
51 45 43 46 52 47 41 29 30 39 47 45 46 43 43 47 48 50 53 53 59 59 49 49 51 66 69 71 67 58 53 62 49 47 44 49 56 63 64 64 65 64 65 62 61
47 46 42 50 50 46 35 32 36 46 47 46 36 43 36 42 42 43 47 59 58 64 60 54 46 63 67 70 69 64 64 51 44 40 35 45 49 51 58 61 63 62 61 59 60
42 37 45 51 50 40 30 32 40 48 49 43 40 39 41 41 42 41 44 54 57 60 64 59 50 53 64 60 59 56 58 54 54 48 40 38 47 57 63 62 62 64 63 61 61
42 34 45 51 36 37 32 40 44 45 48 46 45 44 42 43 40 41 42 48 54 54 49 61 49 47 53 61 70 65 57 59 50 45 47 46 47 63 60 65 67 63 65 63 64
37 35 48 47 31 31 37 38 42 42 43 44 42 45 47 42 37 42 45 55 55 51 48 50 52 41 46 52 60 61 63 61 52 48 47 45 48 65 63 66 68 64 63 65 63
38 31 37 40 38 35 33 36 37 48 45 47 44 45 44 41 47 42 43 50 54 51 54 51 46 51 46 52 57 54 62 62 57 46 47 56 53 59 61 63 63 64 65 65 65
37 35 40 30 33 35 35 36 35 35 44 45 40 43 42 38 41 42 46 47 50 53 49 44 40 54 58 60 59 59 63 63 59 58 55 55 56 61 62 64 66 66 65 66 65
32 36 37 33 37 35 36 34 36 38 39 39 38 43 44 40 42 39 46 44 41 47 43 43 36 51 53 62 61 58 61 65 65 60 58 60 56 64 70 71 68 67 67 67 67
42 44 38 36 32 28 31 37 36 38 42 44 44 41 40 44 48 50 49 49 47 42 40 38 38 39 47 58 58 51 60 61 65 65 62 56 60 65 65 67 68 66 70 69 70

GFSSW_sfc_temp_021.txt.gz
Temp
60 60 60 60 60 60 60 60 60 60 60 61 61 61 61 61 60 63 65 74 72 71 74 76 77 78 77 70 72 68 53 51 56 58 63 69 67 74 80 76 77 77 74 77 77
59 60 60 60 60 60 60 60 60 60 60 61 61 60 60 60 55 57 72 74 74 72 76 75 71 73 65 68 68 63 52 57 68 66 65 68 66 72 73 74 74 75 77 75 77
59 59 59 59 60 59 59 60 60 60 60 60 60 60 60 59 56 65 75 74 74 74 79 79 77 72 63 65 64 61 60 68 70 72 70 69 72 78 72 70 75 74 75 72 73
58 58 59 59 59 59 59 59 59 60 60 60 60 60 60 55 52 72 76 74 73 75 75 74 71 64 60 60 68 58 66 71 72 75 72 70 75 74 76 76 82 78 77 73 71
58 58 58 58 58 58 58 58 59 59 59 59 59 60 54 50 56 77 76 78 75 73 72 70 65 64 59 61 65 60 66 71 72 73 73 75 72 73 75 81 83 79 74 72 72
57 57 57 57 57 58 58 57 57 57 58 59 59 60 50 39 68 74 77 75 77 71 71 70 68 71 61 64 61 66 66 67 70 71 73 70 71 72 77 80 77 74 71 72 72
57 57 57 57 58 57 57 57 57 57 58 59 60 59 50 47 66 69 66 66 72 75 72 74 77 72 65 61 68 66 61 66 67 70 70 73 66 69 76 76 73 72 72 72 72
57 57 57 57 57 57 57 57 57 57 58 59 60 57 45 62 63 61 64 66 71 72 73 78 77 68 62 62 64 58 55 51 65 70 72 67 58 71 77 71 71 72 72 72 71
57 56 56 57 57 57 57 56 57 57 59 59 55 51 44 63 56 62 66 65 74 72 72 81 72 63 61 56 49 50 50 52 59 67 66 64 60 69 72 71 70 73 72 71 73
57 56 56 56 56 56 56 55 56 56 56 59 57 45 50 55 66 69 67 68 68 70 66 66 61 55 52 49 44 48 47 52 55 63 63 61 60 68 72 71 72 72 69 70 72
57 56 56 56 56 55 53 47 46 45 48 44 48 49 61 65 73 70 71 64 66 62 55 59 53 49 55 59 61 57 53 52 58 65 61 59 60 65 70 68 69 69 66 68 65
56 56 56 56 55 55 50 41 49 52 40 52 52 53 57 60 53 66 72 59 57 52 59 55 51 60 64 63 59 56 52 53 61 65 61 59 59 65 67 69 67 69 68 63 60
55 55 55 55 55 48 42 47 56 56 38 46 53 52 55 59 52 58 69 64 57 53 56 54 60 66 63 59 56 55 53 54 55 60 62 58 56 60 68 66 69 68 68 64 63
54 54 55 54 48 44 44 53 55 56 32 41 48 53 57 59 52 65 71 66 59 53 57 56 65 62 59 56 59 51 61 61 58 53 44 57 42 54 60 64 66 69 66 65 60
54 55 54 54 48 47 48 50 55 52 21 52 54 65 59 53 60 60 70 65 56 57 58 52 58 58 57 59 63 57 64 59 58 51 47 53 45 51 56 59 63 66 66 60 59
54 55 54 51 47 49 50 48 50 32 24 45 54 51 50 53 55 63 61 66 65 56 58 58 66 65 62 65 65 65 58 54 53 49 41 52 47 47 54 60 64 65 61 59 58
54 54 52 54 44 47 48 42 30 24 47 43 43 49 49 47 50 53 53 52 50 45 46 53 57 61 66 58 60 58 47 36 32 35 37 53 47 54 58 63 66 67 61 58 58
53 52 52 51 46 48 43 35 23 38 39 49 46 48 42 46 46 48 50 47 56 54 49 45 43 58 65 59 55 55 53 39 31 33 40 52 45 53 64 68 67 68 61 59 57
51 48 44 45 48 47 40 29 28 36 43 41 44 41 41 45 45 44 43 48 54 58 46 46 48 62 66 66 63 53 48 57 45 43 40 45 52 61 62 63 62 59 59 57 58
46 43 40 50 48 46 35 31 34 44 45 44 34 41 34 40 39 39 41 48 49 55 55 49 43 59 63 66 65 56 59 46 42 34 34 43 46 50 57 59 58 57 56 57 56
41 37 44 52 50 40 30 30 38 46 46 40 37 36 39 39 39 39 41 49 50 48 51 50 46 49 57 55 55 51 51 48 50 45 36 35 43 55 60 59 59 58 57 57 57
37 32 46 51 36 36 29 36 43 42 47 43 44 41 40 42 39 39 40 46 53 50 42 45 45 42 50 57 65 61 54 53 47 39 46 43 47 61 61 61 63 61 60 57 59
37 38 45 46 31 31 36 37 40 39 40 41 40 43 45 40 35 41 43 51 54 49 43 44 40 39 42 49 55 56 58 59 51 45 42 45 49 61 60 59 63 59 60 59 58
38 31 36 39 37 34 34 34 35 45 42 43 41 43 41 40 44 38 42 49 54 52 54 47 38 43 42 46 53 49 57 56 56 49 49 50 50 55 57 60 59 59 59 59 60
34 32 38 30 33 34 33 36 34 34 41 42 38 39 38 36 39 39 43 47 51 52 48 40 32 41 48 56 56 54 56 59 54 56 51 55 55 58 58 59 62 62 59 59 60
34 36 38 35 36 34 34 33 34 38 36 37 35 39 39 36 39 36 41 43 43 47 44 40 32 39 43 54 56 54 56 60 60 60 58 55 55 62 63 63 61 62 62 62 62
42 44 38 35 34 28 28 34 36 39 41 41 41 38 36 41 46 47 48 48 48 43 42 40 34 36 34 51 52 46 55 55 59 62 62 53 58 60 59 64 63 61 65 65 65

GFSSW_sfc_temp_024.txt.gz
Temp
60 60 60 60 60 60 60 60 60 60 60 61 61 61 60 60 59 59 60 73 73 71 73 75 75 74 71 68 69 65 52 49 56 57 60 65 63 70 75 73 73 77 74 75 71
59 59 59 59 59 59 59 59 60 60 60 60 60 60 60 60 52 54 72 73 73 73 75 73 70 72 63 64 66 61 50 55 65 63 63 63 63 68 70 71 72 73 77 74 71
59 59 59 59 59 59 59 59 59 59 60 60 60 60 60 58 53 62 75 73 74 74 77 77 75 69 60 61 63 60 58 65 66 69 64 65 67 70 68 66 73 71 78 72 69
59 59 59 59 58 58 58 58 59 59 59 60 59 59 60 53 50 67 75 73 73 74 74 72 70 61 58 57 65 54 64 69 69 70 65 67 69 69 72 72 78 79 77 72 68
58 58 58 58 58 58 58 58 58 58 58 58 59 59 56 46 51 73 75 74 73 71 71 69 66 64 56 58 64 58 64 66 67 67 69 72 68 69 70 77 79 77 74 71 68
57 57 57 58 58 58 58 57 57 57 57 58 59 60 51 40 64 69 65 69 72 69 68 68 67 69 60 60 58 61 62 64 65 66 69 67 68 65 72 78 76 76 72 70 68
57 57 57 57 57 57 58 58 57 57 57 58 59 58 49 47 63 65 63 59 66 70 68 71 73 68 63 57 62 61 55 61 64 66 65 71 60 64 75 74 71 72 73 71 69
57 57 57 57 57 57 58 57 57 57 58 58 59 55 43 60 62 59 61 61 66 67 68 74 74 67 59 60 60 54 53 49 62 66 66 65 54 67 73 69 69 70 71 69 69
57 56 56 56 57 57 56 56 57 58 58 59 54 50 41 61 56 60 61 59 69 67 68 76 72 62 58 54 48 49 48 51 56 68 64 61 57 68 69 68 68 70 70 71 69
56 56 56 56 56 56 55 56 57 56 56 59 57 45 48 52 60 65 62 62 64 64 62 62 59 53 50 48 44 44 46 49 53 62 58 56 55 65 69 66 65 66 67 67 66
56 56 56 56 56 55 53 45 45 43 46 43 45 45 52 61 65 64 64 59 62 58 50 55 50 48 54 58 57 56 53 51 58 63 57 55 56 62 67 64 64 66 68 68 64
56 56 56 55 55 55 51 39 48 47 38 50 50 50 55 58 50 57 66 56 55 50 56 51 48 57 60 59 57 55 52 51 60 62 57 56 55 61 65 65 64 67 68 64 62
55 55 55 55 54 47 41 45 52 52 38 44 50 49 50 53 47 52 60 58 54 51 53 51 56 63 59 56 53 54 52 54 55 56 57 54 53 57 64 64 65 66 66 64 62
54 54 55 54 47 43 43 50 49 54 31 39 44 49 53 53 47 61 66 60 56 50 54 52 62 59 57 54 57 49 59 59 56 49 41 53 38 53 59 61 63 67 63 64 60
54 55 54 54 48 46 47 47 49 46 20 48 49 61 56 50 54 54 65 61 53 53 54 48 55 55 54 56 59 54 63 58 55 47 43 47 41 48 54 57 61 65 66 63 57
54 55 54 52 48 48 48 47 44 31 22 42 52 49 46 50 51 58 54 60 61 55 56 54 62 62 61 64 63 63 58 53 48 44 36 46 45 47 50 59 61 64 63 57 55
54 54 52 53 45 45 45 41 27 21 45 40 41 48 48 45 48 50 49 46 46 41 42 50 53 57 63 55 58 56 47 34 31 32 33 50 44 51 56 60 64 65 63 56 54
53 52 49 52 45 47 41 33 22 35 36 46 44 47 42 44 44 45 45 42 50 48 45 41 39 55 61 56 52 53 48 37 30 31 39 51 41 49 61 68 65 65 62 55 53
50 42 41 45 47 49 40 27 26 34 42 39 42 38 40 44 43 42 40 41 47 51 42 43 43 58 63 63 62 49 46 50 41 41 37 41 48 57 61 62 63 59 56 53 53
43 45 41 52 48 45 33 30 32 42 42 41 32 39 33 38 39 38 39 46 45 48 46 47 40 56 60 62 63 56 57 43 40 32 30 40 44 48 56 62 59 56 54 52 52
38 36 42 52 48 39 26 29 36 45 44 39 35 34 37 36 40 38 36 41 47 46 48 45 43 46 55 53 50 47 48 44 47 39 33 33 41 53 59 61 59 56 55 52 54
40 28 45 49 35 34 29 35 42 40 44 41 40 38 38 40 38 39 37 41 48 48 40 42 38 39 48 55 63 59 50 48 45 39 40 40 42 58 59 60 58 59 56 54 55
35 34 43 44 29 31 35 36 39 38 38 38 37 41 43 38 33 39 40 46 47 44 42 43 35 34 39 47 51 54 54 52 44 42 42 38 42 60 59 59 58 57 56 56 56
33 29 34 37 37 34 31 32 33 43 40 41 39 41 38 38 42 37 39 47 50 46 50 48 35 34 36 41 48 48 53 55 47 38 41 51 49 58 58 57 56 57 55 54 56
33 32 38 28 30 34 32 32 32 33 38 39 36 37 35 32 36 37 42 44 49 49 45 42 30 37 40 45 47 49 53 54 52 53 46 49 51 56 58 59 58 58 55 56 56
32 32 38 34 36 32 31 30 31 35 38 36 35 38 36 32 37 34 40 41 40 45 40 42 30 36 36 48 49 47 51 55 56 55 54 53 52 60 61 59 58 59 58 58 58
38 39 39 35 35 27 26 33 33 36 39 40 38 36 34 37 42 43 44 45 45 40 39 38 32 31 30 41 42 41 50 51 54 59 56 50 60 57 57 60 59 57 61 61 61

GFSSW_sfc_temp_027.txt.gz
Temp
60 59 59 59 59 59 59 59 60 60 60 61 61 61 61 60 60 66 67 74 75 71 72 76 77 79 80 77 78 76 68 64 67 66 75 79 79 81 85 82 84 86 87 90 86
59 60 60 59 59 59 59 59 59 60 60 60 61 60 60 60 58 60 73 73 73 73 80 77 73 77 75 76 76 73 67 68 76 77 76 76 77 78 78 80 81 84 88 88 85
59 59 59 59 59 59 58 58 59 59 60 60 60 60 60 61 59 70 75 72 72 74 83 83 81 78 72 73 74 73 66 74 77 78 76 77 77 81 77 75 82 80 84 87 88
58 59 59 59 59 59 59 59 59 59 59 59 59 59 60 59 58 74 72 72 73 76 78 78 76 71 70 67 75 68 72 75 78 79 76 75 79 75 78 79 85 85 85 86 86
58 58 58 58 58 58 58 58 58 58 58 58 59 59 58 51 58 75 71 71 79 74 72 74 73 73 69 71 73 67 72 76 77 77 76 77 74 73 76 82 86 86 84 84 85
57 57 58 58 58 58 58 58 57 58 58 58 58 59 52 40 67 70 69 69 75 75 73 74 74 77 73 71 70 75 72 74 76 75 76 72 73 75 77 83 83 82 83 85 86
57 57 57 57 57 58 58 57 56 57 58 59 59 58 50 48 66 70 68 64 67 69 71 76 77 72 73 68 75 73 67 71 71 73 72 75 69 71 80 83 79 80 82 83 85
57 56 57 57 57 58 58 57 56 57 58 59 59 56 46 63 67 63 65 63 67 69 67 76 78 73 69 72 68 67 66 62 73 72 74 71 65 77 82 79 77 78 80 81 83
57 56 56 56 57 57 56 56 57 58 59 59 54 51 45 63 58 64 65 61 69 69 70 75 75 70 68 62 61 62 59 59 64 71 72 70 67 77 79 77 74 77 79 81 82
57 56 56 56 56 56 55 55 57 58 59 60 59 47 54 56 63 66 68 64 62 67 64 65 67 63 63 60 51 56 54 60 59 70 69 69 67 72 76 76 74 77 78 79 79
56 56 56 56 56 55 54 53 53 50 52 49 50 50 55 64 67 65 66 60 60 63 58 63 57 55 60 61 63 64 61 61 66 71 66 67 67 70 75 75 74 75 76 77 78
56 56 56 55 55 54 54 48 47 49 40 52 52 53 58 61 51 61 67 57 54 53 62 57 54 63 67 65 61 60 59 60 66 69 66 66 65 70 72 73 76 76 76 77 79
55 55 55 55 55 52 49 49 56 54 40 47 53 52 53 56 49 53 62 60 55 53 57 56 61 66 63 62 58 58 58 59 60 64 66 64 61 66 74 74 77 78 78 78 77
55 55 55 54 51 51 49 55 56 54 35 43 47 52 55 56 48 60 65 61 58 53 57 58 67 63 59 58 61 53 64 63 60 57 54 63 51 63 68 70 74 76 77 79 78
54 55 54 54 50 47 53 56 57 50 25 50 50 63 59 53 56 59 64 60 53 56 58 54 58 59 57 59 62 58 66 61 59 55 55 58 53 60 66 65 70 76 77 78 73
54 55 54 53 51 55 56 54 52 34 24 44 52 51 51 54 54 58 56 62 63 56 59 60 67 65 65 65 65 67 63 61 60 58 47 56 55 55 63 66 72 77 79 72 68
54 54 52 54 47 52 54 49 32 25 46 40 43 49 48 44 47 50 50 48 49 44 46 55 58 64 67 61 65 63 57 46 44 45 45 59 54 56 68 72 72 75 79 71 68
52 51 50 54 53 52 48 37 23 37 38 48 45 48 42 43 41 43 44 46 52 54 52 47 45 58 65 62 59 59 58 50 40 42 49 56 49 56 70 75 76 77 77 70 68
50 51 51 52 52 51 40 28 32 36 41 40 44 40 40 44 44 41 39 39 49 54 45 48 50 63 65 67 66 58 54 65 55 52 52 56 56 65 71 70 72 74 72 69 67
46 47 49 54 53 47 36 32 36 43 44 43 34 40 35 39 40 40 34 38 38 47 52 50 46 60 63 68 68 63 65 50 55 44 42 50 52 59 66 69 72 72 70 67 66
45 41 51 53 49 40 31 34 38 46 45 40 38 37 38 38 41 39 38 42 40 42 49 51 50 54 62 58 58 59 57 58 59 56 48 46 54 68 70 71 74 75 71 67 66
43 36 50 52 36 35 33 38 42 43 46 43 44 41 39 41 38 39 40 40 45 41 37 48 47 48 54 65 68 64 59 59 52 47 55 54 56 69 70 72 73 72 68 68 69
38 38 49 48 31 33 39 39 41 40 41 41 40 43 44 39 34 40 42 49 48 42 37 43 45 45 49 56 63 59 61 62 59 58 52 51 56 70 70 71 72 72 68 67 68
40 34 42 42 40 35 33 37 37 46 42 42 42 45 42 40 44 39 41 48 51 47 46 44 42 43 46 50 56 54 58 61 59 54 54 55 61 69 71 72 72 70 68 68 68
39 36 40 31 35 35 36 36 35 36 43 43 39 39 37 35 38 38 39 43 49 49 45 39 37 42 45 47 49 51 58 59 56 58 53 58 60 67 71 74 72 70 68 68 68
38 38 43 37 38 38 36 36 35 38 38 38 36 40 40 35 38 35 40 40 39 44 43 44 37 42 45 51 52 50 54 59 60 61 60 61 62 72 75 72 72 69 68 69 70
42 44 40 38 36 34 35 37 36 39 42 43 41 38 37 42 45 46 46 45 45 43 41 42 40 40 43 47 50 47 55 57 59 63 63 58 65 72 72 73 74 72 71 72 72

GFSSW_sfc_temp_030.txt.gz
Temp
60 60 60 60 60 60 59 59 59 60 61 61 61 61 61 61 61 76 74 80 81 71 73 86 86 86 88 87 90 91 77 74 78 79 82 89 87 90 92 89 93 95 93 97 99
60 60 60 60 60 60 59 59 59 59 60 61 60 60 60 60 67 71 79 74 73 73 85 84 83 85 83 84 86 81 77 77 87 88 86 90 87 90 85 86 88 93 97 99 98
59 59 59 59 60 59 59 59 59 60 60 59 59 60 60 63 68 79 72 73 72 75 86 90 89 86 81 86 84 83 76 86 86 90 90 87 86 93 86 82 88 90 93 96 96
59 59 59 59 59 59 58 59 59 60 60 59 59 59 60 67 64 78 71 71 73 81 81 84 84 81 78 78 85 77 84 85 87 90 88 84 89 86 87 87 93 94 95 95 94
58 58 58 58 58 59 58 58 58 59 59 59 59 59 63 61 69 83 73 76 84 80 80 82 79 80 76 81 83 80 82 85 87 86 87 87 84 83 86 90 94 95 93 93 94
57 58 58 58 58 58 58 58 58 58 58 59 59 58 61 52 78 80 78 78 79 82 80 83 82 85 82 81 80 84 84 84 85 85 85 82 83 86 87 89 91 92 92 94 94
57 57 57 57 58 58 58 57 57 57 58 59 60 60 56 59 76 78 78 75 77 79 79 83 87 81 82 77 85 83 76 81 81 83 82 85 77 79 88 90 89 90 91 92 93
57 57 57 57 57 58 58 57 57 57 58 59 60 59 52 73 78 74 76 74 77 77 77 84 86 81 79 82 78 75 76 69 80 82 82 81 69 84 91 90 88 88 89 90 92
57 57 56 57 57 57 57 56 57 58 59 60 60 57 57 68 65 73 75 69 77 77 76 81 81 75 76 69 68 72 65 68 73 84 81 78 73 85 90 88 84 86 88 89 90
57 56 56 56 57 56 56 56 59 58 63 67 66 54 63 63 69 72 77 72 68 73 69 70 73 69 70 68 59 64 66 69 70 79 77 75 75 83 87 86 84 86 87 87 88
57 56 56 56 56 55 58 67 63 60 61 59 61 59 65 72 75 70 73 68 67 66 61 68 63 61 67 70 72 72 70 69 73 80 76 74 76 81 85 84 84 85 85 86 88
56 56 56 56 56 55 62 58 55 56 47 61 62 62 66 69 58 65 74 62 60 57 65 65 59 70 74 73 70 69 67 68 75 79 76 73 73 80 83 83 84 84 85 86 88
55 55 55 55 55 57 60 57 64 61 46 56 62 61 63 65 57 59 68 66 61 58 62 61 65 73 71 69 67 66 65 66 67 74 76 72 68 72 80 84 86 86 87 88 89
55 55 55 54 55 63 58 63 66 63 40 52 55 60 63 62 54 67 69 66 62 57 62 63 72 70 69 67 70 62 71 69 67 65 59 72 58 69 76 78 81 84 86 88 90
54 55 55 54 57 57 61 65 65 60 31 54 56 71 66 59 61 63 72 65 57 60 62 59 64 66 66 68 73 67 74 70 68 64 63 65 60 67 75 72 77 83 85 89 90
55 55 54 59 57 60 66 63 59 35 30 49 58 55 56 57 58 63 64 66 66 60 64 63 74 71 71 74 74 74 70 69 68 65 53 61 60 62 69 73 78 84 86 89 85
54 54 56 58 53 58 60 56 36 32 52 46 48 54 55 51 53 52 53 55 52 47 49 59 62 70 73 68 72 70 63 54 50 51 50 65 61 62 73 79 80 83 85 86 83
53 51 53 63 62 56 55 41 31 43 44 52 51 52 49 51 50 50 48 45 59 58 55 50 48 62 71 68 65 65 64 58 46 49 56 65 56 66 76 81 83 85 87 86 83
51 64 63 62 62 58 48 34 39 42 46 45 48 45 48 50 49 49 44 37 46 58 50 50 53 69 70 73 73 65 60 72 63 64 59 65 67 72 75 78 82 83 85 82 81
58 60 59 62 59 55 41 36 42 49 49 49 40 46 41 46 45 47 42 38 41 52 53 54 47 66 68 73 74 70 73 59 63 49 48 59 61 61 72 77 80 81 83 84 80
58 55 59 63 54 42 34 39 45 52 51 45 43 42 44 45 47 46 42 43 39 47 52 54 52 58 66 63 64 67 64 66 66 63 53 53 60 72 73 79 80 83 85 81 79
56 46 62 63 43 38 37 44 45 48 52 48 48 46 44 47 45 43 40 42 47 46 43 54 51 48 59 70 74 71 67 66 58 54 63 64 62 75 79 80 83 86 83 81 81
52 50 63 58 37 39 45 45 47 47 47 46 44 48 49 45 39 44 44 48 49 45 41 44 50 47 53 64 69 66 68 68 68 67 58 57 59 79 79 80 81 81 80 80 80
51 41 52 55 47 38 39 44 44 52 48 50 46 49 46 45 50 44 47 45 47 45 46 47 47 50 51 57 65 61 65 68 65 60 62 62 66 74 78 79 80 80 79 80 80
52 45 46 39 40 38 43 44 43 42 49 51 44 44 41 38 44 44 45 46 45 46 46 48 45 52 55 56 56 61 64 66 63 65 61 66 65 75 80 79 81 81 80 79 81
44 41 49 43 44 42 43 44 41 42 41 42 44 46 45 40 42 42 46 46 38 41 42 48 42 51 50 57 57 56 62 66 66 67 66 68 66 79 82 84 81 79 80 80 81
48 52 41 43 41 38 41 42 41 42 47 48 45 42 43 45 50 52 53 52 50 47 46 41 43 47 46 57 55 52 60 64 66 69 68 63 71 79 77 79 81 82 81 82 83

GFSSW_sfc_temp_033.txt.gz
Temp
60 60 60 60 60 60 60 60 60 60 60 60 61 60 60 61 61 76 75 85 85 73 72 89 88 89 91 89 92 95 79 76 79 81 85 96 91 99 99 94 96 99 98 101 105
60 60 60 60 60 60 59 60 60 60 61 60 60 60 60 60 68 75 83 75 73 74 86 87 83 87 85 85 85 82 78 79 89 90 87 94 93 95 93 91 92 94 101 104 104
59 60 60 60 60 59 60 59 59 60 60 60 60 60 60 63 72 82 72 74 73 76 87 91 91 89 83 88 87 86 77 86 89 93 94 92 93 97 91 87 93 92 96 100 100
59 59 59 59 59 59 59 59 59 60 60 59 60 60 60 68 66 81 72 73 73 81 83 81 83 82 81 80 88 81 87 87 90 93 92 90 92 91 92 92 98 97 98 99 97
58 59 58 58 58 58 58 59 59 59 59 59 59 60 65 67 72 85 74 78 85 84 80 80 79 81 79 83 86 83 86 89 91 91 92 93 89 89 90 95 98 98 97 96 97
58 58 58 58 58 58 58 58 58 58 58 58 59 59 62 56 85 88 86 85 85 86 86 85 83 87 83 83 83 88 88 88 90 90 91 87 87 89 90 95 95 95 95 97 98
58 57 58 58 58 58 58 58 57 57 58 59 60 64 61 63 83 86 84 83 86 84 80 89 90 86 86 81 89 87 81 85 86 88 87 90 81 83 92 95 93 93 95 97 97
57 57 57 57 58 58 58 57 57 58 58 59 60 64 55 78 84 82 84 82 84 84 82 86 90 85 84 87 85 79 80 72 83 86 87 86 73 85 93 92 91 93 94 95 95
57 57 57 57 57 57 57 56 57 59 59 61 62 63 59 76 72 78 80 75 80 82 83 84 83 79 81 74 72 75 67 70 75 87 85 82 76 86 92 91 88 91 93 93 94
57 56 56 56 57 57 56 56 62 61 63 71 71 60 67 68 77 76 81 78 74 75 75 73 74 71 73 71 60 65 67 71 71 81 82 80 79 87 90 89 87 90 91 91 92
57 56 56 56 56 56 58 72 67 63 67 63 65 63 69 76 80 76 79 74 73 70 63 71 64 62 68 72 74 74 73 71 76 83 78 77 79 84 86 87 87 89 90 89 90
56 56 56 56 56 56 61 64 63 62 51 65 67 68 72 74 64 70 78 67 65 59 66 66 60 70 75 76 73 72 70 70 77 82 79 78 77 83 86 85 87 88 89 90 91
55 55 56 56 55 59 67 66 72 70 52 59 68 68 70 72 64 65 72 68 63 61 63 60 67 74 72 72 70 71 68 69 70 77 80 77 73 76 84 87 88 88 90 91 91
55 55 55 54 56 68 66 70 73 70 43 56 61 66 68 69 61 73 75 69 64 59 64 64 71 71 70 69 72 65 76 74 71 69 63 77 61 72 79 81 84 86 89 90 91
54 55 54 54 61 62 67 73 72 64 32 59 60 75 71 63 65 65 76 68 59 61 63 60 65 66 66 69 75 70 78 75 73 68 67 68 64 70 78 76 80 85 88 89 92
55 55 54 64 64 65 70 70 64 40 32 53 60 56 60 61 62 67 65 71 69 62 64 65 74 72 70 75 77 79 74 74 73 69 58 65 65 66 72 76 80 85 88 90 93
54 55 57 66 57 69 68 57 36 34 53 47 48 53 53 56 57 59 58 57 54 49 50 59 63 71 74 68 74 75 68 57 55 56 56 69 65 68 76 81 82 83 87 91 94
53 52 58 67 65 66 57 44 31 47 45 53 55 55 50 57 55 56 55 52 60 54 47 51 48 64 72 69 67 69 68 59 47 52 58 70 60 69 82 85 86 87 90 92 88
51 67 63 68 68 65 45 33 41 46 51 49 52 46 49 55 54 55 54 51 53 52 40 51 53 70 71 74 74 68 65 74 64 68 63 69 73 79 81 82 83 85 87 88 87
61 65 66 68 66 60 42 39 45 53 53 51 41 49 43 48 43 48 50 50 49 51 46 52 47 65 70 73 74 71 77 62 66 51 52 64 66 69 74 78 82 83 85 87 86
59 60 67 72 66 54 38 44 50 57 55 48 45 44 47 47 51 49 50 49 47 51 55 54 48 55 66 64 64 67 68 68 69 67 58 55 63 80 78 81 82 85 87 87 85
62 51 69 71 46 47 45 51 51 54 58 53 52 48 46 47 47 48 45 49 52 53 48 57 46 45 56 72 74 72 69 69 62 58 66 65 65 82 81 84 86 87 88 89 86
58 61 68 65 38 41 52 52 56 54 54 52 48 51 53 47 40 46 48 53 53 47 42 50 47 43 47 59 70 67 71 72 69 70 62 61 66 83 83 83 88 87 88 85 85
58 44 58 61 54 42 44 48 49 59 55 55 52 53 48 47 53 45 50 48 49 49 47 45 46 44 40 53 65 62 68 72 69 62 65 66 69 76 80 81 84 83 83 84 85
57 49 52 41 44 44 46 45 45 46 54 56 51 49 48 44 47 46 47 50 52 47 45 41 43 49 49 49 56 67 67 70 67 69 65 69 69 77 81 83 84 83 84 84 85
49 49 54 47 47 45 45 47 44 46 46 46 45 49 50 44 46 42 48 47 45 45 41 43 41 50 47 47 54 61 68 70 71 70 73 74 70 84 84 87 85 84 84 83 84
57 54 44 44 45 40 44 45 46 47 49 52 48 47 45 47 52 55 55 55 54 49 47 45 43 49 37 47 52 53 65 69 71 74 73 67 72 82 81 82 83 84 85 85 85

GFSSW_sfc_temp_036.txt.gz
Temp
60 61 60 60 60 60 60 60 60 60 60 61 61 61 60 60 60 71 69 81 83 73 72 88 87 89 91 85 88 89 73 70 74 78 82 93 89 96 99 94 96 97 96 99 104
60 60 60 60 60 60 60 60 60 60 60 60 60 60 60 60 60 66 78 77 76 74 84 83 82 84 82 82 83 79 72 73 83 85 85 90 91 92 90 90 89 91 99 102 103
59 60 60 59 59 60 59 59 59 60 60 60 60 60 60 61 65 79 72 74 74 77 87 89 88 85 78 82 81 79 73 80 84 88 90 88 89 94 89 86 91 91 95 98 99
59 59 59 59 59 59 59 59 59 60 60 59 59 59 60 63 62 80 74 74 74 85 84 82 81 77 76 75 83 75 81 83 85 89 88 86 91 88 90 90 97 97 98 98 96
58 59 59 59 59 58 58 58 59 59 59 59 59 59 62 63 67 85 75 77 84 81 77 76 75 76 72 77 80 78 81 85 88 89 89 90 87 87 89 95 98 98 97 95 95
58 58 58 58 58 58 58 58 57 58 58 59 59 59 59 51 81 88 87 87 86 84 79 78 77 81 78 78 77 82 83 84 87 87 89 86 87 88 90 95 94 95 94 95 96
58 57 58 58 58 58 58 57 57 58 58 59 60 62 57 58 80 84 83 82 85 85 80 86 87 80 80 75 84 83 77 81 84 86 85 88 81 83 91 94 91 92 93 95 95
57 57 57 57 58 58 58 57 57 58 59 60 60 62 53 76 82 79 81 79 83 84 82 85 86 81 79 82 79 76 76 69 80 83 85 84 71 84 91 90 88 91 92 93 94
57 57 57 57 57 57 57 56 57 59 60 61 60 60 57 78 72 77 80 75 81 83 83 84 80 73 76 70 67 72 65 67 72 83 82 81 75 85 91 89 86 88 90 92 92
57 56 56 56 57 56 56 56 59 61 66 70 68 60 67 65 77 79 82 79 74 75 73 74 72 65 67 66 56 62 64 68 69 78 81 78 77 84 88 89 87 88 89 89 89
57 56 56 56 56 55 57 64 67 62 63 61 64 62 68 76 80 76 80 77 74 69 60 68 61 58 62 68 70 70 69 67 73 81 77 76 76 80 86 87 85 86 86 86 88
56 56 56 56 56 55 58 61 65 66 54 65 66 66 71 74 64 71 79 67 65 58 64 62 57 66 70 70 69 68 66 67 74 79 78 76 75 81 84 84 86 86 85 86 88
55 55 55 55 55 58 64 68 74 72 54 58 65 65 67 72 64 65 72 67 61 58 60 57 63 70 68 66 66 67 65 66 67 74 78 75 71 75 83 86 88 88 89 88 87
55 55 55 55 56 67 65 73 76 72 45 54 62 67 71 71 63 75 76 68 62 56 60 61 68 66 66 64 68 62 73 71 69 67 61 74 58 70 77 79 84 86 87 87 88
54 55 55 54 59 62 66 72 73 65 29 60 61 76 71 65 65 66 76 69 58 59 60 56 62 62 61 66 70 66 74 72 71 67 66 67 62 67 76 75 79 83 86 87 88
54 55 54 64 66 69 73 70 64 38 28 41 56 58 57 59 61 67 67 71 69 61 62 60 69 67 66 70 71 74 70 69 70 68 56 64 63 62 69 75 79 84 86 88 90
54 54 54 65 61 69 69 58 35 30 50 44 49 56 55 55 57 60 58 58 53 47 49 57 59 66 69 64 70 69 64 53 51 53 52 68 63 65 75 80 82 82 85 87 89
53 52 60 68 73 69 59 42 28 47 48 56 54 55 51 56 57 59 56 53 60 55 46 43 43 60 67 64 62 64 63 56 44 48 55 66 58 67 80 84 86 87 87 88 88
51 68 66 71 71 67 51 33 41 47 53 51 50 47 50 54 53 53 52 51 54 56 37 40 44 63 67 69 68 63 58 69 60 64 58 65 70 75 80 82 84 84 85 84 84
57 62 67 71 69 59 43 40 49 56 56 54 40 37 41 46 42 49 48 51 53 57 53 46 38 55 62 69 69 66 72 57 61 48 47 60 63 67 75 78 82 81 82 84 83
59 58 67 73 68 52 38 44 51 60 59 50 46 46 44 44 46 45 47 54 54 54 57 51 43 46 58 59 59 63 61 64 65 62 53 51 60 77 77 80 80 82 84 84 83
60 50 70 70 47 46 43 52 53 56 59 57 55 49 43 44 44 45 48 47 53 55 46 52 44 41 49 64 69 68 64 64 57 54 62 61 62 81 81 83 84 84 86 85 84
56 61 69 66 39 42 50 51 55 54 50 54 51 53 50 45 40 37 44 56 57 51 45 44 44 38 44 54 60 58 66 67 66 66 58 57 62 82 83 82 85 85 86 83 83
55 47 58 60 53 44 44 45 48 56 53 56 54 54 42 44 52 46 46 46 56 53 50 46 40 40 36 40 44 47 61 67 65 59 60 64 67 75 78 80 84 84 83 83 82
57 50 56 44 46 46 46 46 44 46 55 55 50 50 46 43 46 45 48 49 56 48 49 40 35 43 46 45 42 42 50 64 64 67 61 67 70 75 79 81 81 83 82 81 80
52 51 54 47 50 45 46 45 44 48 48 47 45 49 49 43 44 42 47 48 47 49 43 42 35 43 43 49 42 40 51 57 69 69 70 69 70 78 79 84 81 80 82 80 81
57 57 49 45 45 40 44 45 46 48 51 52 50 48 46 48 52 53 54 53 53 49 47 46 39 39 37 46 41 38 52 58 65 72 72 66 71 77 75 82 81 81 82 82 82

GFSSW_sfc_temp_039.txt.gz
Temp
60 60 60 60 60 60 60 60 60 60 60 60 60 60 60 60 60 60 59 71 74 74 71 83 81 80 81 75 78 79 59 56 62 67 73 83 82 88 90 88 88 90 86 90 93
60 60 60 60 60 60 59 59 59 60 60 60 60 60 60 60 54 55 68 74 75 74 78 77 75 79 70 74 75 70 60 63 74 77 75 82 83 85 85 84 83 88 92 94 95
59 59 59 59 59 59 59 59 59 59 60 60 60 59 59 59 54 66 74 73 74 75 81 81 79 78 69 71 74 72 63 72 75 79 81 80 82 87 83 80 84 83 88 90 91
59 59 59 59 59 59 59 59 59 59 59 59 59 59 60 56 50 71 74 73 73 77 77 75 73 67 66 65 74 66 73 75 76 80 79 78 83 81 83 81 87 90 89 88 86
58 59 59 59 59 58 58 58 59 59 59 59 59 59 56 51 52 75 75 75 78 77 74 72 69 65 60 67 72 69 72 77 80 79 79 82 80 80 81 87 90 91 90 84 84
58 58 58 58 58 58 58 57 57 57 58 59 59 59 51 40 68 75 78 78 80 75 74 71 66 71 65 66 66 72 73 75 79 78 80 78 80 82 84 87 87 89 87 85 84
57 57 57 57 57 58 57 57 57 57 58 59 60 59 50 47 68 71 69 68 73 76 74 76 75 71 69 64 72 72 67 72 74 77 76 81 74 76 84 86 84 85 87 84 85
57 57 57 57 57 57 57 57 57 57 59 60 61 55 44 66 67 65 66 68 73 75 74 76 75 68 64 69 69 65 66 58 69 75 78 77 64 76 84 83 80 83 86 85 82
57 56 56 57 57 57 57 56 57 58 60 60 54 50 46 70 63 69 71 68 72 75 74 80 72 63 64 56 54 60 53 57 63 75 74 72 67 77 82 82 80 82 84 84 83
57 56 56 56 56 56 55 56 58 59 61 65 63 50 58 61 73 75 75 73 70 69 67 67 61 56 54 52 44 51 54 59 59 68 71 69 69 76 80 81 80 81 82 82 81
57 56 55 56 56 55 53 51 56 51 54 54 57 56 61 71 76 73 77 73 70 63 51 58 51 48 53 57 58 61 59 58 64 71 68 67 68 73 77 75 76 78 74 75 76
56 56 56 55 55 55 51 49 60 58 47 60 60 61 66 68 59 65 73 60 59 50 56 52 47 57 62 61 59 58 55 56 64 71 68 67 66 73 77 77 79 79 78 74 73
55 55 55 55 54 53 56 61 67 64 45 53 60 59 60 64 57 59 66 62 55 51 52 48 53 63 60 58 57 56 55 56 57 64 68 65 60 65 73 74 77 77 78 76 74
54 54 55 54 53 57 57 65 64 63 35 46 53 63 65 62 54 69 70 63 57 50 53 51 60 59 57 56 59 51 63 62 61 58 50 62 47 61 68 71 74 78 78 74 76
54 55 54 53 49 52 60 65 63 54 23 49 51 66 64 59 61 65 73 65 53 54 53 48 53 54 54 56 62 56 65 62 61 57 55 57 47 60 64 64 66 71 76 73 74
54 55 54 56 53 58 64 62 57 35 24 42 55 53 55 58 58 62 62 67 65 55 55 53 62 58 57 62 64 66 61 59 59 55 44 54 53 55 60 65 66 71 75 76 75
55 54 52 58 50 62 60 51 32 26 51 46 49 53 53 53 55 57 55 51 47 42 42 51 53 59 62 54 60 58 51 39 38 40 41 57 52 58 62 69 70 72 73 74 74
53 52 54 60 62 60 52 38 23 43 44 53 52 50 46 49 49 53 52 46 54 51 42 39 35 52 61 55 50 51 51 42 32 36 43 57 49 55 70 75 77 78 77 75 74
52 56 55 59 64 58 44 30 33 40 50 49 50 39 41 48 45 45 46 42 50 47 36 36 39 56 56 57 58 52 46 56 47 51 43 51 59 67 71 72 75 75 74 73 68
47 50 55 63 61 52 38 36 43 51 52 48 40 39 34 41 38 38 41 50 51 49 49 44 33 50 55 59 58 53 58 44 49 36 35 48 52 53 64 67 72 69 70 67 70
46 47 58 65 58 46 33 38 46 56 53 42 42 43 42 37 38 38 38 46 50 52 50 44 38 41 49 46 46 50 49 50 48 49 40 39 47 63 64 68 67 68 70 70 70
48 41 59 61 41 41 36 44 50 51 49 48 49 48 43 42 41 41 39 46 48 49 44 42 37 32 39 52 57 54 52 52 43 41 49 47 49 68 69 67 69 70 70 72 72
42 48 59 57 35 33 43 46 49 50 48 43 43 46 43 36 33 40 42 48 49 45 41 41 34 29 35 44 51 48 53 54 52 52 47 45 49 71 71 72 72 69 71 73 72
45 39 48 50 48 41 39 41 42 51 49 51 49 48 43 39 45 41 41 46 48 48 50 45 38 34 28 35 41 38 43 46 42 46 49 52 56 65 68 69 70 70 73 73 73
46 42 47 35 38 42 42 42 41 40 50 49 45 46 43 36 39 40 43 46 51 48 45 40 33 38 40 44 46 39 42 44 40 44 48 56 58 65 68 68 68 73 73 72 72
43 42 46 40 44 42 41 39 40 43 43 42 40 44 44 37 39 37 42 41 40 46 42 42 33 38 35 43 47 40 45 45 44 46 49 59 60 68 70 75 73 72 74 72 73
49 50 44 41 42 39 37 41 42 44 47 48 46 44 39 43 48 49 48 47 46 42 41 40 36 35 31 44 41 34 44 46 47 50 51 53 63 67 64 65 67 70 74 73 75

GFSSW_sfc_temp_042.txt.gz
Temp
60 60 60 60 59 59 59 59 59 60 60 60 60 60 60 60 59 55 54 68 68 72 73 77 75 75 74 69 72 71 53 50 56 63 68 78 76 84 88 84 86 87 85 88 92
59 60 59 59 59 59 59 59 59 59 59 60 60 60 60 59 54 50 65 71 72 73 74 73 72 74 66 68 68 62 55 56 67 71 68 76 76 79 79 79 81 82 87 92 91
59 59 59 59 59 59 59 59 59 59 59 59 59 59 59 58 51 61 73 70 72 73 76 76 76 73 64 67 67 64 60 67 69 74 76 75 76 81 78 74 80 79 85 88 86
59 59 59 59 59 58 58 58 59 59 59 59 59 59 59 54 47 67 74 73 72 72 71 71 69 64 60 61 69 61 69 70 72 76 75 74 78 76 77 77 84 84 86 85 83
58 58 58 58 58 58 58 58 58 58 58 58 59 59 54 45 48 70 73 74 75 70 67 67 64 63 58 62 67 65 67 71 74 74 75 77 74 74 76 83 87 85 85 81 81
58 58 58 58 58 58 57 57 57 57 58 58 59 60 50 38 61 67 69 69 69 67 68 66 65 68 63 61 62 64 66 69 71 71 74 73 74 76 79 84 84 85 83 83 81
57 57 57 57 57 58 57 57 56 57 58 59 59 59 50 45 63 64 63 61 65 67 65 71 71 68 64 59 66 67 60 66 68 68 68 75 68 70 80 83 82 81 80 80 80
57 57 57 57 57 57 57 56 56 57 58 59 60 57 45 61 61 58 60 60 66 67 68 70 70 64 61 62 63 58 57 53 65 69 71 70 59 74 78 78 77 78 82 84 80
57 56 56 57 57 57 56 56 57 59 60 60 52 48 42 64 59 63 63 61 68 69 69 76 66 59 59 53 48 52 49 52 58 68 68 68 62 72 77 77 76 75 77 79 81
57 56 56 56 56 56 55 56 57 59 60 62 60 47 52 58 68 71 68 67 64 65 63 60 56 51 48 46 41 46 49 54 54 63 67 65 64 71 76 77 76 77 79 80 81
56 55 55 55 55 55 53 47 52 49 54 49 53 53 56 64 69 66 70 67 64 58 47 53 45 44 50 54 56 55 54 52 58 66 63 62 63 67 72 70 70 73 75 76 77
55 55 55 55 55 55 49 47 54 54 42 57 57 58 62 63 54 60 68 56 54 47 51 47 43 53 57 56 54 52 49 49 56 63 61 61 61 68 71 72 74 75 74 74 70
54 55 55 55 54 52 50 55 60 56 40 50 56 57 58 60 53 54 61 57 51 46 47 44 49 59 56 53 52 51 49 50 50 59 62 59 55 60 68 69 72 73 73 72 72
54 54 55 54 51 49 50 59 58 55 32 43 51 56 60 61 52 63 64 57 52 46 48 46 54 54 52 50 54 46 57 56 54 51 44 59 43 57 64 67 71 71 73 69 72
54 54 54 54 45 45 56 55 56 50 23 51 53 66 64 56 60 59 68 59 49 50 49 44 48 48 49 52 57 50 59 56 55 50 49 51 43 55 58 60 63 68 68 73 78
54 54 54 50 45 50 55 55 51 31 22 45 55 53 53 57 58 61 59 63 62 52 52 50 57 54 52 57 58 59 54 53 53 45 38 48 46 50 56 61 65 65 69 72 71
54 53 52 53 46 53 52 46 29 24 47 43 45 50 50 47 51 52 49 45 44 39 36 47 49 55 58 50 54 50 41 32 30 33 36 51 46 53 57 62 66 67 70 70 70
53 52 50 53 50 52 47 36 24 39 40 48 46 48 43 47 47 46 47 43 50 47 38 38 34 49 57 50 44 44 42 33 27 29 38 51 42 52 64 71 72 74 73 72 67
51 44 47 53 55 51 40 24 29 39 45 41 44 39 39 45 43 43 42 42 47 44 35 34 37 52 54 55 51 44 40 48 38 45 36 44 51 61 67 68 71 71 69 68 63
43 42 47 56 55 47 35 34 38 46 47 45 35 40 34 37 38 38 39 46 44 50 45 41 32 47 51 54 54 48 51 38 37 30 30 40 43 48 56 61 65 66 68 62 61
42 42 52 56 52 39 26 33 42 51 50 41 39 38 40 36 37 36 38 45 46 46 47 41 36 38 45 45 42 42 41 42 41 38 35 33 41 55 58 60 63 68 66 63 63
40 37 55 56 38 33 31 41 47 46 50 46 45 43 39 38 36 38 35 42 47 47 38 41 34 29 37 48 54 47 43 41 35 36 39 43 44 63 60 62 64 63 64 65 65
38 39 54 52 34 31 37 42 45 45 45 42 41 44 42 38 33 39 42 48 48 45 40 40 31 25 30 39 45 42 46 43 40 42 40 37 42 64 64 64 70 62 64 65 65
40 35 41 41 41 35 35 36 39 49 47 48 44 45 39 38 39 37 40 47 52 47 49 41 34 32 23 34 40 37 43 44 38 32 41 45 48 57 63 65 68 62 63 65 66
38 37 39 30 34 35 37 38 38 37 45 45 41 41 39 34 36 36 41 43 48 50 43 41 32 36 37 39 41 40 41 43 39 41 34 45 43 53 61 66 68 67 67 66 66
36 36 39 38 38 40 38 35 37 39 40 37 38 41 41 34 38 33 38 38 37 42 39 38 33 37 34 40 41 38 44 42 44 45 44 44 43 59 63 66 65 67 67 66 66
40 42 41 40 36 35 37 37 38 42 43 46 42 41 37 40 45 47 46 45 43 39 36 35 35 32 29 38 40 34 42 43 47 48 47 41 49 59 58 60 60 67 69 68 68

GFSSW_sfc_temp_045.txt.gz
Temp
59 59 59 60 59 59 59 59 59 59 60 60 60 60 60 60 59 54 52 65 66 71 73 73 72 72 70 66 70 66 51 47 54 60 65 69 67 76 82 78 79 82 79 84 86
60 60 60 59 59 59 59 59 59 59 59 60 60 59 59 59 52 50 63 69 70 71 71 71 70 70 61 63 64 59 50 55 63 69 65 68 70 74 75 72 74 78 83 85 85
59 59 59 59 59 58 58 58 58 59 59 59 59 59 59 58 48 56 72 71 70 71 69 73 75 69 60 63 62 60 56 66 67 70 71 70 70 76 73 68 74 75 80 84 82
58 59 58 58 58 58 58 58 58 59 59 59 59 59 60 51 45 64 73 71 72 73 66 68 67 61 58 58 64 56 65 68 71 73 71 70 74 72 74 74 82 83 82 82 81
58 58 58 58 58 58 58 58 58 58 58 58 58 59 56 43 45 66 70 68 70 70 63 64 63 62 56 59 65 61 63 68 71 72 71 73 70 70 72 79 81 83 83 79 79
57 57 57 57 57 57 57 57 57 57 57 58 58 59 52 38 59 63 64 64 65 63 66 65 62 64 59 59 61 61 64 66 67 67 69 69 70 72 74 80 80 80 79 79 77
57 57 57 57 57 57 57 57 56 56 58 58 59 58 49 46 60 61 59 56 59 61 59 67 70 67 61 54 63 61 56 62 63 63 65 70 64 66 75 79 77 79 80 77 77
57 56 56 57 57 57 57 57 56 58 60 60 59 56 44 60 61 56 59 57 60 60 62 66 67 64 59 58 61 56 53 50 62 65 66 68 55 69 75 75 75 75 74 76 76
56 56 56 56 56 57 56 56 58 61 60 60 51 48 41 62 57 62 59 57 62 64 64 72 63 58 57 49 45 49 48 50 55 66 66 66 59 69 76 75 73 73 75 76 78
56 55 55 55 56 55 55 55 57 58 59 60 57 44 51 55 63 66 68 62 59 61 59 59 54 48 46 47 40 43 44 52 52 59 64 62 60 67 71 72 71 72 74 76 77
56 55 55 55 55 55 52 48 48 46 49 46 50 50 54 62 66 62 66 61 60 55 47 51 45 42 48 52 52 50 50 47 55 61 61 59 59 64 68 66 68 70 71 72 69
55 55 55 55 55 54 47 47 51 51 40 53 53 54 60 61 52 59 65 52 51 43 48 44 43 52 54 53 50 48 44 44 52 58 56 55 56 60 63 66 68 69 70 71 73
54 54 55 54 53 50 46 52 57 51 37 47 55 55 59 59 52 53 59 54 47 43 43 40 47 56 53 50 48 46 45 46 46 54 57 53 51 55 62 63 67 70 67 68 67
54 54 54 53 50 45 47 57 53 52 30 43 51 56 60 60 51 65 61 54 48 43 45 43 50 50 47 47 49 42 52 52 50 46 40 53 40 52 59 62 66 68 70 66 67
54 54 54 53 44 43 54 51 52 49 21 50 53 65 62 55 57 55 61 55 45 46 46 41 44 45 45 47 52 45 53 50 50 44 41 45 39 50 56 57 61 64 68 66 72
54 54 54 48 44 48 51 50 49 31 21 43 51 49 49 54 54 54 53 58 56 46 47 45 53 50 48 53 53 54 49 47 47 41 31 42 41 46 51 56 61 65 64 70 67
54 53 51 52 47 49 49 44 28 22 44 39 40 46 45 46 49 50 47 45 39 35 34 44 46 52 54 46 49 46 37 28 27 27 32 46 42 49 53 57 59 59 62 65 66
52 51 49 51 47 49 45 35 23 36 37 46 44 44 40 45 45 46 46 41 46 43 39 34 31 46 54 48 41 40 39 29 26 27 35 48 39 48 60 66 69 70 67 65 65
50 43 44 50 51 48 39 23 28 36 43 41 42 37 37 43 42 41 42 40 45 45 37 36 37 52 52 53 49 41 36 44 35 37 33 38 46 57 62 61 64 62 65 63 62
42 41 45 53 52 46 35 32 36 44 46 44 33 38 32 36 35 36 38 44 41 46 43 39 31 45 50 52 52 46 48 35 32 27 26 35 39 44 51 59 64 63 61 62 62
41 41 51 53 50 41 31 31 39 48 48 42 37 36 37 34 34 34 37 43 45 44 44 37 34 37 43 41 39 41 38 39 38 35 29 29 35 49 54 57 56 59 62 63 62
37 37 51 52 36 31 28 39 45 45 49 45 42 40 37 37 34 36 37 41 46 45 36 39 32 28 34 44 50 44 41 39 34 32 39 34 38 60 53 56 59 60 63 59 55
38 37 49 48 26 25 35 40 43 43 43 43 40 42 42 36 31 37 41 47 47 44 37 38 30 24 29 36 42 38 43 42 37 36 35 34 38 57 57 60 62 60 61 60 58
41 33 38 38 36 31 32 35 37 45 44 45 41 43 37 34 37 35 38 46 47 45 50 43 34 29 23 32 37 34 40 43 36 29 37 39 43 52 57 56 58 60 58 57 59
37 33 36 28 32 33 32 35 36 36 43 42 38 39 36 33 34 33 39 40 45 48 41 39 32 33 35 38 38 37 37 40 39 38 32 43 43 46 50 53 59 62 60 59 60
32 33 37 34 35 35 35 33 36 40 39 37 36 39 38 32 36 33 37 36 35 41 38 36 28 33 33 39 39 36 39 40 40 42 41 42 41 52 56 57 61 59 63 62 62
41 38 35 34 38 35 36 39 38 41 41 43 41 39 35 38 44 45 44 41 42 40 37 35 32 28 28 39 36 30 37 40 42 45 44 37 44 55 53 56 59 58 59 64 64

GFSSW_sfc_temp_048.txt.gz
Temp
60 60 59 59 59 59 59 59 59 59 59 60 60 60 60 60 59 52 50 64 64 68 70 70 70 69 68 63 67 63 49 44 52 58 63 67 64 73 78 75 78 78 77 80 80
59 59 59 59 59 59 59 59 59 59 59 59 59 59 59 59 49 47 61 68 69 70 65 66 66 67 60 62 64 58 47 52 62 68 65 67 62 67 71 69 72 76 80 84 83
58 59 59 59 59 59 58 59 59 59 59 59 59 59 59 56 46 53 71 70 70 71 66 66 67 67 58 59 60 58 54 64 66 69 70 68 67 71 67 65 70 70 74 77 77
58 58 58 58 58 58 58 58 58 59 59 59 59 59 59 49 44 59 70 69 70 70 64 63 61 58 54 55 60 53 62 67 68 71 69 68 70 67 69 71 75 77 77 76 76
57 58 58 58 58 58 57 57 58 58 58 58 58 58 52 41 45 60 68 65 66 65 61 59 58 58 52 56 62 58 59 65 69 70 70 71 67 67 69 74 78 78 77 75 74
57 57 57 57 57 57 57 57 57 57 57 58 58 57 46 35 57 61 61 60 60 56 59 60 60 62 58 57 61 59 62 64 66 65 67 65 67 67 70 76 76 77 76 75 74
57 56 56 57 57 57 57 57 56 57 58 60 59 58 48 43 58 59 58 53 55 57 55 60 63 59 58 52 61 59 54 56 61 63 63 68 62 64 72 75 74 75 77 76 74
57 56 56 56 57 57 57 57 56 57 60 60 60 52 42 57 57 55 56 55 59 56 56 61 62 56 55 56 56 54 52 49 62 61 65 67 55 68 73 72 72 74 76 76 72
56 56 56 56 56 56 56 55 57 61 60 60 50 46 40 61 55 60 58 57 60 59 57 66 58 54 54 48 43 46 47 46 54 63 64 63 57 66 72 72 69 69 70 71 70
56 55 55 55 56 56 55 56 59 58 58 59 56 43 49 54 62 64 63 62 56 56 54 53 51 46 43 43 38 40 43 49 48 57 60 57 58 65 67 69 65 65 68 69 71
56 55 55 55 55 55 51 50 47 45 47 45 48 49 53 59 64 59 64 59 57 50 41 48 42 40 47 51 52 49 48 44 51 58 58 57 58 61 63 64 66 68 70 72 73
55 55 55 55 55 54 47 46 49 48 38 51 51 51 56 58 50 58 61 50 49 41 46 43 39 48 50 50 49 46 43 41 49 56 52 52 50 55 58 60 62 65 67 67 68
54 54 54 54 53 49 44 50 53 49 36 45 51 52 54 56 51 53 57 51 46 42 41 37 45 53 51 47 45 44 43 43 44 51 53 49 49 52 58 60 63 65 65 65 67
54 54 54 54 49 43 46 53 50 49 29 41 49 54 57 56 50 60 59 52 46 41 42 40 48 48 44 45 46 39 49 50 48 44 37 49 38 49 56 57 60 64 66 67 63
54 54 54 54 43 43 50 49 48 47 21 47 49 61 58 50 54 55 61 51 43 44 45 40 41 43 43 45 49 43 51 47 47 42 39 41 36 44 50 51 57 62 65 67 65
54 54 54 47 47 46 49 47 47 31 21 40 47 46 45 49 52 53 51 56 54 45 45 43 49 47 46 51 51 52 46 43 42 38 29 39 39 43 49 54 58 61 63 62 62
53 53 51 50 46 47 46 44 28 22 42 37 39 44 42 43 46 49 47 44 39 32 31 40 43 47 52 43 46 43 35 26 25 25 29 43 39 46 51 55 56 58 59 60 61
52 50 49 50 46 47 44 34 22 35 35 44 43 42 37 42 43 43 44 39 43 39 34 32 29 43 50 45 40 38 36 27 24 24 30 43 35 44 56 63 65 65 61 60 60
50 43 44 48 50 46 39 23 28 35 41 39 40 34 35 40 38 38 39 40 40 40 32 31 34 47 50 49 48 40 33 40 33 33 29 34 41 52 58 60 60 58 59 59 60
40 41 45 50 49 45 33 32 34 42 44 42 32 36 30 34 33 33 35 42 41 46 42 38 33 45 49 50 48 43 47 34 29 26 25 32 36 40 48 52 60 57 56 58 60
39 41 49 50 49 38 25 30 37 46 45 40 36 34 35 33 32 32 36 41 44 43 44 39 34 36 42 39 39 38 35 37 34 31 27 27 33 46 51 53 53 54 56 57 57
36 36 49 49 35 26 26 36 43 43 46 43 40 38 35 36 33 34 35 40 44 44 36 38 32 28 34 42 45 40 36 36 30 31 35 30 32 50 51 52 52 53 59 61 56
40 39 47 46 25 24 33 38 41 41 40 41 39 41 40 35 31 35 38 46 46 42 37 38 30 24 30 35 40 35 39 38 35 33 29 31 34 53 54 56 55 54 59 59 56
39 32 36 36 34 30 34 34 35 44 41 42 40 41 38 33 36 33 36 44 45 44 50 43 32 28 23 30 35 32 37 39 34 28 33 36 40 49 53 54 53 56 58 56 57
34 30 39 26 29 30 35 37 35 37 42 40 37 39 36 31 34 33 37 39 43 46 40 38 31 34 34 36 37 36 35 37 34 37 32 38 40 45 48 51 54 56 58 59 57
31 33 35 31 33 37 37 36 36 39 37 36 35 38 38 33 34 32 36 37 34 38 37 37 31 31 31 37 37 34 37 38 38 38 38 39 38 49 53 56 55 57 58 59 60
43 43 37 34 30 28 30 37 38 39 40 42 41 38 36 39 43 43 43 41 40 37 36 35 33 31 25 35 35 27 35 37 39 41 40 34 42 49 50 52 54 56 58 59 60

GFSSW_sfc_temp_051.txt.gz
Temp
59 59 59 59 59 59 59 59 59 59 60 60 60 60 60 60 59 59 59 68 66 68 69 72 75 73 75 73 75 73 65 61 64 62 69 77 78 81 83 80 84 88 88 89 86
59 59 59 59 59 59 59 59 59 59 59 60 60 60 59 59 56 54 65 68 70 71 67 69 69 72 69 70 72 69 63 65 71 72 71 77 75 78 79 79 81 83 89 91 92
59 59 59 59 59 58 58 59 59 59 59 59 59 59 59 60 55 62 70 69 69 71 69 70 69 71 66 69 70 69 62 70 71 74 75 75 78 80 78 76 82 82 84 89 90
58 58 58 58 58 58 58 58 58 59 59 59 59 59 59 57 54 66 70 68 69 73 68 66 65 64 64 63 70 64 69 71 74 75 73 72 79 77 78 80 86 86 85 86 87
57 58 57 57 57 57 58 58 58 58 58 58 59 59 57 53 58 67 67 66 68 67 64 63 62 64 62 66 68 64 69 71 73 73 74 75 73 74 76 82 85 85 84 84 85
57 57 57 57 57 57 57 57 57 57 58 58 58 58 52 49 66 66 66 65 63 63 63 64 64 67 63 64 64 71 69 69 72 70 71 69 73 74 77 81 80 81 82 85 85
57 57 57 57 57 57 57 57 57 57 59 60 59 59 50 54 65 68 65 63 63 62 60 64 67 62 65 62 69 69 62 66 68 70 68 71 66 69 77 79 78 79 82 84 86
57 56 56 56 57 57 57 57 57 58 60 60 60 57 51 63 66 63 66 64 64 64 61 64 65 62 62 67 66 61 62 56 68 67 70 69 61 76 81 78 77 79 81 82 84
56 56 56 56 56 57 56 55 57 59 60 61 56 53 53 66 61 69 66 63 67 66 62 65 62 59 62 55 55 59 53 55 60 69 67 66 63 74 80 77 76 79 80 82 83
56 55 55 55 56 56 55 56 60 60 60 61 58 50 58 60 66 67 71 66 61 62 61 59 58 54 56 53 45 51 52 57 57 65 65 63 64 73 76 75 75 77 78 79 79
56 55 55 55 55 55 55 62 58 56 56 52 53 52 56 63 67 64 69 63 61 57 53 56 50 46 52 55 57 59 56 55 61 66 62 61 64 69 72 73 74 75 76 76 77
55 55 55 55 55 54 55 56 55 55 46 55 54 54 59 61 52 62 67 56 54 48 53 50 44 53 55 56 54 54 52 53 59 62 61 63 62 68 68 69 72 73 75 75 76
54 54 54 54 54 54 54 57 60 58 45 50 55 55 60 60 56 57 61 58 52 48 50 47 51 55 53 52 50 51 50 51 52 57 61 58 56 60 68 70 72 73 74 74 75
54 54 54 54 52 52 55 59 59 59 41 46 53 58 61 60 52 65 62 56 52 47 49 49 56 51 51 49 53 46 56 55 53 51 48 59 47 60 65 66 69 71 73 74 75
54 54 54 53 50 52 57 57 58 56 30 50 52 66 61 54 56 57 64 55 45 47 49 47 50 49 48 50 54 49 57 55 55 52 51 52 47 56 64 62 66 70 72 74 77
54 54 54 50 50 54 57 56 56 40 29 43 51 50 50 53 55 58 56 59 57 49 50 49 56 53 54 57 57 58 53 53 53 51 40 50 48 52 59 62 66 71 74 74 75
53 53 53 54 55 56 55 55 39 33 46 41 42 48 46 46 49 51 49 45 38 35 39 47 48 55 56 51 55 54 49 38 36 37 37 52 48 53 64 64 66 67 70 73 76
52 51 52 55 57 55 55 47 31 37 39 47 45 46 41 47 47 47 46 42 42 37 35 35 36 48 55 52 49 50 49 42 32 35 41 50 43 54 65 69 70 70 71 72 75
50 53 55 58 57 55 52 35 37 38 43 41 43 39 40 44 43 44 44 42 42 44 34 31 37 49 53 55 55 48 44 53 43 44 43 47 53 61 65 66 69 69 71 71 72
48 50 56 57 56 55 46 37 39 46 46 44 35 40 35 40 39 41 41 45 44 49 47 42 35 43 46 54 55 52 56 42 45 34 34 44 46 53 58 61 66 67 67 68 71
49 52 57 56 57 49 36 38 41 48 48 42 39 38 39 38 39 39 40 47 47 47 50 45 40 41 48 43 44 49 46 48 49 47 40 41 47 59 61 62 61 64 67 69 71
46 46 56 57 45 37 39 41 44 45 49 45 45 42 39 40 38 38 38 44 51 49 42 45 39 35 40 51 50 49 46 46 41 40 45 44 45 62 61 62 63 63 66 70 71
43 44 55 54 36 37 41 41 43 43 44 42 41 44 44 39 33 38 42 50 50 47 43 44 39 32 38 43 47 44 46 47 46 44 41 40 46 63 63 65 66 63 66 69 70
45 39 46 46 44 39 36 39 38 47 45 44 43 45 40 38 42 37 40 46 50 49 49 47 38 36 31 36 42 39 42 45 43 39 42 44 48 56 60 60 62 63 66 70 71
41 37 40 35 39 38 38 38 37 37 44 45 41 41 39 34 37 38 41 43 46 48 46 44 35 39 39 41 41 41 41 43 41 44 38 45 47 53 58 57 59 63 66 69 72
40 39 43 38 39 38 39 38 38 38 39 40 38 41 39 34 37 34 39 39 36 43 42 45 35 37 35 41 42 39 42 43 44 45 44 45 45 56 58 60 60 64 66 67 70
45 44 39 39 37 35 38 39 39 41 43 44 41 38 38 42 45 46 46 45 41 36 38 37 36 35 32 39 39 34 42 44 45 48 48 42 51 57 56 58 60 63 65 65 67

GFSSW_sfc_temp_057.txt.gz
Temp
60 60 60 60 60 60 60 60 60 60 60 60 61 61 60 60 60 78 76 71 73 70 70 83 85 86 87 85 88 86 73 71 74 74 76 85 84 96 101 97 99 101 99 100 104
59 59 59 59 59 59 59 59 59 59 60 60 60 60 60 60 69 79 70 70 70 70 81 82 80 84 81 82 84 80 72 74 84 86 84 85 87 90 92 90 92 95 98 101 103
59 59 59 59 59 59 59 59 59 60 60 60 60 60 60 63 74 75 69 69 69 72 84 83 83 83 78 82 82 80 72 81 83 87 89 84 86 93 90 88 93 92 94 97 99
59 59 59 59 59 59 58 59 59 59 60 60 59 60 60 70 65 77 70 70 71 79 82 81 81 76 75 74 82 74 81 82 84 85 86 81 86 85 90 92 99 100 100 100 97
58 58 58 58 58 58 58 58 58 59 59 59 59 60 67 72 74 81 72 75 83 82 79 78 76 77 72 77 80 77 80 83 85 85 85 85 81 82 86 94 100 101 99 98 98
58 58 57 57 58 58 57 57 57 58 58 59 61 60 70 67 83 84 83 82 83 80 78 79 76 80 75 76 76 81 82 82 84 83 84 81 81 83 86 92 94 96 97 98 98
57 57 57 57 57 57 57 57 57 57 59 60 62 68 70 72 83 86 84 83 83 79 74 80 79 74 76 72 80 78 73 78 81 82 80 83 74 76 86 90 90 92 95 96 97
57 57 57 57 57 57 57 57 57 58 60 62 62 72 69 83 86 84 85 82 84 82 78 79 79 74 72 76 73 70 72 66 77 80 82 78 66 79 86 86 86 90 92 94 96
57 56 56 56 57 57 56 56 57 61 61 62 66 71 69 74 77 82 84 77 80 81 81 79 76 70 72 65 63 66 59 65 71 81 79 75 70 79 84 85 86 88 90 93 94
57 56 56 56 56 56 56 55 62 61 65 74 75 65 74 71 77 79 83 79 74 74 73 72 70 65 67 64 53 59 62 65 65 76 79 75 74 79 83 83 83 86 90 91 93
56 56 56 56 56 55 59 74 67 65 72 68 69 68 71 77 81 76 79 75 74 69 61 69 62 58 63 66 67 65 62 62 70 78 75 74 74 78 82 80 82 86 88 90 91
56 56 56 56 56 55 62 70 67 70 59 72 72 71 74 75 65 74 79 67 66 60 65 63 57 65 67 66 63 62 59 59 67 73 72 73 73 79 82 81 81 83 87 88 90
55 56 55 55 56 59 73 70 78 75 61 66 70 70 72 73 66 68 74 70 63 60 61 57 62 67 65 63 59 60 57 58 59 67 71 69 67 73 81 84 84 85 87 89 89
55 55 55 55 56 77 72 75 78 74 56 59 64 69 72 73 64 75 76 68 63 58 61 59 65 62 60 59 61 54 64 62 59 58 53 68 54 66 74 77 81 82 84 87 89
55 55 54 53 71 73 72 78 77 69 43 61 65 78 73 67 67 68 75 70 59 59 59 55 57 58 57 59 63 57 65 61 60 56 56 59 58 65 74 72 76 81 84 87 89
55 54 54 64 74 75 78 76 70 52 40 57 64 62 64 67 66 69 69 74 71 61 62 59 67 64 62 64 63 64 59 59 59 56 46 55 57 61 68 72 77 82 85 87 89
54 54 56 74 70 79 77 69 51 46 61 56 57 62 61 60 60 62 61 60 55 46 48 55 59 65 66 58 62 59 53 41 39 42 41 57 56 60 74 78 79 81 84 87 89
53 52 60 76 79 76 71 60 40 56 55 61 59 59 56 59 58 59 58 56 53 55 47 42 42 54 59 57 54 52 49 39 30 37 43 57 50 61 74 79 81 82 84 84 84
51 69 72 76 76 74 63 46 53 54 57 54 57 54 56 58 59 58 57 56 57 57 43 41 43 56 59 62 58 54 45 51 43 43 34 45 59 68 74 75 78 81 80 80 81
62 70 73 74 75 68 58 49 56 59 58 57 48 53 49 53 52 54 54 58 55 59 60 51 41 54 58 61 60 56 60 42 47 34 31 44 48 57 66 71 76 77 78 79 81
62 64 70 75 73 62 48 55 57 61 58 53 52 50 51 50 52 52 52 58 58 58 60 56 48 49 54 48 48 54 50 51 49 46 35 39 49 66 70 72 74 78 78 78 80
64 57 71 73 56 58 54 56 48 57 60 56 57 53 49 50 48 50 50 54 61 60 51 56 46 43 48 60 60 56 52 48 41 43 48 44 45 70 74 77 78 76 77 78 81
60 64 71 67 48 52 59 57 57 55 56 54 52 54 56 49 42 50 52 59 60 56 48 50 45 37 44 47 56 50 53 50 49 43 41 40 44 70 73 74 75 75 76 76 78
61 52 64 67 63 53 53 53 52 59 56 57 55 56 52 48 51 46 48 49 54 53 52 52 46 40 36 42 38 37 46 54 50 35 46 50 46 60 69 71 74 74 76 76 77
63 57 56 50 54 51 53 54 51 51 56 55 52 52 48 42 47 47 49 50 54 55 54 48 39 45 49 52 51 52 52 54 52 53 46 52 47 49 58 67 73 74 74 75 77
54 52 57 53 52 48 51 53 51 53 53 51 48 50 48 42 44 42 46 47 40 52 50 50 39 46 45 53 54 51 55 55 55 55 54 56 55 66 68 72 71 72 73 74 76
57 57 48 48 54 47 47 47 47 48 52 55 50 47 45 50 54 57 56 56 51 45 45 42 41 40 38 49 49 45 52 55 56 58 56 51 60 68 67 68 70 72 73 74 76

GFSSW_sfc_temp_060.txt.gz
Temp
60 60 60 60 60 60 60 60 60 60 60 60 61 61 61 61 60 73 70 70 72 70 70 80 82 82 85 80 84 84 68 65 70 72 77 87 83 91 95 92 98 100 99 100 104
59 60 60 60 59 59 59 59 60 60 60 60 60 60 60 60 64 69 70 70 70 70 76 80 79 82 77 79 79 76 68 69 78 81 80 85 87 87 88 87 90 96 101 101 102
59 59 59 59 59 59 59 59 59 60 60 60 60 60 60 62 66 72 69 71 70 71 79 82 82 79 74 79 78 76 70 76 80 83 84 83 85 90 86 83 91 90 95 98 100
59 59 59 58 58 58 58 58 59 59 60 60 60 60 60 64 62 75 71 72 71 76 80 81 79 73 70 69 78 71 78 79 81 84 83 81 86 84 86 87 95 97 98 96 94
58 58 58 58 58 58 58 58 58 58 59 59 60 60 65 68 73 80 73 75 79 83 80 78 75 75 69 73 75 73 76 80 83 83 84 85 82 82 83 90 94 96 98 95 95
57 58 58 58 58 58 58 57 57 57 58 59 60 60 64 64 85 87 85 84 84 82 79 79 76 78 72 72 72 76 77 78 81 81 83 80 81 82 85 90 90 92 93 95 95
57 57 57 57 57 57 57 57 57 57 58 60 61 68 67 71 85 87 86 84 85 82 75 80 80 73 73 68 77 75 69 74 77 79 79 83 75 77 86 89 87 88 90 93 96
57 57 57 57 57 57 57 57 57 58 59 61 62 68 64 85 88 85 86 84 86 85 82 82 80 74 70 73 70 66 68 61 73 76 79 77 66 79 85 84 83 86 88 91 93
57 56 56 57 57 57 57 56 57 60 62 63 64 66 68 76 78 83 84 78 80 82 82 83 78 69 69 62 60 64 56 60 66 78 77 75 68 79 85 82 81 83 86 89 91
57 56 56 56 57 56 56 56 62 61 64 73 74 66 74 73 79 81 85 81 76 75 73 73 71 64 65 61 49 56 59 63 62 71 74 72 73 79 82 83 79 81 83 86 88
57 56 56 56 56 56 58 72 65 62 68 68 70 70 73 79 82 78 82 77 76 70 61 69 61 57 62 65 65 63 61 59 65 72 69 69 71 76 81 81 81 81 81 82 85
56 56 56 55 55 55 59 69 70 72 59 73 74 74 77 78 67 75 81 68 67 59 65 62 56 65 68 67 63 61 57 57 63 68 66 65 65 73 79 81 81 82 82 82 85
55 55 56 55 55 60 72 72 80 78 60 69 73 72 73 76 67 69 75 71 64 60 60 56 60 67 64 62 59 59 57 56 56 63 66 62 60 66 75 80 83 85 84 84 84
55 55 55 54 55 77 73 79 81 76 53 60 65 71 74 74 65 77 77 69 63 58 60 59 66 62 60 58 61 53 64 62 59 56 48 62 48 61 69 72 77 82 84 83 84
55 55 55 54 67 72 74 80 79 70 39 64 67 79 74 67 70 71 78 70 59 60 61 56 58 58 54 57 62 56 64 60 59 55 53 54 50 56 67 66 73 78 83 84 85
55 55 55 66 67 78 81 78 72 50 39 59 67 64 65 69 69 71 70 75 72 63 64 60 66 61 59 61 60 65 60 58 57 53 42 51 51 52 59 66 73 79 82 85 86
55 54 54 69 69 81 79 71 50 44 64 58 59 64 63 61 63 65 61 60 57 49 49 55 58 60 60 55 60 61 53 40 39 39 39 53 50 54 64 70 74 78 82 85 87
53 52 61 72 79 77 71 57 41 58 57 64 62 61 58 62 62 61 60 57 62 56 49 44 41 54 61 57 53 54 51 38 27 30 35 48 39 54 68 72 76 78 83 83 86
52 70 68 74 77 74 61 45 50 55 60 56 58 56 56 61 60 59 58 57 59 60 47 44 44 59 62 62 59 53 47 55 42 43 35 40 46 58 64 67 73 76 80 80 82
58 65 71 77 76 67 55 48 57 64 62 59 49 56 49 54 54 55 55 61 58 61 61 52 42 56 59 63 61 56 59 41 40 28 27 40 42 45 56 62 70 73 75 79 80
61 64 72 77 74 60 47 54 60 65 63 55 52 50 53 51 53 51 53 59 59 56 56 55 47 45 55 53 51 53 51 52 49 44 35 31 42 55 57 62 66 72 77 78 79
62 58 73 75 57 58 55 59 55 61 64 60 59 56 52 53 50 50 49 54 60 58 50 55 46 40 46 58 54 48 51 44 33 36 42 36 39 60 58 58 64 74 77 79 80
59 65 73 71 50 53 60 60 63 58 58 57 55 58 58 52 45 50 52 60 58 55 48 47 44 35 41 50 46 40 47 48 44 45 40 36 41 58 55 50 52 67 75 76 77
59 53 65 67 65 56 53 54 55 63 59 59 56 58 54 50 54 49 50 55 56 55 55 52 45 40 32 40 43 36 45 50 43 38 43 46 46 44 44 43 49 53 74 76 76
63 57 58 51 54 55 54 54 53 54 61 60 55 54 51 44 47 47 51 53 57 56 55 50 38 44 47 49 50 49 47 49 49 52 46 49 49 50 46 45 49 54 67 73 75
54 52 56 50 57 55 53 53 52 53 52 49 49 52 50 45 46 43 49 49 46 53 51 51 39 44 42 50 51 46 50 55 55 55 54 55 52 62 50 51 54 63 71 72 75
60 60 50 47 53 54 54 53 52 53 52 56 54 50 48 50 56 57 57 56 54 49 46 44 42 39 35 47 48 41 45 46 45 50 53 46 49 58 59 60 62 66 70 72 74

GFSSW_sfc_temp_063.txt.gz
Temp
60 60 60 60 59 59 59 59 60 60 60 60 61 61 61 61 60 61 57 66 67 70 70 73 76 77 77 72 75 74 55 54 60 64 69 78 75 84 86 83 86 89 90 92 94
59 59 59 59 59 59 59 59 59 59 60 60 60 60 60 60 54 56 69 71 71 71 71 70 70 75 67 70 70 65 57 59 70 73 72 76 78 79 80 79 82 85 93 96 93
59 59 59 59 59 59 58 59 59 59 60 60 60 60 60 59 54 63 71 71 71 71 71 72 72 71 64 67 68 67 59 68 72 75 77 77 78 83 78 73 79 79 84 90 91
58 59 59 59 58 58 58 58 59 59 59 59 59 60 60 56 51 68 72 71 72 72 71 71 68 59 59 59 67 61 70 72 73 77 76 74 80 79 79 77 85 86 86 86 88
58 58 58 58 58 58 58 58 58 58 58 59 59 60 57 55 60 75 73 73 73 73 69 68 63 60 55 62 66 64 67 72 75 76 76 78 76 77 78 85 88 89 88 83 83
58 58 57 57 57 57 57 57 57 57 58 59 60 60 55 52 77 79 74 74 74 72 73 70 64 67 59 60 58 65 67 69 72 72 75 73 74 77 80 85 86 86 83 84 84
58 57 57 57 57 57 57 57 57 57 58 59 61 62 58 57 77 77 77 69 76 78 71 72 72 65 62 57 64 64 57 63 67 70 68 74 69 71 80 83 82 84 86 86 83
57 57 57 57 57 57 57 57 57 57 59 61 62 59 53 76 74 75 76 76 80 79 75 75 73 64 58 62 61 56 55 48 60 68 70 67 57 72 78 80 79 82 84 86 83
57 57 57 56 57 57 56 56 57 59 60 63 57 54 57 73 74 78 74 74 76 77 75 81 68 59 60 51 45 49 44 49 56 67 67 65 61 72 77 78 77 80 81 83 84
57 56 56 56 56 56 55 55 58 59 63 68 67 55 64 69 75 78 78 78 72 71 68 66 59 52 49 45 36 44 46 53 54 60 63 60 63 70 75 76 75 77 79 80 81
57 56 56 56 56 55 53 57 54 52 56 58 63 64 71 78 79 75 79 74 71 65 52 60 50 44 51 55 57 56 53 51 57 63 59 57 58 63 68 70 72 76 74 78 79
56 56 56 55 55 55 50 53 63 62 52 67 68 70 75 75 66 72 79 64 61 52 57 52 45 57 62 61 57 55 51 50 57 62 59 57 56 62 65 66 69 71 76 77 78
55 55 55 55 54 53 57 65 72 68 49 62 70 69 69 71 65 66 72 65 58 53 52 47 54 63 60 56 54 53 50 51 51 58 59 56 52 56 64 67 70 72 75 78 77
55 55 55 54 52 61 63 71 70 67 40 57 63 68 71 69 62 75 76 66 57 52 54 51 59 59 55 53 55 46 56 55 54 49 41 53 38 51 58 61 65 69 72 74 77
55 55 55 54 50 57 66 69 66 59 31 61 64 74 70 63 66 68 76 66 55 55 54 50 54 51 50 52 52 47 56 54 53 47 43 46 39 47 55 55 60 65 70 73 76
55 55 54 59 53 62 71 69 61 40 34 56 65 62 59 64 66 69 67 68 66 57 57 54 61 57 52 56 55 57 50 50 50 42 34 43 41 43 49 55 60 65 69 73 76
55 54 52 60 57 70 68 58 38 35 62 54 56 60 58 57 61 63 59 54 50 41 41 50 52 57 59 49 55 52 43 29 26 27 30 46 41 41 50 59 63 64 67 71 74
53 53 57 64 67 67 60 46 33 51 53 60 58 57 53 59 59 59 55 49 56 51 40 37 35 51 59 54 49 46 41 29 24 25 31 45 35 43 56 61 63 62 68 72 73
52 58 58 63 67 63 51 35 41 52 58 54 55 51 52 56 55 54 50 51 55 53 37 32 39 55 57 58 54 46 38 44 33 34 29 33 43 52 57 57 58 58 68 70 73
48 54 60 69 67 56 43 43 50 60 59 56 45 52 43 48 48 48 48 55 52 55 51 44 34 49 53 55 55 49 50 35 32 21 23 33 37 39 43 43 47 48 53 63 70
48 51 62 68 63 49 36 46 55 63 61 54 49 47 48 46 47 46 48 54 54 52 52 47 39 40 48 45 42 41 36 39 35 32 25 24 33 45 41 44 43 48 51 55 64
50 46 64 64 45 46 43 55 57 60 62 57 55 52 49 48 45 46 46 50 58 53 44 44 37 32 40 51 52 46 41 40 31 30 32 33 33 46 44 45 47 48 52 55 68
47 52 63 60 38 41 51 54 57 58 55 54 51 53 52 45 40 47 48 57 55 51 44 43 35 27 33 40 44 40 46 45 37 35 30 29 35 49 49 47 48 46 50 52 56
48 44 52 53 53 46 45 47 49 60 58 57 53 53 48 44 46 43 45 54 56 55 56 50 36 33 28 34 38 36 44 46 39 29 35 38 43 46 43 44 45 47 49 51 58
51 46 48 38 42 45 47 48 48 50 54 53 48 49 46 36 41 41 45 47 52 55 48 44 33 38 41 45 46 44 45 46 43 43 36 40 41 43 44 44 46 49 50 53 58
44 43 46 41 46 45 48 46 49 50 48 45 42 47 45 39 42 39 43 43 41 47 43 45 34 39 37 44 45 43 45 43 47 46 45 46 44 49 48 49 48 53 56 57 63
52 52 45 41 43 41 43 46 47 48 51 52 48 45 43 45 51 49 49 49 47 43 42 39 36 35 30 43 41 34 43 44 45 48 46 38 41 53 48 50 53 57 59 62 63

GFSSW_sfc_temp_066.txt.gz
Temp
60 60 59 59 59 59 59 59 59 59 60 60 60 60 60 60 59 55 53 64 64 71 70 69 72 73 73 69 71 71 53 48 54 60 64 73 68 78 82 79 82 86 86 87 87
59 59 59 59 59 59 59 59 59 59 59 60 60 60 60 60 52 51 64 71 71 71 67 66 65 69 63 66 66 62 49 57 67 69 67 72 73 75 77 76 77 81 86 90 89
58 59 59 59 59 59 58 58 59 59 59 59 59 59 60 59 51 61 71 71 71 70 67 67 66 64 58 62 62 61 57 64 68 71 73 72 73 78 74 71 76 74 81 85 86
59 58 59 58 58 58 58 58 58 59 59 59 59 59 60 55 48 66 73 72 71 69 68 65 61 52 51 54 61 57 65 67 69 72 71 69 75 73 76 76 82 82 84 82 78
58 58 58 57 58 58 58 58 58 58 58 58 59 60 54 52 56 73 74 72 70 69 65 62 56 53 48 53 59 57 62 66 69 70 71 73 71 72 74 81 85 86 84 81 81
58 58 58 57 57 57 57 57 57 57 57 58 60 60 52 49 71 75 72 69 70 64 68 64 58 60 54 52 52 58 60 61 64 64 66 67 69 73 76 81 82 83 82 81 80
58 58 57 57 57 57 57 57 56 57 58 59 61 60 52 54 71 71 70 66 71 72 68 68 66 62 57 54 57 58 53 59 61 62 63 68 63 66 75 79 78 81 83 83 81
57 57 57 57 57 57 57 57 56 57 59 60 62 56 48 69 68 69 71 72 75 73 71 70 69 60 54 56 56 51 48 42 57 63 65 64 55 68 73 74 74 77 81 83 82
57 57 56 57 57 57 56 56 57 58 60 61 53 50 52 71 71 74 70 69 72 73 71 79 66 58 56 47 41 43 38 42 51 62 62 60 56 65 71 72 72 75 77 80 83
57 56 56 56 56 56 55 56 57 57 61 65 64 51 59 64 72 74 73 74 69 68 65 61 55 49 45 41 34 41 41 46 47 56 57 54 55 62 66 68 66 67 70 75 78
57 56 56 56 56 55 51 52 53 52 54 54 58 59 64 73 75 71 75 71 67 61 49 55 46 41 46 48 52 50 48 46 51 58 55 54 54 59 63 62 62 63 66 69 71
56 56 56 55 55 54 48 51 59 60 49 62 63 64 69 71 63 69 74 61 57 48 53 48 42 52 57 56 53 50 47 46 51 57 54 52 53 59 62 62 62 64 66 67 70
55 55 55 55 54 52 52 60 64 62 45 58 65 64 65 68 62 63 68 62 54 48 48 42 50 58 56 51 50 47 45 45 46 53 55 51 48 53 60 61 64 64 65 67 68
55 55 55 55 53 51 55 66 62 60 39 53 60 65 68 66 59 72 72 64 54 49 49 47 55 55 50 49 48 41 51 50 49 44 35 50 35 48 53 54 59 63 63 63 66
55 55 55 54 46 51 62 61 59 56 29 58 60 71 66 60 62 65 72 62 52 52 50 46 49 49 48 48 51 45 53 50 48 42 39 42 35 45 51 51 56 60 63 66 68
55 55 54 52 47 54 60 59 58 39 32 54 62 59 55 60 62 64 63 63 61 52 51 51 57 52 51 54 53 55 49 44 42 38 29 40 37 40 46 50 55 59 61 64 67
54 54 51 56 53 58 57 53 37 32 57 50 52 56 53 53 57 60 57 50 44 38 38 47 48 52 55 46 51 46 38 26 25 25 27 41 37 40 49 53 55 54 51 54 57
52 51 52 58 56 56 53 44 33 50 49 57 55 54 48 54 54 55 51 44 49 47 36 34 33 46 54 47 42 42 38 26 23 24 30 41 30 39 52 51 52 54 53 55 56
51 49 52 58 60 54 46 32 36 47 54 51 52 47 46 51 50 49 46 46 48 46 34 30 36 51 53 54 48 41 34 40 32 31 23 30 38 47 49 49 50 50 53 53 56
42 46 51 61 59 51 41 39 46 57 57 54 42 48 40 45 45 44 44 51 49 51 46 41 32 47 50 52 50 43 46 30 29 19 19 28 33 35 41 43 46 48 51 53 57
45 46 57 60 56 45 34 40 51 60 59 51 46 44 44 43 44 43 46 50 52 49 48 40 35 38 44 41 38 37 34 38 32 30 24 24 29 41 41 44 43 46 49 50 51
41 42 58 57 42 38 37 48 52 55 58 54 51 48 44 44 42 44 43 47 54 50 41 41 34 28 36 47 50 43 37 35 24 28 31 27 30 46 43 44 45 47 48 50 53
38 42 56 55 32 35 44 50 53 52 52 51 49 50 48 41 37 44 45 52 53 49 42 41 32 28 32 37 42 37 41 39 34 33 27 26 30 46 47 48 46 47 48 50 52
40 38 42 43 42 38 38 43 46 56 52 52 48 49 43 40 42 40 42 50 51 50 55 47 34 31 26 33 35 34 39 42 39 30 30 34 36 42 46 45 47 47 47 50 52
41 38 40 32 36 37 37 43 44 45 50 47 44 44 39 33 37 37 41 44 49 51 46 40 32 35 38 40 42 40 41 42 39 40 34 38 36 42 45 46 48 48 49 51 51
37 37 39 35 38 38 40 39 42 45 44 42 39 43 40 34 38 36 39 38 38 44 39 40 32 37 34 41 41 38 42 44 44 43 41 43 39 48 50 49 49 49 50 50 52
42 43 39 36 35 33 35 39 42 42 46 48 44 40 39 42 46 47 46 45 43 40 38 36 34 34 29 38 37 32 40 42 43 43 41 34 40 46 46 48 49 51 53 53 55

GFSSW_sfc_temp_069.txt.gz
Temp
59 59 59 59 59 59 59 59 59 59 59 60 60 60 60 60 59 53 49 62 61 68 70 66 66 68 66 63 69 69 51 48 55 58 61 68 66 71 77 75 77 80 79 81 81
59 59 58 59 59 59 58 59 59 59 59 59 59 59 59 60 54 49 62 69 69 71 64 62 61 64 58 61 64 60 48 54 64 66 64 69 66 70 72 72 72 76 82 83 84
59 59 59 59 58 58 58 58 58 59 59 59 59 59 59 60 50 61 71 70 70 69 64 63 63 60 53 58 59 58 54 62 66 68 69 68 69 74 70 68 71 72 76 81 80
59 59 59 58 58 57 57 58 58 59 59 59 59 59 60 53 46 64 73 71 71 67 65 62 58 50 51 51 58 51 61 64 65 70 68 66 71 70 72 72 78 79 79 79 79
58 59 58 58 58 57 57 57 57 57 58 58 58 59 53 49 55 70 74 72 68 65 62 59 54 51 46 51 56 52 57 62 63 64 65 68 67 68 70 77 81 81 80 77 77
57 57 58 58 57 57 57 57 57 57 57 58 59 60 50 47 69 71 70 68 67 61 63 59 57 59 51 49 48 54 54 57 61 62 64 64 66 69 73 76 78 78 77 77 76
57 57 57 57 58 57 57 57 56 56 57 58 60 59 49 55 67 67 68 62 66 67 64 66 65 58 55 51 53 53 49 54 59 61 60 66 59 63 73 75 74 76 77 78 76
57 57 57 57 57 57 57 57 56 57 58 59 61 54 47 66 65 64 64 67 70 70 68 68 64 57 52 52 53 47 44 39 52 57 61 61 52 65 70 70 70 72 75 77 76
57 56 56 56 56 57 56 56 57 58 59 60 51 48 51 69 67 72 70 68 69 70 68 76 62 54 54 44 39 42 36 39 48 57 57 55 49 62 67 66 65 67 70 72 70
57 56 56 56 56 56 55 56 56 57 59 62 62 50 58 61 69 71 70 71 66 64 63 60 51 47 43 40 32 38 38 42 43 52 54 51 53 58 63 65 63 64 66 68 71
57 56 56 56 56 55 52 52 52 51 52 52 55 56 62 69 72 68 72 67 65 58 47 51 44 39 44 46 48 46 43 42 48 54 50 49 51 56 59 60 60 62 63 64 66
56 56 56 55 55 54 48 52 56 57 48 59 58 60 65 66 59 66 71 58 55 46 49 45 39 50 53 52 49 46 41 41 47 53 51 48 49 55 58 57 59 60 61 63 64
55 55 55 55 54 51 51 57 62 56 44 54 61 59 61 63 58 60 66 59 52 46 45 41 48 55 52 49 47 42 41 41 42 48 50 47 45 49 54 57 60 59 61 62 62
55 55 54 54 53 49 54 61 59 57 38 51 56 62 63 62 56 68 68 62 52 48 47 45 51 51 48 47 46 38 49 48 45 40 31 46 31 43 48 52 55 58 57 59 61
54 54 54 54 46 52 60 55 54 55 29 56 58 68 61 57 59 62 68 59 51 50 48 46 46 47 44 47 49 44 50 46 45 39 34 38 31 39 48 47 50 54 57 56 55
54 54 54 50 46 52 55 55 56 39 31 52 60 56 53 57 59 62 60 61 58 48 48 48 53 51 50 52 51 52 45 42 38 33 24 36 35 39 42 45 48 52 52 53 55
53 53 50 54 53 53 53 52 37 31 53 48 49 53 50 51 54 56 53 45 41 35 36 44 45 50 53 44 48 43 33 24 23 24 25 38 33 40 47 51 51 47 50 52 53
52 51 51 55 52 53 51 44 32 46 46 53 52 50 45 50 50 51 48 42 47 43 34 32 32 44 51 45 40 39 35 23 19 23 27 39 29 36 48 50 51 52 51 53 53
50 48 50 54 56 52 46 31 36 44 52 49 49 43 43 49 47 46 43 42 45 43 33 28 34 49 51 50 46 38 32 37 28 28 21 28 37 44 50 48 49 49 52 51 52
43 46 51 57 55 50 40 38 42 53 55 51 40 45 37 41 41 41 41 49 46 49 45 39 30 44 48 48 48 41 43 29 22 16 18 27 30 33 41 45 46 47 47 48 51
45 47 55 55 54 45 33 38 47 56 55 49 44 42 42 39 39 39 43 47 50 47 45 38 34 36 42 38 35 36 32 33 29 30 24 22 28 40 41 43 43 45 47 47 50
41 43 56 55 42 35 36 44 50 52 55 52 49 47 43 42 40 41 41 46 51 48 39 39 33 28 34 45 46 41 36 34 23 26 27 26 30 47 43 44 45 44 47 49 51
38 40 53 53 31 33 41 47 50 50 48 47 45 46 45 40 35 41 43 50 50 45 40 39 32 27 31 37 41 38 39 37 33 32 27 25 31 46 44 46 46 43 46 48 49
39 36 41 41 39 36 36 39 43 52 49 48 46 45 40 38 39 38 39 47 48 47 53 47 34 33 27 33 34 34 39 39 33 29 29 31 35 42 45 45 47 46 48 50 48
38 35 37 32 35 34 36 39 41 41 47 46 42 42 38 31 34 35 40 41 47 49 43 38 29 32 36 39 40 38 38 39 37 37 30 35 36 42 44 44 47 49 50 51 50
38 35 36 33 37 36 38 37 39 41 41 40 37 40 39 33 36 35 37 36 35 42 37 37 31 38 33 40 39 37 41 41 41 40 39 41 38 45 45 46 48 50 52 51 50
41 42 39 35 33 31 33 37 38 38 43 45 41 37 36 39 42 42 42 43 41 37 35 33 31 31 29 37 36 31 38 40 41 42 41 34 41 43 43 46 48 49 51 51 49

GFSSW_sfc_temp_072.txt.gz
Temp
60 60 59 59 59 59 59 59 59 59 59 60 60 60 60 60 59 51 47 60 60 67 69 64 64 63 63 59 62 62 51 48 54 58 60 67 65 69 74 72 73 77 75 77 77
59 59 59 59 59 58 58 58 59 59 59 59 59 59 59 60 52 49 60 68 69 70 61 60 58 61 56 57 60 56 47 52 61 65 61 66 66 69 69 69 68 72 78 80 78
59 59 59 59 59 58 58 57 58 59 59 59 59 59 59 60 49 59 71 69 70 69 61 60 60 57 50 54 54 52 49 59 63 66 67 66 67 72 68 66 69 68 72 76 77
58 58 58 59 59 58 58 58 57 58 58 58 58 59 60 50 45 61 72 70 71 65 62 60 56 49 46 49 54 47 56 58 62 65 64 63 68 67 69 68 75 75 75 74 74
58 58 58 58 58 58 58 58 57 57 57 58 58 59 52 47 54 68 73 72 65 63 59 56 53 49 44 49 52 49 52 58 61 63 64 67 66 67 68 73 77 78 75 74 73
58 58 58 58 58 58 58 57 57 56 56 58 58 60 48 45 64 69 67 65 64 58 60 56 54 55 49 48 50 52 51 56 61 62 63 63 65 67 71 74 75 75 73 73 73
57 57 57 58 57 57 58 57 57 57 57 58 59 58 47 54 64 63 65 61 63 64 60 62 61 56 53 48 51 52 47 52 58 59 58 62 57 61 69 72 71 72 73 72 71
57 57 57 57 57 57 57 57 56 57 58 59 60 52 46 64 62 63 61 64 66 65 64 64 63 55 50 50 51 45 42 38 50 56 59 58 49 61 65 67 67 68 69 70 69
57 56 56 57 56 57 56 55 57 58 59 60 50 46 50 67 64 68 64 64 66 66 64 74 61 51 52 43 39 40 34 37 46 53 54 52 47 60 65 64 64 66 66 67 68
57 56 56 56 56 56 55 56 57 58 59 60 60 47 56 58 66 68 68 67 63 61 60 57 50 45 41 39 31 35 35 40 40 49 50 48 49 54 60 61 61 63 65 65 66
56 56 56 56 56 55 51 51 51 49 50 50 53 54 59 66 68 65 68 65 62 57 45 49 43 38 43 45 45 44 41 40 45 51 46 46 48 52 56 57 58 60 62 63 64
56 55 55 55 55 54 47 52 53 53 46 56 56 57 62 64 56 62 67 57 53 45 47 43 38 47 51 49 46 43 40 39 45 50 48 45 47 52 55 54 57 58 60 61 62
55 54 55 55 54 51 49 55 57 54 43 53 58 56 58 61 55 57 64 57 50 44 44 40 46 52 50 45 45 42 40 39 40 45 46 43 40 44 51 53 56 58 59 60 60
54 54 54 54 52 48 53 57 54 56 38 49 54 59 60 59 54 66 66 60 49 46 45 43 49 49 45 44 45 36 47 45 43 38 30 43 27 40 48 50 52 55 55 55 56
54 54 54 54 46 51 56 52 52 54 28 53 55 64 58 55 57 60 65 58 50 48 46 45 43 44 42 45 48 42 47 43 42 36 31 35 28 36 45 44 47 51 53 53 54
54 54 54 49 45 51 53 52 54 38 30 49 55 53 51 55 56 60 58 60 57 49 46 46 50 48 47 49 48 49 43 40 34 31 23 33 32 31 38 44 47 52 53 53 53
53 53 50 53 51 51 51 51 36 31 50 45 46 50 46 47 51 52 49 44 42 35 36 43 43 47 50 42 45 41 32 24 22 22 24 35 31 37 44 51 49 50 50 52 52
52 52 51 53 50 51 50 43 30 43 43 51 49 48 42 47 47 48 45 40 45 42 34 34 33 43 49 43 38 37 34 23 18 21 25 36 28 35 47 51 50 51 50 51 51
51 48 49 52 54 51 46 30 35 42 49 47 47 40 40 46 44 44 40 41 44 43 33 29 34 48 50 48 45 35 30 35 27 25 20 26 34 44 50 48 48 48 50 49 48
44 47 50 54 53 49 41 38 41 50 51 49 39 43 36 39 39 38 38 46 45 47 44 38 30 43 46 46 45 40 42 27 21 15 12 25 28 32 41 46 46 47 48 49 48
45 47 54 52 52 44 33 37 45 53 52 47 42 40 40 38 39 37 41 45 48 45 43 38 33 35 40 37 34 34 30 31 27 23 18 22 28 38 40 43 43 45 47 46 46
42 42 53 52 41 33 34 42 49 50 51 48 46 44 41 41 38 38 39 44 50 47 38 38 31 27 33 42 44 39 34 32 22 25 26 25 29 47 47 46 43 45 49 47 47
38 40 51 52 31 32 38 43 47 48 47 45 43 44 42 38 34 40 42 47 48 45 39 39 31 25 29 34 38 34 37 35 34 31 27 25 30 47 44 44 49 47 47 48 48
39 36 40 40 38 36 35 38 41 50 47 46 44 43 38 35 38 36 38 45 46 45 52 46 33 31 26 31 31 31 38 39 36 28 29 30 34 41 44 45 46 46 47 47 49
38 34 35 31 34 33 34 38 39 40 44 42 40 40 36 30 33 33 38 39 44 47 42 38 29 32 36 38 38 36 36 38 35 36 30 35 34 40 43 44 44 46 48 51 52
36 34 34 32 34 33 36 36 38 39 38 38 35 38 36 31 34 34 36 33 34 39 36 39 30 32 31 37 37 35 39 39 39 38 38 38 36 48 50 45 45 47 49 49 51
38 40 39 36 32 30 33 37 38 37 40 42 39 36 34 37 40 40 40 40 40 36 34 33 31 32 28 35 34 29 36 39 39 41 39 32 41 44 44 45 45 47 49 49 52

GFSSW_sfc_temp_075.txt.gz
Temp
60 60 60 60 60 59 59 58 59 59 59 60 60 60 60 60 60 58 57 69 67 68 69 72 73 73 74 72 74 73 64 60 62 62 67 75 73 76 82 79 81 84 83 86 91
59 59 59 59 60 59 59 58 58 58 59 59 59 59 59 60 58 56 68 67 68 70 71 70 68 70 70 69 72 69 63 64 69 71 70 73 72 72 73 75 77 80 86 88 90
59 59 59 59 59 58 59 58 58 58 59 59 59 59 59 61 57 69 70 68 70 71 71 70 70 69 66 69 68 66 62 66 69 72 72 70 70 74 72 69 76 76 80 86 86
59 59 59 59 59 58 58 59 58 58 58 58 58 59 60 58 57 71 72 70 71 72 71 69 68 65 63 63 66 61 65 66 70 70 69 67 70 70 72 73 79 81 84 84 84
58 59 58 58 58 58 58 58 58 58 57 57 58 59 59 58 64 74 73 73 72 71 69 68 66 64 61 62 64 62 63 66 69 69 70 71 67 69 72 77 79 81 83 83 84
58 58 58 58 58 58 57 57 57 57 57 57 59 60 57 57 73 73 73 71 71 70 69 69 68 68 63 62 61 62 63 65 68 69 70 67 70 70 73 75 77 78 79 82 82
57 58 57 57 58 57 57 57 57 57 57 58 59 60 56 64 73 72 73 73 72 71 70 72 72 68 65 61 64 62 58 62 66 68 67 70 64 65 70 73 73 74 79 80 80
57 57 57 57 57 57 57 57 56 57 58 59 60 59 57 72 73 72 72 73 73 73 72 75 74 68 65 64 61 57 57 54 62 63 66 66 59 65 69 68 69 71 73 75 78
57 56 56 57 57 57 56 55 58 58 59 60 58 57 60 72 71 76 76 73 74 74 73 75 71 63 63 58 55 54 51 50 55 64 62 61 56 65 68 66 65 66 69 73 75
57 56 55 56 56 56 55 56 59 60 61 62 62 55 66 64 71 74 75 74 71 70 67 66 64 60 58 56 46 47 49 51 51 60 60 59 58 63 65 64 64 65 66 69 73
56 55 55 55 56 55 55 61 62 59 58 58 59 58 63 70 72 72 76 72 70 66 58 59 56 52 55 55 54 53 50 49 54 60 55 56 56 60 63 64 64 65 65 66 68
55 55 55 55 55 55 55 61 59 61 54 61 61 61 65 68 62 69 75 65 62 56 57 56 51 58 58 56 53 51 50 50 54 57 56 55 54 59 63 63 64 65 66 65 67
54 54 55 55 54 57 61 62 64 62 54 58 62 61 65 67 62 63 70 65 60 55 55 51 55 58 55 54 52 52 49 49 49 54 56 53 53 55 61 65 65 66 68 68 64
54 54 55 54 57 58 62 63 63 64 51 55 60 65 65 66 60 70 72 67 59 55 54 54 58 55 54 52 54 48 55 53 50 48 43 53 41 52 58 59 61 64 66 67 65
54 54 54 53 58 62 63 62 64 63 38 58 61 73 67 63 64 66 71 66 58 55 55 53 54 54 52 54 56 52 54 52 51 48 46 48 42 50 54 55 58 63 66 67 67
54 54 54 55 55 63 62 61 64 49 37 53 61 58 59 60 61 65 64 67 64 57 56 56 59 57 57 56 57 55 52 52 47 46 38 45 44 47 52 55 57 63 66 66 66
53 54 54 58 62 62 61 63 48 41 55 50 52 56 54 53 56 57 54 54 52 46 47 52 53 57 57 52 54 53 48 39 37 37 38 45 42 47 55 59 61 62 64 66 66
52 53 54 60 61 59 62 55 40 47 48 56 55 54 50 53 53 53 52 50 52 51 46 44 42 52 56 53 50 49 47 38 27 33 39 47 38 49 58 62 63 63 62 64 65
51 59 60 62 61 60 58 43 46 48 52 51 53 47 47 51 51 50 50 50 53 53 45 41 41 53 54 55 54 46 42 47 40 41 34 41 47 54 59 58 59 60 60 62 64
53 58 61 61 60 59 54 44 48 54 54 53 45 49 44 47 46 47 47 52 50 54 54 47 39 49 52 54 54 50 52 38 38 27 26 38 41 43 51 54 57 58 60 62 63
55 58 62 59 60 56 46 46 50 57 55 50 48 47 48 46 48 46 47 52 54 52 53 50 43 44 47 46 46 46 43 42 41 38 31 31 40 52 53 56 55 57 59 61 62
52 53 61 61 52 44 46 48 49 53 55 53 52 51 48 48 45 46 45 51 56 54 47 50 43 39 42 52 52 50 46 45 36 35 38 37 38 57 56 57 56 57 60 62 62
47 50 59 58 45 45 47 47 50 51 51 50 48 50 49 46 42 46 48 54 54 53 48 47 41 35 39 44 45 43 46 46 44 41 34 30 39 55 56 57 59 57 58 60 61
49 47 52 50 47 44 41 43 44 53 51 51 49 50 46 44 48 44 45 50 52 51 52 50 42 39 34 40 42 39 44 46 43 32 38 39 43 49 52 54 56 56 57 59 59
46 43 42 44 44 43 41 42 42 43 49 49 46 46 44 40 41 42 45 46 50 51 50 46 36 40 43 44 45 43 43 45 42 42 34 40 41 48 52 54 55 57 57 58 59
46 45 45 42 41 40 41 42 41 43 43 44 42 45 43 39 42 40 43 43 41 47 45 45 37 41 37 43 43 39 44 45 44 45 44 44 43 54 57 58 57 56 56 56 57
46 47 45 43 40 40 42 43 41 41 46 47 45 41 40 44 47 47 48 47 46 43 43 41 39 35 32 42 41 35 43 45 46 48 47 42 50 56 54 55 56 57 56 56 57

GFSSW_sfc_temp_078.txt.gz
Temp
60 60 60 59 59 60 60 60 59 59 59 60 60 60 60 61 61 73 71 74 75 69 70 82 82 83 84 83 85 86 72 69 72 72 75 82 78 86 87 85 89 91 90 93 97
60 60 60 59 59 59 59 59 59 59 59 59 60 60 60 60 68 72 73 68 68 70 79 79 77 80 79 80 81 77 72 73 81 82 79 80 79 80 77 79 82 88 93 95 96
59 59 59 59 59 59 59 59 59 59 59 59 59 59 60 64 69 76 70 69 69 73 81 80 80 79 76 80 79 77 71 80 81 83 83 80 81 79 76 75 81 83 86 90 92
59 59 59 59 59 59 58 58 59 59 59 59 59 59 60 70 64 79 71 70 71 81 80 78 77 74 73 72 79 70 77 78 80 82 78 77 82 76 77 79 82 86 86 88 90
58 59 59 58 58 58 58 58 58 59 58 58 58 59 67 70 74 81 72 74 81 80 79 77 74 73 70 73 73 71 75 76 78 79 78 80 77 77 77 82 82 84 86 86 89
58 58 58 58 58 58 58 58 58 58 58 58 59 59 68 66 82 83 82 80 81 81 78 79 75 76 72 71 70 74 74 74 77 77 78 75 77 79 81 81 79 82 84 86 88
57 57 57 57 57 58 58 58 57 57 58 59 59 67 67 73 83 84 82 83 83 81 77 80 80 75 73 69 74 72 66 72 74 75 74 77 70 73 82 79 78 78 81 83 84
57 57 57 57 57 57 58 57 57 57 58 59 60 68 68 82 86 82 84 82 84 84 81 82 82 76 72 74 70 66 67 62 74 70 74 72 64 75 77 76 75 74 73 79 81
57 57 56 56 56 57 57 56 59 59 59 60 65 67 68 76 77 83 85 79 81 81 81 80 79 72 71 66 64 65 59 61 65 71 70 69 66 76 77 75 73 74 72 74 79
56 56 56 56 56 56 55 56 59 61 65 70 71 63 74 72 77 80 84 81 76 75 73 73 72 67 68 65 55 59 58 60 59 68 68 66 66 73 76 75 74 75 74 73 75
56 55 55 55 56 55 61 71 68 66 67 67 67 66 70 77 80 79 82 78 76 72 64 68 63 60 64 64 63 61 59 58 63 67 64 63 65 69 74 74 74 75 74 75 73
55 55 55 55 55 55 66 72 67 69 63 71 70 70 74 75 69 75 81 70 68 63 66 63 58 66 65 64 61 60 58 58 63 66 63 62 62 68 72 73 75 75 75 75 74
54 55 55 55 55 62 74 69 76 73 64 67 71 70 73 75 68 70 77 73 66 63 63 59 63 66 63 61 58 60 57 57 56 62 64 62 59 65 70 72 74 76 75 75 74
54 55 55 54 59 76 72 74 77 74 60 61 66 71 73 74 66 77 79 73 67 62 63 62 67 62 61 59 61 54 63 59 57 56 51 62 48 61 67 68 68 71 72 74 74
54 55 55 52 73 74 72 77 78 71 46 65 67 80 75 69 70 71 79 73 63 64 62 60 61 60 58 60 64 58 62 60 58 55 54 56 52 59 64 62 65 69 72 73 75
54 54 55 65 73 74 77 75 72 56 43 59 67 65 65 68 68 71 70 74 73 65 66 63 71 65 63 65 64 65 60 59 59 56 46 55 54 57 62 63 66 70 72 73 73
53 54 58 72 72 77 76 72 55 48 61 57 59 63 63 62 64 64 63 62 58 53 54 61 62 66 66 60 62 60 55 46 46 47 45 54 50 56 63 66 68 68 70 73 74
52 52 60 74 77 74 73 63 46 56 56 62 61 62 57 62 62 61 59 57 64 60 55 51 49 61 65 61 58 58 55 46 35 42 49 55 46 58 65 68 69 70 70 70 72
50 71 73 76 74 74 66 50 56 56 59 57 60 56 57 59 57 58 58 58 63 63 50 49 50 63 61 64 62 57 49 58 48 50 45 50 56 63 66 65 66 67 67 69 70
68 72 75 73 73 69 62 52 57 61 60 59 51 56 52 56 54 55 55 59 57 63 64 57 46 60 61 61 62 57 62 46 46 32 34 47 50 53 58 60 64 65 67 69 70
67 67 70 74 71 66 54 59 58 64 62 56 54 54 55 54 56 54 54 59 61 60 62 60 52 52 56 53 52 54 51 51 50 47 39 40 50 61 59 62 62 65 67 68 70
66 63 72 74 62 63 58 58 51 60 64 60 58 56 54 56 54 53 53 58 62 61 54 59 52 46 50 61 62 57 54 54 40 43 47 47 47 64 63 64 64 65 67 70 70
62 66 73 69 54 57 61 58 58 57 58 57 54 57 57 53 48 54 54 61 61 59 55 56 49 41 46 53 53 50 54 54 52 50 42 39 47 64 66 65 66 65 67 68 69
62 59 66 67 61 54 53 54 52 59 57 58 56 57 54 51 56 50 53 56 58 59 53 54 49 43 39 46 50 45 50 53 50 38 43 46 50 57 61 61 64 65 66 67 68
61 56 54 55 58 52 52 53 52 50 57 57 54 53 52 47 51 50 54 56 57 56 55 51 42 47 49 50 50 48 49 51 48 49 44 49 50 56 60 62 64 66 66 66 66
56 56 61 56 53 50 49 53 50 52 50 52 50 52 53 47 49 47 51 51 50 55 52 54 42 46 44 50 49 44 48 51 52 52 52 53 52 63 65 66 65 65 65 65 66
57 58 54 52 53 49 52 51 51 51 53 54 52 50 48 51 54 55 55 54 53 50 49 47 41 39 36 48 46 40 48 51 53 56 55 49 57 63 62 62 63 64 65 65 65

GFSSW_sfc_temp_081.txt.gz
Temp
61 61 60 60 60 60 60 60 60 60 60 60 60 60 61 60 60 75 76 77 79 71 71 87 88 89 90 87 91 92 76 72 75 77 80 87 82 89 92 87 89 91 94 97 100
60 60 60 60 60 60 60 60 60 60 60 60 60 60 60 60 70 81 72 72 71 71 82 84 83 86 84 84 87 82 74 75 85 86 85 88 87 83 84 82 83 88 94 98 98
60 60 60 60 60 59 59 59 59 60 60 60 60 60 60 64 73 81 71 71 71 73 87 87 87 84 80 86 84 82 74 82 85 89 90 87 86 88 82 77 82 83 88 92 94
60 60 60 59 59 59 59 59 59 60 60 60 59 59 60 70 67 83 73 71 71 81 87 85 83 79 77 77 85 77 82 83 85 87 87 83 87 83 84 82 88 86 88 92 90
58 59 59 59 59 59 59 59 59 59 59 59 59 59 67 73 79 83 72 74 83 87 84 82 80 80 76 80 82 78 80 83 86 84 84 86 81 82 84 88 90 89 86 88 89
58 58 58 58 58 58 58 58 58 58 59 59 59 59 68 69 89 89 87 86 87 86 84 84 81 82 77 78 77 81 79 80 83 82 83 79 80 82 84 89 88 87 84 85 88
57 57 57 57 57 58 58 58 57 58 58 59 60 69 73 76 90 91 89 87 88 86 82 85 85 79 80 75 82 78 71 76 78 79 78 82 74 76 85 88 86 85 84 83 86
57 57 57 57 57 57 58 57 57 58 59 59 60 73 72 89 93 88 90 87 89 89 85 87 86 81 78 81 76 71 73 66 78 80 80 78 66 79 87 85 84 83 85 82 81
57 56 56 57 57 57 57 56 59 60 60 61 67 72 73 78 81 89 90 84 85 86 86 86 83 77 78 69 67 71 63 67 72 79 75 75 69 79 86 81 79 81 83 82 82
57 56 56 56 57 56 56 56 60 60 65 74 78 69 78 76 83 85 89 86 80 80 78 77 76 71 72 69 58 64 66 68 67 75 74 70 70 77 82 80 78 80 81 82 81
56 56 56 56 56 56 61 74 69 68 74 73 74 73 75 82 84 81 87 82 80 76 68 75 67 64 69 72 71 67 64 63 69 75 70 68 68 73 78 80 79 79 80 81 81
55 56 56 56 56 56 64 76 73 76 67 78 78 77 79 81 73 79 86 74 73 66 73 68 62 71 74 70 66 65 62 62 68 73 69 67 66 72 75 76 78 79 80 81 83
55 55 56 56 56 61 79 75 84 81 68 73 77 77 78 80 73 75 81 77 71 67 69 64 69 71 69 66 63 64 61 62 62 67 69 65 62 67 75 78 79 81 82 82 82
54 55 55 55 58 84 78 82 86 81 62 67 71 76 79 79 71 83 83 77 72 66 69 68 73 67 65 63 66 58 69 66 62 59 53 67 52 64 71 72 75 77 78 79 80
54 55 55 53 76 80 79 85 85 77 48 70 73 85 81 74 74 75 84 77 67 68 68 63 67 65 62 64 68 62 68 65 62 59 58 59 55 62 71 68 72 74 76 78 80
54 55 55 68 79 82 85 83 78 58 47 65 73 70 71 73 73 76 75 79 77 69 70 68 75 71 68 70 69 69 64 63 63 60 49 57 57 59 66 68 71 74 75 77 79
54 54 58 78 77 86 84 76 58 51 68 64 65 71 69 68 70 71 68 67 63 57 58 65 67 72 73 65 68 66 58 48 46 45 46 63 57 61 68 71 72 73 75 76 79
52 51 63 80 85 83 78 66 49 64 64 70 67 69 64 69 69 68 65 63 68 66 59 55 53 67 72 66 61 61 57 47 35 41 48 57 50 60 70 74 75 74 75 76 77
50 72 76 81 82 80 69 54 59 64 65 64 66 61 63 68 64 64 63 62 67 69 56 53 55 70 71 69 67 60 55 62 50 52 44 52 60 68 70 69 70 72 73 73 75
67 76 79 81 81 74 64 55 64 69 68 66 57 62 57 63 62 61 61 66 62 68 70 61 51 65 67 69 67 62 66 49 47 36 36 48 50 52 59 64 69 69 70 72 75
68 71 75 82 77 68 56 62 67 71 69 62 60 58 60 59 61 60 60 66 67 66 68 63 57 56 63 59 57 58 55 56 55 49 38 37 44 62 58 66 66 68 71 73 74
70 66 78 79 63 67 63 66 55 66 69 66 65 61 58 59 57 57 58 63 69 66 58 64 55 48 54 65 66 62 57 52 39 43 49 48 50 64 61 68 68 68 71 74 76
66 71 78 75 57 62 67 66 67 64 63 62 61 63 63 57 51 57 59 68 68 63 59 60 51 42 48 57 61 56 58 58 56 54 45 42 46 65 66 68 71 70 72 73 74
64 61 71 72 70 60 58 58 60 67 63 64 62 63 59 56 59 55 57 64 66 63 56 57 52 47 41 48 42 38 48 53 53 41 46 49 51 60 63 66 68 69 71 72 73
68 61 59 58 62 60 59 59 57 57 65 64 58 59 56 51 53 54 60 61 64 62 59 56 44 46 49 52 53 52 52 54 51 53 45 50 52 56 62 66 68 70 71 71 72
58 57 60 56 61 58 56 57 56 59 59 56 56 58 58 52 53 51 55 56 55 60 57 54 40 46 45 51 52 50 53 54 55 55 54 53 51 63 69 71 70 70 69 68 71
64 64 56 51 55 55 57 57 56 58 60 61 58 55 53 56 60 60 59 58 57 53 51 51 48 43 38 49 49 42 51 53 56 59 57 50 57 65 64 67 66 67 69 69 70

GFSSW_sfc_temp_084.txt.gz
Temp
61 61 60 60 60 60 60 61 61 61 61 61 61 61 61 61 60 71 70 77 80 72 71 83 88 87 88 84 88 89 72 68 72 74 78 88 85 90 93 86 88 91 91 94 100
60 60 60 60 60 60 60 61 60 60 61 60 61 60 60 60 65 73 75 73 74 73 81 82 82 85 81 81 83 79 71 72 81 83 82 87 87 88 85 83 84 86 92 96 98
60 60 60 60 60 59 59 60 60 60 60 60 60 60 60 62 69 78 72 73 72 74 82 87 86 85 79 82 81 79 72 79 82 86 87 86 86 91 85 79 83 82 87 92 94
59 59 59 59 59 59 59 59 59 60 60 60 60 60 60 65 64 80 74 73 72 80 83 85 83 78 75 74 83 75 81 82 83 86 85 82 87 85 86 84 89 88 88 88 87
58 58 59 58 59 58 58 59 59 59 59 59 60 60 66 70 75 82 74 74 81 83 82 83 80 79 74 78 81 77 80 83 85 85 84 86 82 82 84 90 91 90 88 86 84
58 58 58 58 58 58 58 58 58 58 59 59 60 59 66 65 89 87 87 86 85 87 85 84 82 84 76 76 76 81 81 81 83 82 83 80 79 81 84 89 88 87 87 86 84
57 57 57 58 57 58 58 58 57 58 58 59 60 66 69 73 92 92 89 87 90 87 82 88 86 79 80 75 82 79 72 76 77 79 77 82 73 75 84 86 85 86 87 86 85
57 57 57 57 57 57 58 58 57 58 59 60 61 68 67 91 94 90 90 87 90 90 86 87 87 80 77 80 76 72 72 63 75 78 79 77 64 77 85 83 81 84 86 86 85
57 56 57 57 57 57 57 56 58 61 61 61 63 67 71 81 82 89 90 84 87 87 87 88 83 75 76 69 65 68 59 64 69 80 79 76 68 78 84 82 80 83 84 85 85
56 56 56 56 57 57 56 56 62 59 63 72 76 69 76 77 84 87 90 87 81 82 79 77 75 68 70 66 54 61 64 67 67 75 77 72 70 76 80 80 79 80 81 82 83
56 56 56 56 57 56 58 70 65 65 70 70 73 73 78 84 87 82 87 83 81 76 66 74 66 62 67 71 71 69 65 62 67 74 71 69 70 73 77 77 77 79 78 79 80
56 56 56 56 56 56 60 71 76 77 66 80 80 80 83 84 74 79 87 74 72 65 71 68 62 70 74 72 69 66 62 61 67 72 70 68 67 72 74 75 76 77 78 80 81
55 55 56 56 56 59 73 78 86 85 67 75 80 78 79 81 73 76 82 76 70 67 68 63 68 75 71 67 65 64 60 60 61 67 70 66 62 65 72 75 77 79 80 81 80
55 55 55 55 58 82 79 85 88 84 59 68 72 77 81 80 71 84 85 77 71 65 68 67 74 71 68 64 66 58 68 67 63 60 52 65 49 61 68 70 75 77 78 79 81
54 55 55 54 69 77 81 88 86 77 45 69 74 87 83 74 76 76 86 78 66 67 68 64 67 67 64 65 68 62 69 65 63 58 57 57 52 59 67 65 70 75 77 78 80
54 55 54 71 70 82 88 86 79 57 47 67 75 71 71 74 74 78 76 80 77 68 69 67 75 71 69 72 71 71 65 63 61 58 47 54 54 55 62 66 71 76 76 77 78
54 54 54 75 73 88 85 77 56 50 72 67 67 73 71 69 71 72 69 67 62 56 56 65 67 72 73 65 70 67 58 46 44 45 44 58 52 54 63 69 72 72 74 76 78
53 52 62 76 83 84 77 64 47 63 67 74 70 70 65 70 70 70 67 63 70 66 59 54 52 67 73 67 61 61 59 47 34 36 43 57 44 52 66 70 76 76 76 77 76
51 73 72 78 82 80 67 52 56 64 70 66 66 61 63 69 68 67 65 63 66 67 55 52 54 70 72 73 69 61 54 62 50 48 40 47 56 66 68 68 71 73 74 73 74
60 71 77 84 81 72 60 52 61 71 72 68 57 61 56 61 61 62 62 67 65 70 68 59 49 63 68 71 70 62 66 50 51 34 33 46 49 52 58 61 68 68 70 72 74
63 68 76 83 77 66 53 59 66 74 72 63 60 58 59 58 59 58 59 65 68 66 69 63 56 55 62 59 57 58 53 55 54 49 38 37 45 56 58 63 64 67 71 72 73
65 62 78 80 61 64 60 67 62 69 72 67 65 62 59 60 57 56 56 60 69 67 60 63 55 48 51 63 66 62 55 52 41 39 42 42 43 60 63 63 62 66 71 73 74
58 66 78 75 55 59 64 65 66 65 65 63 61 63 63 58 52 57 58 66 67 65 60 61 51 41 45 54 60 46 48 48 46 44 41 38 44 64 63 55 55 60 63 66 74
60 59 68 69 67 59 56 56 57 66 64 66 63 63 59 56 59 54 56 63 67 67 58 59 51 46 39 46 51 43 48 49 43 34 40 44 50 58 60 56 59 60 59 59 71
64 61 61 54 58 55 57 56 55 55 64 64 59 59 56 51 53 52 57 59 63 63 59 54 42 47 49 52 52 52 50 52 42 43 38 47 50 57 61 63 64 60 58 67 72
56 55 59 55 58 56 53 51 51 57 57 53 53 57 56 51 52 49 54 54 52 58 56 49 37 45 44 50 50 48 52 53 54 54 51 54 53 65 67 69 68 68 69 69 69
58 60 56 51 54 53 51 49 48 53 57 59 56 54 52 55 59 58 59 58 56 52 50 50 47 43 38 48 47 37 46 50 54 56 56 48 51 57 53 59 60 60 63 62 68

GFSSW_sfc_temp_087.txt.gz
Temp
61 60 61 60 60 60 60 61 61 60 61 61 61 61 61 61 59 61 56 70 69 73 71 75 77 78 77 71 73 73 56 55 59 64 68 77 74 78 84 81 83 86 83 87 90
60 60 60 60 60 60 60 60 60 60 60 60 60 60 60 60 55 59 72 73 72 72 74 73 71 75 66 67 68 63 55 58 68 72 70 74 75 78 77 77 76 81 86 89 90
59 59 60 60 60 59 59 59 59 60 60 60 60 60 60 59 56 68 74 73 72 73 75 75 74 71 62 66 66 65 60 67 71 75 76 74 76 79 76 72 76 77 81 82 83
59 59 59 59 59 59 59 59 59 60 60 60 60 60 60 56 53 71 73 73 73 74 75 73 71 61 58 59 68 60 70 72 74 78 76 73 76 75 75 74 82 81 82 82 79
58 58 58 59 58 58 58 58 58 59 59 59 59 60 57 56 61 75 74 73 75 74 72 70 67 64 58 63 66 65 68 74 76 74 73 76 73 73 75 79 83 83 83 79 77
57 57 58 58 58 58 58 58 57 58 58 59 59 60 55 54 79 78 76 76 77 74 74 74 69 71 63 63 60 67 68 69 70 68 69 68 71 72 77 79 80 80 77 78 77
57 57 57 57 57 57 58 57 57 57 58 59 60 62 58 59 82 79 79 76 79 81 76 78 77 70 67 61 68 68 60 65 67 68 66 71 66 68 75 78 76 76 77 77 77
57 57 57 57 57 57 58 57 57 58 59 60 60 59 53 79 78 77 79 80 83 81 80 79 78 68 62 66 66 59 57 48 62 69 72 66 58 71 75 74 73 76 78 78 74
57 56 57 57 57 57 57 57 58 60 62 61 55 53 58 77 78 83 81 79 82 82 79 86 71 62 64 55 49 53 47 51 59 70 69 66 61 71 75 73 70 71 74 76 73
57 56 56 56 57 57 56 56 58 58 60 65 68 56 66 71 80 82 83 83 78 75 73 70 62 55 53 48 40 48 50 56 55 63 65 61 62 67 72 71 69 69 70 71 72
56 56 55 56 56 56 55 59 53 53 61 60 65 66 74 83 84 79 82 79 75 68 56 63 52 48 54 59 61 60 57 54 60 66 61 59 59 63 67 65 65 66 66 68 70
56 56 56 56 56 56 52 57 68 68 57 71 69 71 79 82 72 76 82 68 65 56 61 56 50 61 67 66 62 59 55 52 59 65 62 58 57 62 65 64 64 66 67 66 67
55 55 55 55 55 52 58 68 77 73 55 66 74 73 74 76 70 71 76 70 63 58 58 53 60 70 67 62 60 56 54 53 53 61 62 57 54 58 64 66 69 71 71 72 67
55 55 55 54 55 65 67 76 76 72 46 61 69 74 76 74 67 79 80 71 64 58 60 57 66 66 62 60 61 50 61 62 59 51 40 55 40 53 58 62 67 70 71 72 73
55 55 55 54 54 61 72 75 72 65 34 67 70 82 77 69 71 72 81 72 61 61 60 56 59 59 58 61 64 56 63 59 57 49 45 48 42 51 56 56 62 67 70 67 71
55 55 54 60 56 65 73 74 67 45 37 63 70 68 65 69 70 73 72 74 71 61 61 59 68 64 62 67 66 67 58 55 51 44 37 47 45 47 53 56 61 65 70 69 66
55 55 52 62 59 73 75 64 44 39 68 62 64 67 65 64 66 67 64 59 52 46 48 57 59 66 69 59 64 60 49 37 33 32 35 50 47 49 54 60 60 62 65 65 66
54 53 54 63 68 71 65 52 37 56 61 70 68 65 59 64 64 66 62 57 62 60 52 48 45 61 69 62 57 56 53 42 30 27 36 50 39 46 60 61 65 68 70 68 65
52 59 59 65 69 67 55 39 46 57 64 63 64 57 57 62 61 61 58 57 60 60 48 45 48 64 66 66 63 55 47 54 43 44 34 37 46 55 61 60 65 65 67 62 65
50 57 63 72 70 62 49 46 53 63 65 65 53 57 50 55 55 55 55 63 61 66 62 52 43 59 63 64 62 56 60 41 41 29 25 35 39 41 50 53 59 59 62 66 64
51 55 69 74 68 55 43 50 59 69 67 60 56 54 54 52 54 53 54 61 64 62 62 57 48 49 57 52 47 48 45 43 40 34 29 28 35 49 48 49 51 54 57 57 61
51 49 69 70 52 52 49 59 58 62 66 62 61 57 54 53 50 51 52 57 66 63 53 58 50 41 45 55 59 53 43 40 33 31 34 33 33 56 53 51 52 56 59 59 62
48 53 66 64 44 47 56 58 61 59 58 57 57 60 58 51 45 52 54 63 65 61 54 54 42 32 36 44 50 43 44 44 41 36 32 30 34 55 53 57 59 55 56 60 61
50 48 57 57 57 49 48 51 52 61 56 59 57 57 53 49 53 49 52 59 63 62 60 55 44 39 30 37 43 41 45 48 39 32 33 35 37 46 53 53 55 53 57 57 62
52 49 51 45 46 48 51 51 50 48 55 56 52 52 50 43 47 46 52 53 57 59 53 46 36 39 42 45 45 43 45 46 43 42 34 40 43 48 51 52 54 55 57 60 62
46 45 49 46 51 49 48 48 46 48 47 44 46 49 50 44 47 43 47 46 45 50 46 44 34 38 37 45 47 44 47 47 47 46 45 45 44 48 51 52 52 56 57 60 60
50 51 44 43 44 43 45 47 46 47 46 50 47 46 46 50 52 52 51 50 48 43 41 39 35 32 30 42 42 33 43 46 45 42 43 35 39 48 47 48 49 52 55 57 57

GFSSW_sfc_temp_090.txt.gz
Temp
60 60 60 60 60 60 60 60 60 60 60 60 60 60 60 60 59 55 52 65 64 70 72 73 72 73 70 64 67 66 50 46 52 57 62 72 67 74 80 77 82 82 82 86 86
59 60 59 60 60 59 59 59 60 60 60 60 60 60 60 59 52 52 66 70 71 72 71 68 66 69 61 60 63 58 47 53 61 65 63 70 67 71 76 73 74 77 81 85 86
59 59 59 59 59 59 59 59 59 59 60 60 60 60 59 58 51 62 73 72 72 72 70 70 69 65 58 57 59 56 52 60 66 68 70 70 70 73 72 68 73 75 80 80 80
58 59 59 59 59 59 59 58 58 58 59 59 59 59 59 53 51 70 73 73 72 71 70 68 63 55 55 55 62 54 63 66 68 71 70 69 74 70 71 72 77 79 80 78 77
58 58 58 58 58 58 58 58 58 58 58 58 59 59 54 50 57 74 74 73 71 71 69 65 59 56 52 57 59 55 62 66 69 70 70 72 69 69 68 75 77 79 78 77 73
57 57 57 57 57 57 57 57 57 57 58 58 59 59 51 48 73 75 72 70 72 67 69 64 62 66 58 56 54 61 61 63 64 64 65 64 67 67 72 75 76 77 77 74 76
58 57 57 57 57 57 57 57 57 57 58 59 59 60 52 56 75 72 72 69 73 74 69 72 70 67 60 59 59 62 56 59 60 62 61 64 62 64 71 73 72 73 74 74 73
57 57 57 57 57 57 57 57 57 58 59 60 60 55 50 70 68 70 71 72 75 76 75 76 71 62 57 59 61 55 50 45 57 64 66 63 55 66 71 69 70 71 72 73 73
57 56 57 57 57 57 57 56 57 59 61 61 53 51 52 73 70 74 75 73 76 77 76 82 68 60 60 50 45 46 41 47 53 62 63 60 56 66 70 70 68 70 71 70 70
56 56 55 56 56 56 55 56 57 57 60 63 64 52 61 68 76 78 77 78 73 71 68 64 57 52 48 45 37 43 44 50 49 58 58 54 55 61 65 66 68 66 65 67 69
57 56 56 56 56 55 52 53 54 52 55 56 60 60 69 78 80 75 78 74 71 65 52 58 49 45 51 52 56 54 51 50 54 61 55 53 54 59 62 62 62 63 63 64 65
56 56 56 55 55 55 49 52 61 62 54 62 66 65 73 75 67 73 78 65 62 53 56 51 45 57 60 60 56 54 50 49 54 60 57 55 54 60 60 61 62 64 64 63 63
55 55 55 55 55 50 53 61 70 65 53 62 67 66 68 71 65 68 72 66 59 53 52 48 54 64 61 58 56 54 50 49 50 56 55 52 47 52 58 61 64 64 64 65 65
55 55 55 54 55 56 59 69 68 64 43 55 63 68 70 70 64 76 75 68 59 55 55 52 60 60 57 55 56 47 58 58 55 47 39 50 39 47 54 57 60 64 63 63 64
55 56 55 54 50 55 67 67 66 62 33 63 65 77 71 65 67 68 76 66 58 58 56 53 55 55 53 56 60 53 60 56 54 46 41 44 39 43 52 53 58 61 62 64 67
55 56 55 53 48 58 64 66 62 44 36 60 67 64 60 65 66 69 68 69 67 57 57 57 62 59 58 62 61 62 54 50 46 41 34 41 41 45 48 53 55 60 61 63 66
55 55 52 58 56 61 62 59 43 35 62 59 61 63 60 58 62 63 61 57 53 43 45 55 56 62 63 54 58 54 42 37 32 32 34 45 41 46 52 57 59 59 61 62 60
54 53 52 56 55 61 59 50 35 52 56 65 63 62 56 59 58 59 56 51 56 53 45 43 43 56 64 57 50 49 48 37 28 27 36 45 35 46 56 59 61 62 61 61 64
53 55 55 59 59 60 53 39 43 53 61 58 60 53 52 58 56 55 52 52 55 55 44 41 44 60 62 63 59 49 44 53 43 39 28 33 41 50 57 59 59 60 61 59 64
49 51 58 67 65 59 48 44 50 61 62 60 49 55 49 53 52 51 50 59 57 59 54 46 38 55 59 61 61 55 56 41 36 28 26 32 35 38 49 52 54 53 52 53 55
48 50 65 69 65 54 42 47 57 65 61 56 51 50 51 50 51 50 52 57 61 57 58 48 42 45 52 48 46 47 44 43 40 33 29 26 30 49 47 50 51 50 52 49 52
45 46 64 65 50 48 46 56 55 59 61 57 56 53 50 51 49 49 50 54 63 59 51 51 43 37 43 53 57 52 42 38 29 28 33 31 32 52 51 52 52 52 55 54 62
45 48 61 62 41 41 50 54 57 56 55 54 51 54 53 48 42 48 51 59 61 57 51 48 37 30 35 43 47 42 44 40 36 34 27 22 31 53 53 53 55 53 57 57 58
44 43 52 53 52 43 43 47 47 57 55 54 51 53 49 45 48 45 48 56 59 57 58 53 42 37 32 37 40 38 42 44 39 30 31 33 37 46 50 50 51 52 55 56 55
46 43 46 40 44 44 45 45 44 44 53 52 45 46 43 38 41 43 48 49 53 56 52 46 35 40 42 43 43 41 41 42 38 40 32 39 38 45 50 48 50 53 53 54 56
44 42 43 40 44 43 43 41 42 44 45 44 41 43 42 39 43 39 45 45 43 50 44 43 32 37 37 42 42 39 43 43 44 44 38 39 39 43 47 48 48 50 53 55 57
47 49 44 42 41 37 38 44 42 44 46 48 45 41 38 43 50 51 50 50 48 45 41 39 35 31 28 39 38 30 38 42 43 42 39 34 39 45 45 46 48 49 51 53 54

GFSSW_sfc_temp_093.txt.gz
Temp
59 60 60 60 60 60 59 59 59 59 59 59 60 60 60 60 59 53 51 65 63 69 71 70 69 68 67 61 65 63 47 45 51 54 58 63 64 70 76 72 75 78 78 83 82
59 59 59 59 59 59 59 59 59 59 59 59 59 60 59 59 50 49 65 70 69 71 67 65 62 65 58 58 60 56 46 50 58 59 60 63 63 67 70 70 71 72 80 82 82
58 59 58 58 59 59 58 59 58 59 59 59 59 59 59 57 49 63 73 70 71 71 67 66 65 63 54 55 56 54 51 57 61 64 65 64 64 68 68 67 71 72 74 80 74
58 58 58 58 58 58 58 58 58 59 59 59 59 59 59 51 48 66 73 71 72 69 66 65 61 52 49 53 57 50 60 61 64 67 63 65 69 65 68 69 76 75 75 76 75
58 58 58 58 58 57 57 57 58 58 58 58 58 59 52 48 55 70 73 72 68 68 65 62 56 54 49 53 55 52 57 62 65 64 62 67 65 65 67 73 74 77 75 71 71
57 58 57 57 57 57 57 57 57 57 58 58 58 59 49 47 69 72 70 68 68 64 66 63 60 61 54 53 52 56 57 59 61 62 60 60 64 63 65 71 72 73 74 72 73
57 57 57 57 57 57 57 57 57 57 58 59 59 58 50 56 69 69 69 63 68 70 67 67 66 61 58 55 56 57 52 57 56 58 59 62 59 62 67 69 70 70 72 73 72
57 56 56 57 57 57 57 57 57 57 59 59 60 53 49 66 66 65 65 68 72 70 69 71 68 60 56 56 57 51 47 41 54 58 63 60 50 64 68 66 65 67 69 71 71
57 56 56 56 57 57 56 56 57 58 59 61 51 49 51 69 67 71 70 69 71 72 70 78 65 57 57 47 43 44 39 42 51 59 59 58 51 61 65 63 63 64 65 68 68
57 56 56 56 56 56 55 56 57 57 59 61 62 50 58 65 71 72 70 72 68 68 65 63 54 50 45 43 36 40 41 46 47 55 55 53 52 58 62 61 62 61 61 62 64
57 56 56 56 56 55 52 52 53 50 53 56 58 58 65 74 75 71 73 69 67 61 52 54 47 43 49 50 52 50 47 46 52 58 53 52 52 55 59 58 59 60 59 61 62
56 56 56 56 55 55 48 53 59 57 50 60 62 63 70 71 63 68 74 63 59 52 53 48 43 53 56 55 52 49 46 46 52 57 52 52 51 55 56 57 58 60 60 60 60
56 56 56 56 55 50 53 60 65 60 49 58 62 62 63 66 61 63 69 63 56 51 50 46 52 59 56 53 51 49 45 46 48 53 53 49 46 51 56 57 60 61 61 61 61
55 55 56 55 53 52 56 65 63 60 41 52 59 63 64 65 61 72 72 65 56 52 52 49 58 56 53 51 53 44 54 54 52 45 39 49 40 45 52 54 56 59 59 60 61
55 56 55 56 50 54 64 59 61 60 33 60 60 72 67 62 64 65 71 64 55 55 53 50 52 52 50 53 56 50 56 52 51 43 37 42 35 42 50 50 55 56 58 59 60
55 56 55 51 47 56 61 60 60 43 34 57 65 61 58 61 62 65 65 66 65 54 53 55 58 57 56 60 58 58 52 47 41 38 32 41 40 42 45 51 53 57 59 61 60
55 55 53 57 56 59 60 59 42 34 58 55 57 61 59 58 59 59 58 53 50 41 42 53 54 57 60 52 55 50 39 30 29 29 34 44 38 43 50 55 56 56 60 59 58
54 53 53 56 55 61 60 51 37 50 52 61 59 59 55 58 58 58 53 48 54 50 41 40 41 54 60 54 49 48 45 34 26 25 34 42 33 41 53 57 58 58 57 59 58
52 51 52 57 57 59 55 40 44 52 56 55 57 51 51 56 55 53 50 50 53 52 42 39 42 58 60 60 57 49 43 49 39 34 30 33 39 48 52 53 54 54 55 55 58
48 50 56 60 62 59 49 44 50 58 59 58 46 51 44 49 50 50 49 56 55 58 52 45 36 51 55 58 59 54 55 37 35 28 25 30 32 34 43 45 49 50 50 52 54
48 52 62 64 61 53 42 47 54 61 59 54 50 47 47 45 48 48 50 56 59 57 55 48 40 42 49 47 46 47 42 42 40 35 28 27 30 43 44 44 45 48 52 52 52
45 48 64 64 50 45 45 52 54 56 59 56 55 51 47 47 45 47 48 51 58 56 49 50 43 35 42 51 55 52 45 43 32 30 33 31 29 49 46 48 51 52 56 57 58
39 43 58 60 41 41 47 51 54 52 52 53 50 52 50 45 41 45 48 56 57 53 48 48 39 29 35 42 47 43 45 42 38 34 27 26 29 49 48 50 49 48 51 56 58
41 38 45 48 47 43 40 44 45 54 52 52 49 50 44 42 47 39 42 52 55 54 55 50 37 34 30 36 41 38 42 44 39 30 30 31 35 42 46 47 49 49 52 54 55
41 37 40 34 39 39 43 42 41 43 50 51 45 45 39 34 38 39 46 46 50 53 49 43 32 36 41 44 43 41 40 41 36 36 30 36 36 40 41 42 44 47 50 53 54
37 36 39 37 40 38 39 38 40 44 42 41 41 43 42 37 37 34 39 41 42 48 44 43 32 38 37 43 42 38 41 41 41 41 38 37 34 40 44 45 47 46 49 50 52
40 41 41 41 42 39 35 42 41 44 44 46 45 41 39 42 47 45 47 47 46 44 41 39 35 31 30 38 37 30 36 39 40 39 37 31 36 45 44 44 45 45 49 48 49

GFSSW_sfc_temp_096.txt.gz
Temp
59 59 59 59 59 59 59 59 59 59 59 59 59 59 60 60 59 50 49 64 61 68 70 67 66 65 65 59 61 59 48 45 51 52 54 62 59 66 71 69 71 74 75 78 78
59 59 59 59 58 59 59 59 59 58 59 59 59 59 59 59 50 47 63 69 70 70 65 63 60 62 56 55 57 54 45 50 56 57 56 60 59 62 66 67 66 71 76 78 76
58 58 58 58 58 58 58 58 58 59 59 59 59 59 59 57 47 61 72 70 70 70 67 65 63 61 53 53 53 50 49 54 58 61 62 61 62 65 63 61 66 68 72 75 76
59 58 58 58 58 58 57 57 58 58 58 58 58 58 59 50 47 64 73 70 71 67 65 63 58 52 48 49 54 48 57 58 59 62 59 60 64 62 65 68 72 73 72 73 72
58 58 58 58 58 57 57 57 57 58 58 58 58 58 51 46 55 67 72 72 67 66 64 61 56 53 48 51 53 49 54 58 62 60 59 61 61 61 61 69 71 71 70 72 70
57 57 57 57 58 57 57 57 57 57 57 58 58 58 47 45 65 69 67 65 66 63 64 61 59 59 53 51 50 56 54 55 58 59 58 58 60 61 65 70 69 69 69 67 70
57 57 57 57 57 57 57 57 56 57 57 58 58 57 47 54 66 65 67 62 65 67 64 64 63 59 57 51 54 53 49 53 56 57 58 59 58 58 64 67 67 68 68 70 69
57 57 56 56 57 57 57 57 57 57 58 59 60 51 48 63 63 62 63 65 67 67 65 66 64 57 53 54 54 49 45 40 52 56 60 58 49 62 62 61 62 64 65 66 67
57 56 56 56 57 57 56 56 57 58 59 61 50 46 50 67 64 68 67 66 69 68 66 75 62 54 54 46 42 42 38 39 48 54 55 53 48 59 63 61 60 60 61 63 63
57 56 56 56 56 56 55 56 58 58 58 60 60 48 56 61 68 69 67 69 65 64 63 59 52 47 43 42 34 37 38 43 44 52 51 49 50 56 60 58 59 59 59 59 60
57 56 56 56 56 55 51 50 51 49 50 53 56 56 62 70 72 67 68 66 64 59 49 51 46 42 47 48 49 47 43 43 48 56 50 49 49 54 57 56 56 58 58 59 60
56 56 56 56 56 55 47 52 57 57 47 58 58 59 66 68 61 65 71 61 56 49 50 47 42 51 53 52 49 47 43 42 48 53 49 48 48 53 54 55 57 58 59 60 59
56 56 56 56 55 49 51 58 62 57 46 55 59 58 60 64 58 60 67 60 54 49 48 44 50 56 53 50 47 45 42 43 45 50 49 46 43 48 55 54 58 58 58 59 59
56 56 56 55 51 52 55 63 59 58 41 50 56 60 63 63 57 68 69 63 53 51 50 47 54 53 49 48 49 42 50 52 49 42 37 47 37 45 49 52 54 57 56 57 59
55 56 55 55 49 54 61 59 59 59 32 57 57 68 63 60 61 61 68 62 53 52 51 49 49 47 47 51 52 47 52 50 48 41 35 40 34 39 45 47 52 55 57 58 59
55 56 54 50 48 53 58 60 61 45 35 55 60 58 56 59 61 62 62 64 61 53 50 52 55 54 53 57 56 56 49 43 38 36 29 39 37 38 43 49 52 56 57 58 59
55 54 52 56 55 58 58 59 44 37 56 52 55 59 57 54 57 57 55 52 48 41 41 50 52 55 57 50 56 49 39 29 28 29 33 42 36 40 48 54 53 53 54 55 57
53 52 51 55 56 58 59 52 37 49 49 59 58 58 54 57 56 58 54 49 52 48 41 38 40 53 59 53 47 45 42 31 25 24 33 40 32 40 50 52 52 53 52 54 53
51 47 50 55 56 56 55 39 42 49 55 53 56 49 49 54 54 53 51 51 54 50 41 37 40 54 57 59 56 49 43 49 38 32 27 34 38 46 49 49 51 51 52 51 52
42 45 55 60 60 58 49 43 49 56 57 56 46 50 43 47 49 48 49 56 54 56 51 45 35 48 54 55 56 52 54 39 37 26 23 29 31 35 43 45 47 48 49 50 51
44 49 58 61 60 53 42 46 53 58 58 52 48 45 46 43 47 45 46 54 55 54 53 48 40 40 50 45 45 46 40 41 39 36 27 29 30 41 42 43 45 47 50 48 49
41 43 58 58 48 44 42 49 52 54 57 54 54 50 47 47 45 45 46 51 56 54 46 47 41 33 38 51 55 50 44 44 32 30 34 32 30 45 44 47 46 47 51 52 51
37 39 53 56 39 38 44 48 52 49 50 50 49 50 48 45 39 43 46 54 54 50 45 44 36 28 33 40 47 41 43 41 38 34 29 26 30 47 48 47 49 45 48 49 51
39 36 41 43 41 38 36 40 43 52 49 50 48 48 43 40 45 37 41 49 52 50 52 45 36 33 30 35 39 35 39 40 36 30 31 32 36 42 42 41 42 44 46 48 50
38 34 37 31 35 35 35 39 39 40 46 47 44 43 40 35 37 37 42 44 46 49 48 40 33 35 37 40 42 41 40 42 38 38 29 36 36 42 40 40 42 45 46 48 50
37 36 37 35 44 42 36 34 38 42 43 41 39 43 41 36 38 35 39 39 36 43 40 39 31 37 34 41 40 36 40 41 40 40 39 38 37 40 42 43 43 44 46 47 48
39 39 38 38 40 40 39 41 40 42 42 45 43 40 37 40 44 44 43 43 41 38 36 35 34 32 29 38 35 30 37 39 39 39 37 31 36 39 38 41 41 42 44 45 46

GFSSW_sfc_temp_099.txt.gz
Temp
59 59 59 59 59 59 59 59 59 59 59 59 59 59 60 60 59 58 60 72 68 69 71 75 76 75 76 73 74 71 64 59 61 60 67 73 72 77 81 77 80 84 84 88 89
59 58 59 59 58 59 59 59 59 58 59 59 59 59 59 59 56 55 69 68 69 70 75 74 71 73 71 70 71 69 62 62 67 69 68 70 71 72 74 76 76 80 87 89 87
59 59 58 58 59 58 58 58 58 59 59 59 59 58 59 59 55 70 72 69 70 72 76 75 74 73 68 69 67 65 63 66 68 71 72 71 71 73 72 72 75 76 84 85 86
59 58 58 58 58 58 58 57 57 58 59 59 59 58 58 55 61 73 73 70 71 74 76 73 71 68 66 65 68 63 68 69 70 72 71 69 73 72 73 76 83 80 81 82 85
58 58 58 58 58 57 57 57 57 57 57 58 58 58 57 58 65 74 72 72 73 74 74 71 70 68 65 66 66 64 67 68 71 71 70 71 70 71 72 79 82 80 78 80 83
58 58 57 57 57 57 57 57 57 56 57 58 58 58 56 58 74 75 73 72 74 74 72 72 72 71 67 66 66 67 67 69 70 71 69 68 72 70 75 80 79 78 79 80 81
58 58 57 57 57 57 57 57 56 57 57 58 58 59 56 65 74 74 73 73 74 75 72 73 74 71 70 65 68 67 63 66 69 71 70 71 68 67 77 77 77 78 78 79 80
57 57 57 57 57 57 57 57 57 57 58 58 59 58 58 71 73 71 73 73 74 75 74 76 76 72 69 69 65 62 61 58 66 66 69 69 61 71 75 73 73 75 76 76 78
57 57 57 57 57 57 56 56 56 58 59 60 57 56 60 71 68 75 75 74 74 74 75 77 74 66 67 62 59 58 55 55 60 66 66 66 61 71 73 71 71 73 74 75 77
57 57 56 57 57 56 55 56 58 59 60 62 61 54 65 67 72 73 74 76 72 72 70 69 67 63 61 60 51 52 52 54 55 64 65 64 63 69 72 72 71 73 74 74 75
57 57 56 56 56 56 55 59 59 56 57 60 63 61 66 74 77 72 74 72 71 69 62 62 60 56 60 60 60 57 54 54 59 64 59 61 61 66 71 70 72 73 74 74 75
57 57 57 56 56 55 54 61 66 66 57 62 63 63 69 71 64 70 75 68 65 59 61 59 55 63 62 60 57 56 54 54 59 62 59 62 60 66 68 69 72 72 74 75 77
56 56 56 56 55 53 57 64 69 68 58 60 62 62 65 69 63 65 72 68 63 59 59 56 60 61 59 58 55 56 54 54 55 62 61 59 58 62 67 67 70 72 74 74 73
55 55 55 55 54 58 61 67 67 66 52 55 60 65 66 68 63 73 75 71 63 59 59 58 65 59 58 56 58 52 61 59 57 54 50 58 46 58 63 64 68 71 73 73 75
55 55 55 54 55 59 65 66 66 64 40 61 61 72 68 66 67 65 73 69 61 59 59 57 58 56 55 59 59 57 60 58 57 54 52 54 49 56 59 59 65 70 73 74 72
55 55 54 53 53 59 63 65 64 50 39 57 63 60 59 64 65 67 67 72 69 61 59 61 64 62 62 63 62 64 60 59 53 52 43 52 50 53 59 62 66 69 70 66 68
55 54 53 57 60 63 65 65 48 39 59 54 57 62 60 58 61 63 60 58 56 50 51 58 59 64 64 59 64 60 54 44 43 43 42 56 50 53 62 66 66 65 65 66 67
53 52 53 58 62 62 65 58 39 48 51 60 59 60 53 57 57 59 57 55 59 57 52 48 46 57 63 60 58 57 55 45 35 39 44 53 44 54 63 65 62 63 63 66 67
51 58 60 63 61 61 62 44 42 48 54 53 55 48 50 54 55 54 52 53 57 57 48 47 47 59 60 61 60 56 50 59 48 50 41 47 53 59 61 60 61 61 63 63 64
52 57 63 65 64 63 57 45 50 56 57 56 44 49 44 48 49 49 49 55 53 60 58 53 44 55 59 60 62 56 59 46 47 33 32 44 45 48 55 56 58 59 61 62 64
55 59 66 64 64 61 49 50 54 59 58 52 47 44 45 43 45 45 45 53 55 56 58 54 47 48 53 51 50 52 49 48 46 44 34 35 44 54 54 54 54 57 60 60 61
52 53 64 63 56 52 50 49 51 54 58 55 55 50 47 48 44 44 43 50 56 55 47 51 46 39 44 55 58 54 50 48 35 34 36 38 40 56 55 56 56 57 58 60 61
49 50 61 61 47 46 48 49 53 51 51 51 50 52 50 47 42 44 47 55 55 52 46 48 38 35 40 47 49 46 49 46 42 36 33 33 43 55 57 57 58 56 58 58 59
51 48 52 52 49 44 41 44 45 53 49 51 50 50 46 43 46 38 43 51 53 52 50 45 42 40 35 41 39 36 38 40 36 33 37 37 42 50 54 52 53 55 56 57 58
48 43 44 40 43 43 42 43 42 42 49 50 46 45 43 38 39 40 45 46 49 50 47 41 34 37 40 41 41 40 42 43 37 38 33 41 43 49 52 50 51 53 54 55 56
48 47 47 44 46 44 42 41 41 43 43 43 43 44 42 36 40 36 42 42 39 47 46 45 37 39 37 43 44 41 44 45 45 45 44 45 44 53 51 52 52 52 53 53 55
47 48 47 42 44 43 43 42 42 44 46 47 45 42 40 43 48 48 48 47 46 43 43 40 39 36 34 42 42 36 44 45 46 48 46 40 49 50 49 50 51 52 52 52 53

GFSSW_sfc_temp_102.txt.gz
Temp
59 59 59 59 59 59 60 59 59 59 59 59 59 60 60 60 60 70 71 77 77 71 69 84 84 85 86 84 85 85 74 70 72 72 75 83 82 86 87 85 88 91 90 93 97
59 59 59 59 59 59 59 59 59 59 59 59 59 59 59 59 68 71 78 70 70 71 83 82 80 83 82 81 82 79 73 75 80 79 77 79 78 82 80 82 84 87 93 96 97
59 59 59 59 59 58 59 58 58 59 59 59 59 59 59 62 68 80 72 70 71 74 86 85 85 83 78 82 79 78 73 80 78 80 80 79 78 84 77 79 85 84 89 93 94
59 59 58 58 58 58 58 58 58 58 59 59 59 59 59 66 67 82 73 71 71 83 84 82 81 77 76 73 80 72 79 80 80 81 79 78 82 79 81 81 88 87 88 91 91
59 59 58 58 58 58 58 58 58 58 58 58 59 58 64 68 75 83 72 73 80 82 82 80 78 79 74 77 76 73 78 78 80 80 80 81 77 79 80 86 89 90 86 88 88
58 58 58 58 58 58 57 58 57 57 57 58 58 58 66 66 83 83 84 82 84 84 83 84 81 82 78 76 75 78 78 78 79 80 80 77 79 78 82 87 87 87 87 89 90
58 58 58 58 58 58 58 57 57 57 58 58 59 66 67 74 84 84 84 84 85 85 80 83 84 79 79 73 78 76 71 77 78 80 78 81 74 74 84 85 84 86 87 88 89
58 57 57 58 58 58 58 57 57 58 58 59 60 68 68 81 85 83 85 82 85 85 84 84 84 80 78 78 74 71 71 68 77 75 78 75 69 80 83 82 81 83 84 85 87
58 57 57 57 58 58 57 56 57 58 59 60 64 66 69 73 76 84 85 81 83 83 83 83 82 77 75 70 68 70 64 67 70 76 75 73 71 77 81 79 78 81 84 85 86
58 57 57 57 57 57 56 57 58 60 64 69 69 61 73 73 80 82 85 84 79 79 76 75 76 71 72 70 60 64 64 67 65 72 72 71 71 78 81 80 79 81 83 84 85
57 57 56 56 57 56 58 67 66 63 66 70 72 70 73 80 83 80 82 80 79 76 67 73 67 64 69 71 70 67 64 64 69 73 69 68 70 74 78 80 80 80 82 82 84
57 57 57 56 56 55 62 69 73 74 65 75 73 74 77 78 72 77 83 73 71 66 72 67 62 71 73 70 66 65 63 63 69 71 69 68 68 74 77 77 80 80 81 82 84
56 56 56 56 55 57 68 71 78 77 66 68 71 70 73 76 71 74 78 75 70 66 68 64 68 69 68 66 62 64 62 63 63 68 71 67 64 69 76 79 79 81 82 83 83
55 55 55 55 55 74 70 76 78 73 58 61 66 71 72 76 68 80 81 77 71 66 68 67 73 68 66 63 66 60 69 66 63 62 57 70 54 66 72 74 76 78 81 83 84
55 55 55 54 63 71 74 80 80 71 45 65 66 78 73 70 72 73 83 77 67 67 67 64 65 64 63 65 69 63 70 65 64 61 61 62 58 64 72 68 71 76 79 81 79
55 55 54 60 64 73 77 77 74 58 43 60 67 64 64 68 68 70 71 78 76 69 68 67 74 69 69 69 69 70 66 66 66 63 52 60 59 61 67 70 74 78 78 75 76
55 54 57 71 70 78 78 73 57 51 62 57 60 64 64 62 64 66 64 62 59 55 57 65 66 72 71 64 70 67 60 51 50 52 51 64 60 62 69 73 74 75 76 74 75
53 52 56 72 77 74 74 64 48 53 56 62 61 62 56 60 60 60 59 58 65 62 58 53 51 65 70 66 63 65 63 53 42 44 51 62 53 62 70 73 73 73 73 74 74
51 72 75 75 75 75 69 54 56 55 58 55 56 49 53 58 60 59 58 57 61 62 52 52 53 65 65 67 66 61 57 64 52 55 50 55 62 69 72 70 70 70 69 70 71
65 71 71 75 75 73 65 52 57 62 61 59 48 51 46 50 50 52 51 58 55 59 61 53 43 60 64 67 66 61 65 50 52 37 37 51 53 56 60 62 65 66 66 68 71
66 68 73 76 75 70 58 58 59 64 63 57 53 51 51 50 52 50 50 58 60 58 59 55 49 52 60 55 53 56 53 53 51 49 38 40 50 62 61 63 62 64 67 68 69
65 63 73 75 66 67 63 57 53 59 63 60 59 57 53 52 49 49 49 55 62 59 51 56 47 43 51 62 65 61 56 54 39 41 47 43 45 67 64 64 64 66 68 70 70
64 64 73 71 59 61 58 57 58 57 57 57 55 57 57 53 45 51 53 60 60 57 48 50 40 39 45 53 57 52 55 55 52 40 35 37 47 61 61 63 66 65 66 67 67
64 59 64 65 62 55 52 53 53 57 55 57 56 56 52 48 51 41 49 53 57 56 51 47 45 44 38 46 49 43 49 52 46 34 40 43 49 57 59 61 64 64 64 65 65
62 53 53 54 55 54 53 51 50 49 56 57 52 51 48 43 45 44 48 50 53 55 52 45 35 44 46 48 49 48 47 50 46 43 36 46 48 55 59 61 62 63 63 63 64
60 57 60 57 52 53 47 48 48 49 50 50 49 50 46 39 43 42 46 48 46 51 49 44 39 44 43 50 49 46 51 52 52 52 52 52 51 62 62 63 61 62 62 61 62
63 61 58 47 52 53 53 48 48 51 53 53 50 47 47 49 54 54 55 55 52 46 43 40 44 39 39 49 48 43 52 53 54 57 55 49 57 62 59 57 59 61 61 61 62

GFSSW_sfc_temp_105.txt.gz
Temp
60 60 60 60 60 60 60 60 60 60 60 60 60 60 60 60 60 70 74 82 82 74 71 89 89 90 91 89 92 91 77 70 76 78 82 92 86 93 95 89 92 96 95 99 100
60 60 60 59 59 60 59 59 59 59 59 60 60 60 60 60 69 75 82 73 74 72 83 86 84 87 85 86 87 82 76 77 86 87 84 87 86 89 86 86 89 91 97 100 101
60 60 59 59 59 59 59 59 59 59 59 60 60 60 60 63 71 83 74 72 72 75 88 92 91 88 83 86 85 83 76 86 85 85 87 85 84 86 83 79 88 89 94 98 98
60 60 60 59 59 59 59 59 59 59 59 59 59 60 59 69 68 85 73 72 72 85 89 87 86 81 80 79 86 78 84 85 86 87 84 82 87 84 86 85 92 91 93 93 95
59 59 59 59 59 59 58 59 59 58 59 59 59 59 64 72 78 84 72 74 83 85 86 86 83 83 78 83 84 80 83 86 87 86 85 87 83 83 85 90 94 94 91 90 91
59 59 59 59 59 59 58 58 58 58 58 59 59 59 66 69 91 88 88 84 88 87 87 88 85 88 83 83 82 84 83 85 85 85 85 81 83 85 86 91 90 91 91 93 94
58 58 58 58 59 59 59 58 58 57 58 60 60 67 72 77 92 93 91 88 91 89 85 91 90 83 85 79 86 84 76 81 82 84 82 85 77 79 88 90 88 89 91 92 94
58 58 58 58 58 59 59 58 58 58 59 60 60 71 70 90 94 89 92 89 92 93 91 91 90 86 84 86 79 76 78 71 83 84 85 82 70 85 91 87 85 87 90 90 92
58 57 57 58 58 58 58 57 58 58 59 61 65 70 72 76 81 90 92 85 88 89 88 88 87 82 82 74 72 75 68 72 77 84 81 78 74 85 86 85 83 86 88 89 90
58 57 57 57 57 57 57 57 58 58 62 73 76 68 77 78 85 88 91 90 84 83 81 79 79 75 76 74 63 69 70 72 72 80 78 76 76 82 86 84 83 85 86 88 89
58 57 57 57 57 56 57 68 67 65 71 74 76 76 78 85 88 85 88 84 84 79 70 76 71 68 72 76 76 74 71 70 76 80 76 74 74 79 84 85 83 84 85 86 87
57 57 57 56 56 56 63 69 76 79 68 79 79 81 83 83 76 81 88 76 75 69 74 72 66 75 79 77 73 71 68 68 74 79 76 73 72 78 81 82 84 84 85 86 87
56 56 56 56 56 58 70 75 84 81 65 72 77 76 79 82 75 78 82 78 73 70 72 68 74 77 74 72 68 69 66 68 68 74 76 71 68 72 79 82 84 85 86 87 87
56 56 56 55 54 80 76 84 87 81 61 64 69 73 76 79 71 86 85 79 75 69 73 72 78 74 71 68 71 64 74 72 68 66 60 74 59 71 77 78 81 83 84 85 86
56 56 55 54 67 76 81 88 88 78 46 70 70 82 78 73 74 75 85 79 70 72 71 68 71 70 67 70 74 67 75 71 70 65 65 66 62 68 76 73 78 81 83 85 87
55 55 54 60 68 81 86 85 79 59 46 65 72 70 67 69 70 74 75 80 77 70 73 71 80 74 73 75 73 76 70 69 68 66 55 64 64 65 71 75 78 82 84 84 82
55 55 57 77 76 87 86 77 59 53 67 61 64 70 69 67 67 68 65 64 61 58 57 65 69 76 76 68 73 71 64 54 53 55 53 68 64 67 75 78 79 79 82 81 80
54 52 62 81 86 82 78 68 48 59 61 67 65 67 61 66 65 64 61 58 65 63 58 55 54 67 73 69 64 67 63 52 42 46 54 65 56 65 77 79 80 80 80 79 79
51 76 81 83 84 81 71 54 58 59 64 61 62 57 57 62 61 61 61 61 63 65 53 52 55 70 71 72 69 62 58 66 52 55 52 58 64 73 77 77 76 76 77 76 76
69 77 78 83 83 76 67 52 63 67 66 64 52 58 52 55 55 56 55 63 61 65 64 55 47 61 65 68 68 64 67 49 52 37 40 52 56 59 63 68 72 71 72 74 75
70 72 78 84 81 72 62 63 65 69 68 61 57 54 54 54 56 53 52 61 63 63 64 60 52 52 60 58 56 58 53 55 55 52 41 42 51 67 64 66 67 69 70 70 72
72 68 81 82 64 72 68 65 53 65 67 64 64 61 55 55 54 52 53 56 64 64 56 58 47 46 53 64 66 61 56 55 39 43 49 45 46 70 66 67 68 69 69 72 74
70 73 81 78 62 66 64 63 64 63 63 62 61 62 62 57 50 56 57 63 65 61 53 57 46 42 50 59 62 56 57 56 53 49 42 39 49 65 65 65 66 65 69 72 71
70 65 72 76 72 62 60 60 59 64 62 62 62 63 58 52 56 53 54 57 61 59 52 52 50 43 40 49 47 43 50 54 51 40 46 48 52 59 60 58 61 66 68 70 71
72 62 62 63 63 62 61 59 57 56 62 63 59 57 55 49 54 52 56 56 56 58 54 50 40 48 50 51 52 53 52 54 49 51 43 50 51 56 62 64 67 67 68 68 68
63 63 67 64 59 60 50 57 55 56 57 57 55 57 54 50 53 51 52 51 51 56 52 50 40 48 46 52 52 49 55 56 56 56 53 54 54 65 67 65 63 62 62 63 67
71 69 65 52 59 59 61 57 55 57 60 60 57 54 54 55 59 61 60 59 56 50 47 44 39 41 40 51 50 44 53 56 58 60 58 51 59 65 63 63 63 64 66 66 67

GFSSW_sfc_temp_108.txt.gz
Temp
61 61 60 60 60 60 60 60 60 60 60 60 60 61 61 61 60 66 68 80 80 74 74 84 87 87 88 85 89 90 72 69 74 76 80 92 88 94 97 92 93 94 93 97 100
61 61 60 60 60 60 60 60 60 60 60 60 60 60 60 60 64 69 80 74 74 74 83 82 82 85 81 82 85 80 72 73 83 84 84 89 89 91 87 88 86 89 96 99 100
60 60 61 60 60 59 60 60 60 60 60 60 60 60 60 62 66 78 79 74 73 76 85 89 89 85 78 83 82 80 72 82 85 89 88 85 86 90 84 80 86 87 92 97 98
60 60 60 60 60 59 59 59 59 59 59 59 60 60 60 65 64 82 74 73 73 85 83 83 85 81 77 75 84 76 82 83 85 89 85 83 87 84 84 84 91 92 94 93 92
59 59 59 59 60 59 59 59 59 59 59 59 59 60 63 67 74 82 73 75 83 82 82 83 81 81 75 80 82 79 81 85 87 87 86 86 83 83 84 90 91 91 92 90 89
59 59 59 59 59 59 59 58 58 58 58 58 60 59 63 64 92 86 87 83 86 84 84 87 84 87 82 81 80 84 83 83 85 85 85 81 82 84 85 90 90 90 89 89 90
58 58 58 58 58 58 59 58 58 58 58 59 61 66 67 73 94 92 89 86 89 88 85 90 91 86 85 79 86 84 77 80 81 83 81 84 76 78 87 90 87 88 89 90 91
58 58 58 58 58 58 58 58 58 58 59 60 61 67 66 91 94 91 91 88 92 93 90 93 92 85 82 86 82 77 77 67 79 82 83 81 68 81 89 86 85 87 88 89 90
58 57 57 58 58 58 57 57 57 59 59 61 63 67 69 81 83 90 92 86 89 90 90 92 87 79 81 73 70 72 64 68 73 85 83 79 72 82 88 87 84 85 86 87 89
58 57 57 57 57 57 56 56 60 58 61 71 73 67 76 77 86 88 92 90 84 84 81 79 78 72 73 71 58 64 67 70 71 80 80 76 75 80 85 85 83 84 85 86 87
58 57 56 56 56 56 58 65 62 62 67 70 74 74 81 87 90 85 89 85 84 78 68 75 68 64 70 73 74 73 71 70 76 82 77 74 74 78 83 84 82 83 83 84 85
57 57 57 56 56 56 58 64 74 76 65 73 76 80 86 86 76 82 89 76 74 67 73 70 63 73 77 77 74 73 69 68 74 78 76 74 73 78 80 81 83 83 84 84 85
56 56 56 56 56 56 64 71 83 84 67 71 78 77 79 83 75 78 83 78 72 68 70 65 71 78 75 72 70 70 67 66 67 74 76 73 68 71 78 81 83 85 85 86 85
56 56 56 55 52 70 68 78 87 82 58 65 69 74 77 79 70 84 86 78 73 68 71 70 77 74 72 69 71 63 74 71 69 65 58 72 56 68 75 77 80 81 83 84 85
55 56 55 54 63 74 83 88 88 79 41 70 71 83 80 71 74 74 86 78 67 69 71 67 71 71 68 70 74 67 75 71 70 65 63 64 59 65 74 72 77 81 83 85 86
55 56 55 60 66 75 87 86 80 56 42 65 73 70 68 71 72 77 75 79 77 69 70 67 76 74 73 76 75 75 70 69 68 64 53 60 60 61 68 73 78 82 84 85 85
55 55 55 73 75 87 86 77 56 48 66 62 66 71 69 66 69 69 67 64 60 53 54 63 66 73 75 68 73 70 62 51 49 51 50 65 61 64 74 77 79 80 81 80 80
54 52 62 76 86 84 78 64 45 56 61 69 67 68 64 68 67 67 65 61 67 64 57 54 51 66 73 68 63 63 61 51 40 44 50 62 52 62 75 79 81 82 81 79 79
52 76 74 83 85 82 69 52 53 61 67 63 64 58 60 64 64 63 62 62 66 67 54 53 54 69 67 71 68 62 55 63 51 51 47 53 60 70 71 73 75 78 79 77 77
62 74 80 85 84 75 62 56 63 69 68 66 54 58 52 55 57 57 57 64 63 68 66 59 48 61 65 68 68 62 65 47 47 34 37 50 53 56 58 65 70 72 73 75 76
64 67 80 87 83 69 56 62 67 71 70 63 58 55 56 54 57 55 55 62 65 65 66 61 54 53 60 57 55 58 53 53 52 49 37 39 49 66 62 63 64 68 71 72 72
69 60 82 85 65 69 60 67 56 68 69 67 66 64 58 57 54 54 54 56 65 64 56 60 51 46 51 62 66 63 58 57 40 41 46 43 41 66 64 66 67 68 70 72 73
64 72 81 79 57 62 68 67 67 65 65 64 63 64 64 58 51 59 60 65 65 62 55 57 49 40 46 57 58 49 51 50 47 46 38 37 46 67 64 61 64 65 67 68 71
64 62 71 74 73 64 63 63 62 67 65 65 64 66 61 58 59 54 58 61 63 62 54 56 50 44 37 45 51 47 49 49 45 35 40 43 50 58 61 56 62 65 65 67 70
67 63 64 61 63 63 63 62 61 60 65 66 61 60 58 52 56 56 60 61 63 56 57 53 42 48 50 52 52 51 52 53 50 51 44 50 52 58 62 63 66 62 65 66 67
62 61 67 66 63 62 54 60 59 61 60 60 57 61 58 51 54 51 55 56 54 59 54 53 41 47 45 52 52 50 54 56 56 56 56 56 55 65 67 68 64 63 64 65 67
69 71 65 55 62 60 61 60 59 60 63 63 59 57 56 58 61 62 61 60 59 54 50 47 42 41 37 50 47 43 53 56 56 58 57 51 58 63 61 60 60 62 65 65 66

GFSSW_sfc_temp_111.txt.gz
Temp
61 61 61 61 60 60 60 60 60 60 60 60 60 60 60 61 60 58 53 67 69 73 73 77 78 77 76 72 75 77 54 52 59 65 72 80 78 86 88 86 88 85 86 88 91
60 61 61 60 60 60 60 60 60 60 60 59 60 61 60 60 55 56 69 74 73 73 74 72 71 74 66 69 70 65 57 61 72 75 72 77 75 79 80 79 80 83 90 92 91
60 60 60 60 60 59 59 60 59 59 59 60 60 61 60 59 54 65 75 73 73 74 77 76 76 73 64 67 67 68 61 70 76 79 79 73 74 78 77 70 78 77 81 86 84
60 60 60 60 60 60 59 59 59 60 60 59 59 60 60 56 53 73 75 75 74 77 75 73 70 59 62 61 69 61 72 74 77 80 73 74 80 76 72 74 83 84 85 81 81
59 59 59 59 59 59 59 59 59 59 59 59 59 59 55 53 58 75 74 74 75 76 72 70 66 64 59 65 68 65 70 77 79 78 74 78 74 76 74 82 84 84 85 80 78
58 59 59 59 58 58 59 59 58 58 58 58 59 60 53 51 81 77 77 74 78 72 73 72 70 73 68 67 64 71 73 73 75 76 73 72 73 73 76 82 83 83 81 80 81
58 58 58 58 58 58 58 58 57 58 59 59 60 61 57 58 82 77 79 73 77 78 75 79 79 73 71 66 73 72 65 70 72 71 71 75 69 71 78 81 78 80 79 80 79
58 57 58 58 58 58 58 57 57 58 59 60 60 58 52 79 77 77 79 78 82 82 81 83 82 73 65 70 70 64 61 52 66 73 74 70 59 72 78 78 76 78 80 81 78
58 57 57 57 57 57 57 56 57 59 59 60 55 53 57 77 77 83 83 80 82 83 82 89 76 67 69 59 54 56 49 55 62 74 73 71 63 73 79 76 75 78 77 79 78
58 57 57 57 57 57 56 56 59 58 58 64 65 54 64 71 81 83 83 85 79 77 75 71 65 58 56 51 43 51 52 58 60 70 70 68 67 70 76 74 72 73 75 75 76
58 57 57 57 57 56 54 56 53 53 59 58 63 66 77 82 85 79 83 80 78 70 58 64 54 49 56 61 63 63 60 59 64 70 64 62 64 68 72 69 69 70 71 72 74
57 57 57 56 56 55 54 52 66 68 58 65 68 72 78 83 74 77 83 70 67 58 63 58 51 63 68 68 66 64 59 58 63 69 65 61 61 67 70 69 69 69 70 70 71
56 56 56 56 55 52 52 59 73 74 58 69 72 70 74 78 72 73 77 71 65 59 59 54 61 72 68 65 64 61 57 58 57 65 65 61 57 61 68 69 72 73 72 71 71
56 55 55 55 50 57 56 66 66 70 49 61 67 72 75 74 68 81 81 73 66 60 62 59 68 68 66 64 65 55 66 66 63 56 48 59 46 55 62 65 71 73 73 71 72
56 56 55 55 50 59 71 74 71 65 36 65 68 81 76 68 71 71 80 73 63 64 63 59 63 62 60 65 68 59 68 63 62 54 46 52 44 50 62 62 66 67 75 74 72
56 56 55 56 52 60 72 76 68 47 39 59 68 66 64 68 70 73 72 75 72 63 64 61 70 67 65 71 70 70 62 58 54 48 42 49 48 50 57 63 65 71 72 76 73
55 55 53 61 62 74 75 66 45 41 58 58 61 65 63 62 65 67 64 59 55 49 49 58 60 66 70 62 66 62 50 38 35 36 38 54 51 52 61 67 70 67 67 68 68
54 53 55 65 71 74 67 53 40 50 55 68 66 66 61 65 64 64 60 53 60 57 51 48 47 62 69 59 53 55 50 41 31 32 38 51 41 50 64 68 68 70 67 69 68
52 60 60 66 70 69 57 42 46 52 64 63 63 57 58 63 61 60 56 56 62 60 47 45 49 65 66 67 63 54 47 53 41 41 36 42 51 60 62 63 66 69 69 66 65
49 57 65 74 73 64 52 48 57 68 68 65 53 57 51 53 53 52 53 61 60 63 58 51 42 57 62 63 63 57 60 41 39 31 28 40 45 46 53 57 61 62 64 65 64
53 56 70 76 69 57 48 51 63 69 68 62 55 53 54 52 54 52 52 57 61 59 59 51 45 46 54 50 48 49 46 48 46 39 32 28 37 55 53 57 57 60 62 64 63
55 53 72 73 53 56 50 60 59 66 69 66 63 60 54 54 51 50 52 55 63 60 51 51 44 37 45 55 59 55 49 47 35 36 38 37 38 60 56 56 57 60 62 64 64
49 57 70 68 48 51 61 65 66 64 64 62 60 62 59 52 45 54 57 63 63 57 47 47 39 31 37 46 51 46 47 46 43 41 36 34 37 58 59 58 59 59 62 64 63
51 52 58 60 59 57 54 58 58 66 63 63 60 60 54 51 52 48 54 60 62 55 57 52 41 36 29 38 43 41 46 50 42 33 36 37 40 50 55 55 54 57 57 55 60
53 54 56 49 53 54 54 58 58 57 63 62 55 57 52 44 48 47 54 56 59 55 52 45 34 40 43 47 48 47 47 48 43 43 35 43 45 50 56 56 54 54 59 60 61
51 51 55 53 58 55 50 53 56 58 57 55 52 56 52 43 46 44 47 45 46 50 48 48 34 40 39 46 47 45 49 49 49 50 50 50 50 56 56 56 54 55 58 60 57
57 58 53 52 55 51 52 55 57 57 59 60 54 51 49 50 53 51 49 49 48 43 43 39 36 36 31 43 42 35 45 48 50 51 47 40 45 50 51 53 52 55 56 55 56

GFSSW_sfc_temp_114.txt.gz
Temp
61 61 61 61 60 60 60 60 60 60 60 60 60 60 61 60 60 56 49 62 64 70 72 74 73 75 72 68 73 73 52 50 57 60 67 77 69 78 83 79 81 82 82 85 89
60 60 60 60 61 60 59 60 59 60 60 59 59 60 60 60 53 51 64 69 70 72 69 67 66 68 61 64 66 60 52 58 68 70 69 74 73 75 77 76 76 79 84 87 87
60 60 60 60 60 60 59 59 59 59 59 59 59 59 59 58 50 62 72 70 71 73 74 71 68 66 57 58 62 58 56 65 71 75 73 71 71 75 72 66 72 74 82 82 80
59 60 60 59 59 59 59 59 59 59 60 60 59 59 59 52 53 73 75 71 73 73 74 69 64 55 55 56 61 53 67 69 73 76 72 70 75 73 72 75 82 81 80 81 77
59 59 59 59 59 59 59 59 59 59 59 59 58 59 53 48 54 74 74 72 73 73 70 66 61 59 54 59 59 56 65 70 74 74 70 72 72 74 74 79 81 83 82 78 74
58 58 59 59 59 58 58 58 58 58 58 58 58 59 49 48 71 75 73 72 73 70 69 66 66 66 62 62 60 65 65 67 70 71 68 69 71 70 76 79 80 79 79 79 76
58 58 58 58 58 58 58 57 57 57 58 59 59 59 51 54 75 72 73 69 73 74 70 73 73 66 65 63 66 65 59 64 66 68 67 72 66 68 77 78 76 76 76 78 78
58 58 58 58 58 58 58 57 57 58 58 59 60 55 47 69 67 69 71 72 75 75 75 77 75 68 65 66 66 58 55 49 62 68 70 67 57 70 76 74 73 75 75 76 75
58 57 58 58 58 58 57 56 57 58 59 60 52 48 50 72 68 74 75 74 75 76 75 82 72 65 65 56 50 51 46 51 59 65 65 64 59 69 73 72 71 72 73 74 74
58 57 57 57 58 57 56 56 57 57 58 60 61 49 59 67 76 78 76 78 73 72 70 69 60 55 52 49 41 47 47 53 54 62 61 60 60 70 70 70 68 70 70 71 73
58 57 56 57 57 56 52 49 50 50 53 52 57 58 71 77 81 75 78 76 73 66 55 59 52 47 53 55 57 56 53 52 59 66 59 57 58 62 67 64 65 66 66 68 71
58 57 57 56 56 55 54 46 61 61 54 60 63 64 72 75 69 73 78 67 63 55 59 53 48 57 61 60 58 57 53 53 58 64 60 57 58 62 65 64 66 67 67 68 68
56 56 56 56 55 51 48 51 63 64 53 63 64 64 67 71 68 68 73 67 61 55 54 49 57 65 62 59 58 56 53 53 54 61 59 56 52 57 63 65 68 68 67 67 68
56 56 56 55 50 51 48 58 59 62 47 59 63 68 71 71 64 77 76 69 61 57 57 54 64 62 59 58 60 53 62 61 58 52 44 55 39 50 58 60 64 67 65 66 66
56 56 56 56 47 49 63 63 61 60 34 63 66 76 72 66 67 68 76 68 59 60 57 54 56 56 55 59 61 56 63 59 56 49 44 48 41 47 55 58 60 63 66 68 72
56 56 56 51 50 51 59 60 64 46 38 58 66 65 63 66 68 69 69 71 68 59 58 58 64 62 60 66 64 65 56 53 48 44 36 45 43 43 51 55 60 65 64 64 63
56 55 53 57 51 61 60 59 43 38 58 56 58 61 59 59 63 66 62 58 52 44 45 53 55 60 65 56 59 56 47 37 34 34 34 48 43 45 55 60 61 61 61 62 61
54 52 52 56 56 61 60 50 36 49 52 64 64 61 55 59 59 61 57 52 58 56 48 44 44 57 62 55 48 49 45 36 29 30 35 47 39 48 58 61 64 66 61 63 62
52 52 54 60 62 60 54 41 43 48 60 62 62 55 56 59 57 57 52 51 55 56 46 43 47 61 62 63 57 50 45 47 38 37 32 38 46 54 57 58 60 61 61 58 60
46 50 56 67 65 60 50 47 52 62 66 62 50 54 47 50 51 50 50 56 56 58 53 46 40 53 57 59 59 51 56 39 35 27 26 35 40 43 51 52 57 56 56 57 58
49 52 63 67 64 54 45 50 58 66 65 59 52 50 51 49 50 47 50 55 58 56 56 48 42 44 51 47 43 44 41 43 42 40 31 28 35 49 49 52 54 57 58 59 57
46 48 65 66 52 51 45 56 59 63 66 62 59 56 51 51 49 48 50 53 61 57 48 47 41 36 42 51 53 48 41 41 33 34 38 36 36 51 52 54 56 56 60 62 62
43 47 63 64 45 48 52 59 64 60 59 58 56 58 55 48 43 50 53 59 60 54 48 46 37 30 35 42 47 43 44 41 41 36 34 33 34 56 56 54 58 57 61 60 61
44 45 52 55 53 53 52 55 57 63 60 59 56 57 51 47 47 45 53 56 58 53 57 50 38 35 29 36 38 38 42 45 42 32 34 36 39 47 51 53 53 57 56 55 58
46 47 50 45 49 49 50 54 54 53 58 58 52 52 49 40 43 44 48 50 53 56 47 42 33 37 40 42 43 42 43 44 39 39 33 40 41 48 51 48 49 53 55 55 55
45 45 49 47 52 50 47 50 52 54 53 51 48 51 49 41 42 39 42 42 42 45 41 40 32 37 36 43 43 40 44 45 46 46 44 45 44 51 54 52 53 51 53 54 54
48 50 47 47 50 47 48 51 52 54 53 55 51 48 45 46 47 45 46 47 46 43 39 38 34 31 30 39 39 32 41 44 45 43 42 36 40 47 47 49 47 48 51 51 53

GFSSW_sfc_temp_117.txt.gz
Temp
61 60 60 60 60 59 59 60 60 59 60 60 60 59 60 60 59 54 48 60 63 69 71 73 72 73 70 67 71 71 51 49 55 58 63 68 67 74 79 74 78 80 78 82 82
60 60 60 60 60 60 59 59 59 59 59 59 59 59 60 60 51 48 61 67 69 71 68 67 67 67 62 65 67 61 49 56 66 68 67 69 65 69 73 74 74 76 82 82 82
60 60 60 60 59 59 59 59 59 59 59 59 59 59 59 58 47 57 71 69 69 71 72 70 67 65 56 58 62 61 56 64 69 72 70 65 68 70 70 65 70 71 75 80 75
59 59 60 59 59 59 59 59 59 60 59 59 59 58 59 50 49 67 73 70 71 70 69 66 62 58 54 55 60 54 64 67 69 73 69 70 73 71 68 72 78 77 76 75 77
58 59 59 59 59 58 58 58 58 59 59 59 58 58 52 44 52 71 73 71 70 69 68 64 59 58 53 56 56 53 62 67 70 70 67 69 67 69 69 77 78 78 76 74 73
58 58 58 58 58 58 58 58 58 58 58 59 58 58 47 45 69 71 69 69 70 68 67 65 63 64 58 57 57 61 62 65 66 66 64 64 68 67 73 77 77 76 76 74 74
58 58 58 58 58 58 58 58 57 57 58 59 59 58 48 52 70 69 69 66 71 72 67 68 69 65 61 56 62 62 55 61 63 66 65 67 62 64 75 76 74 73 73 74 75
58 58 58 58 58 59 58 58 57 57 58 59 60 56 45 65 65 63 66 68 71 72 72 72 71 63 60 62 61 55 54 47 60 64 68 67 56 68 73 71 69 72 73 73 73
58 57 57 58 58 58 57 57 57 58 60 60 53 47 48 68 66 71 71 69 70 70 70 79 69 62 61 55 50 51 45 49 57 63 63 60 55 67 70 69 68 69 70 71 71
58 57 57 57 57 57 56 56 56 57 59 60 58 47 56 64 71 72 70 74 70 68 66 65 58 54 51 50 42 47 47 51 52 59 60 57 57 62 67 65 66 67 67 68 69
58 57 57 57 56 56 52 49 49 46 49 49 54 56 67 73 76 71 73 69 68 63 54 58 51 47 53 54 55 54 51 50 56 61 56 56 55 61 64 62 61 62 65 65 66
57 57 57 56 56 55 53 46 58 58 50 55 58 60 66 71 65 69 74 63 60 53 55 52 47 56 58 57 55 53 49 49 55 60 56 55 55 59 62 62 61 63 63 64 64
56 56 56 56 56 51 49 49 60 61 52 60 59 60 63 67 63 65 70 64 58 53 51 48 55 61 58 54 53 51 48 49 51 57 55 53 49 54 61 62 64 64 63 64 65
56 56 56 55 49 49 47 57 57 58 47 55 58 64 66 66 61 73 72 66 57 53 53 51 58 58 54 54 55 46 57 58 54 49 42 52 38 47 54 57 60 63 63 63 63
55 56 56 55 46 46 60 57 56 57 35 62 62 74 69 64 64 64 71 65 56 56 55 51 53 54 52 55 58 53 59 55 54 47 42 44 39 45 51 55 57 60 62 62 62
55 56 55 51 51 51 56 56 58 45 37 57 65 63 61 63 65 65 65 67 64 55 54 54 60 58 57 61 60 61 54 49 44 41 35 42 42 39 48 51 56 60 59 59 57
55 55 53 56 51 57 56 58 43 37 57 55 56 61 60 59 61 63 60 55 49 43 41 50 52 57 61 52 56 53 43 34 32 32 33 44 40 43 51 56 56 56 57 58 58
54 52 51 54 54 59 59 51 36 49 53 62 61 58 53 58 58 59 56 52 56 53 46 43 41 52 59 53 47 46 43 35 29 29 34 43 37 45 54 56 58 59 56 58 57
51 50 49 55 57 56 55 39 41 49 58 58 60 53 52 56 55 54 50 50 54 55 47 44 47 59 59 60 58 48 40 44 36 34 31 36 43 51 53 54 55 56 56 54 55
45 49 54 62 63 58 50 44 48 56 61 60 50 53 46 50 49 47 47 53 53 55 52 47 40 50 55 58 56 50 51 39 35 28 25 32 37 40 46 49 53 54 53 55 57
48 51 62 64 61 53 44 48 56 64 63 56 50 48 48 48 48 46 47 52 55 53 52 45 42 43 48 44 41 42 39 40 37 34 26 26 33 46 46 47 50 53 57 60 61
44 48 62 63 50 47 46 54 55 60 62 59 57 53 49 50 47 47 48 51 58 55 46 45 40 35 40 47 49 44 40 38 28 30 35 36 34 50 49 49 50 53 55 55 57
42 44 59 62 43 45 54 56 60 58 56 55 54 55 52 48 44 49 50 56 57 53 47 46 36 30 35 40 45 41 41 39 36 33 31 27 32 50 52 53 54 54 55 56 56
43 45 51 53 51 48 51 53 54 60 57 57 53 54 49 45 47 44 49 52 55 52 56 50 37 35 29 34 36 34 39 42 37 30 29 32 36 44 48 49 52 53 51 51 53
44 44 47 44 48 49 51 51 52 51 55 53 49 50 46 39 41 41 46 48 51 53 46 42 34 36 38 40 41 40 40 40 35 36 31 36 39 44 45 47 47 49 51 52 53
43 42 46 44 48 49 46 48 51 51 51 48 46 47 45 40 40 39 41 41 41 44 39 38 32 35 34 41 40 38 41 41 41 42 41 41 40 46 47 48 47 47 49 50 51
45 47 44 44 46 46 47 50 51 50 52 53 50 45 43 44 46 44 44 45 44 41 37 37 33 30 29 37 37 31 37 40 42 43 41 35 40 44 46 48 45 44 49 52 51

GFSSW_sfc_temp_120.txt.gz
Temp
61 61 60 60 60 60 60 59 60 60 59 59 59 59 59 59 59 55 47 57 58 68 70 71 72 72 70 67 70 67 51 47 52 57 58 66 65 71 74 72 75 76 74 78 77
60 60 60 60 60 59 59 60 59 59 59 59 59 59 59 59 54 48 58 65 67 70 68 68 66 69 63 65 66 62 49 55 63 63 60 68 66 67 70 70 71 73 77 78 77
59 60 60 60 60 59 59 59 59 59 59 59 59 59 58 58 46 51 66 67 69 70 69 71 69 67 61 60 62 57 54 64 68 70 64 63 67 70 66 66 69 69 73 75 74
59 60 60 60 59 59 59 59 59 59 59 59 58 58 58 54 45 62 73 70 70 67 69 67 65 59 57 56 61 57 63 66 69 71 68 65 67 67 67 70 74 73 74 73 72
59 59 59 59 59 59 58 58 58 58 59 59 58 58 55 43 45 68 73 70 68 65 67 64 61 58 56 59 61 57 63 66 69 68 67 67 64 65 66 73 75 74 75 72 70
58 58 58 59 59 59 58 58 58 58 58 59 58 58 48 40 65 68 67 66 65 64 65 66 63 65 60 58 59 61 63 65 64 65 64 63 66 66 69 74 74 73 72 72 71
58 58 58 58 58 58 59 58 57 57 58 58 59 57 49 47 66 65 65 60 67 69 65 67 69 66 63 56 58 61 57 60 62 64 64 66 63 61 73 73 72 71 72 71 71
58 57 57 58 58 58 58 59 57 57 58 59 59 56 43 61 62 62 62 64 67 69 69 70 69 61 57 59 59 55 54 48 59 64 66 67 55 68 71 68 68 69 69 70 70
58 57 57 57 57 58 57 57 57 58 59 60 54 49 44 66 63 66 67 64 66 68 67 76 67 59 58 53 48 50 43 48 56 63 62 58 52 64 66 64 64 65 66 68 68
58 58 57 57 57 57 56 56 56 58 59 59 57 45 52 60 67 68 67 70 65 64 62 61 57 52 49 48 41 45 45 50 52 57 56 51 54 61 62 62 63 64 64 64 67
58 57 57 57 56 56 52 52 46 45 50 47 50 53 62 68 73 66 69 67 65 59 51 55 49 46 51 54 55 53 50 49 54 59 54 53 53 59 62 60 62 64 61 62 65
57 57 57 56 56 56 53 44 54 54 46 51 53 56 63 66 61 65 71 60 57 50 54 50 45 55 58 56 54 51 47 48 53 57 54 53 54 57 60 60 61 62 62 61 62
56 56 56 56 55 52 50 50 58 56 47 55 55 56 60 64 61 62 67 61 55 49 49 47 53 58 57 53 52 48 46 48 50 54 54 52 48 51 59 59 61 60 61 62 63
55 55 55 55 50 50 47 57 57 57 45 52 54 60 62 62 58 69 68 64 54 51 51 49 56 56 52 52 53 43 54 55 52 47 41 49 37 46 52 56 58 60 58 58 59
55 55 55 55 50 45 58 55 55 56 34 57 57 70 64 60 62 60 67 63 54 53 52 49 50 51 49 53 55 51 56 52 51 46 41 42 39 45 48 52 54 57 57 57 56
55 55 55 52 51 52 56 57 56 44 36 53 62 59 59 60 61 61 62 64 60 53 52 52 57 55 55 58 57 58 52 48 43 40 33 40 41 39 46 48 53 55 54 55 56
55 55 53 54 50 57 53 55 43 37 56 53 55 60 58 56 59 59 55 50 47 41 40 48 49 54 58 50 53 50 42 33 32 32 32 41 39 42 48 52 52 51 53 54 54
53 52 51 54 53 58 56 51 36 48 52 60 59 59 55 58 56 57 53 47 50 49 41 40 38 49 56 50 47 43 43 34 29 29 33 41 36 43 51 53 54 55 53 55 55
52 49 49 53 56 56 54 39 40 48 54 55 58 51 51 56 56 55 51 51 52 54 46 42 42 55 57 56 52 44 38 41 34 33 30 35 41 48 50 51 53 54 56 55 54
46 47 54 61 59 56 49 43 48 53 58 58 49 52 46 48 49 47 48 53 53 56 54 49 41 50 54 55 54 47 49 37 33 26 25 31 34 38 45 46 50 51 52 54 56
44 49 59 61 60 54 43 47 52 57 59 55 51 48 47 48 49 45 46 50 54 51 52 46 43 43 48 44 41 43 38 37 36 32 26 26 32 44 45 48 48 49 52 52 55
41 46 59 60 49 48 45 51 54 58 62 58 55 54 50 48 47 45 46 50 56 53 44 43 39 34 38 45 46 42 38 37 28 30 32 35 32 48 47 47 49 49 52 54 54
40 43 57 59 44 46 52 54 57 57 56 54 51 52 50 49 45 48 50 53 55 52 46 45 35 30 33 39 43 39 38 37 34 31 32 28 31 48 48 49 50 49 52 52 52
44 45 50 51 49 47 48 51 52 58 54 53 51 51 47 44 44 44 47 50 53 50 55 49 36 35 29 33 35 33 38 38 34 30 28 29 34 42 47 48 50 49 48 48 50
45 42 45 42 45 46 49 50 50 50 53 52 48 48 45 39 40 40 45 46 50 51 45 42 34 34 35 38 38 37 38 37 34 34 30 34 36 41 44 46 47 47 48 49 50
41 39 44 44 46 46 45 49 50 49 49 48 45 45 43 40 42 40 41 39 41 43 38 38 32 34 33 39 38 36 39 39 38 38 36 38 37 47 48 46 45 46 48 48 49
43 44 42 44 45 44 45 49 50 49 50 51 48 44 42 43 45 43 44 44 44 41 37 36 32 30 29 35 35 30 35 38 39 40 39 33 39 44 44 45 44 46 48 49 49

GFSSW_sfc_temp_123.txt.gz
Temp
61 61 60 60 60 60 60 60 60 60 60 60 60 59 59 59 59 57 52 63 63 66 69 73 77 78 79 69 76 73 66 62 66 66 72 78 78 84 85 83 86 86 86 86 85
60 60 60 60 60 59 59 60 59 59 60 60 59 59 58 58 55 51 62 64 66 69 72 73 72 77 70 66 69 70 63 65 72 74 75 77 77 78 81 82 83 83 83 83 84
60 60 60 60 60 59 59 59 59 59 59 60 59 58 58 58 49 57 67 65 67 70 75 77 77 74 67 63 61 70 63 70 71 76 77 77 77 80 78 78 82 82 81 82 83
60 60 60 60 60 59 59 59 59 59 59 59 59 58 57 55 52 71 72 67 69 72 74 74 73 69 66 56 62 60 70 68 72 76 76 75 78 77 78 81 85 85 86 84 82
59 59 59 59 59 59 59 59 58 58 58 58 58 58 56 46 51 71 72 71 71 70 72 72 70 69 63 63 61 55 66 68 73 75 76 77 75 76 78 84 87 85 85 86 85
59 59 59 59 59 59 58 58 57 57 57 58 58 58 50 45 71 72 72 70 70 71 72 74 72 74 68 65 64 68 69 68 72 73 75 72 75 74 80 84 84 83 84 87 85
58 58 58 58 58 58 58 58 57 57 57 58 59 58 50 55 70 71 70 69 72 75 70 76 77 74 68 62 70 69 64 67 68 72 72 74 69 70 79 82 81 82 83 83 84
58 58 58 58 58 58 58 58 57 58 57 58 59 56 49 66 68 68 72 68 73 77 77 77 79 73 69 70 66 64 64 60 68 68 73 73 64 74 77 77 79 80 83 83 85
58 57 58 58 58 58 57 57 57 58 58 59 56 52 51 69 64 72 74 67 72 75 77 78 76 70 68 63 58 59 55 57 64 69 69 68 64 74 77 76 77 79 81 81 84
58 57 57 57 57 57 56 57 57 59 58 59 58 47 59 64 70 71 74 73 70 70 69 69 68 63 62 60 50 55 54 57 60 65 68 66 68 73 75 75 76 77 79 77 78
58 57 57 56 57 56 55 55 52 48 53 53 56 56 64 71 75 70 74 72 70 66 60 64 60 56 60 61 63 62 59 58 61 67 66 65 66 72 71 74 76 76 73 73 75
57 57 57 56 56 56 55 49 56 57 52 55 56 57 63 68 65 68 75 67 63 57 61 60 56 63 65 63 62 60 57 57 61 64 64 65 65 69 72 72 74 74 75 74 77
56 56 56 56 56 53 51 52 62 59 53 57 56 59 65 67 66 65 71 68 63 59 60 58 61 64 63 59 59 58 57 57 58 61 64 61 61 64 70 70 72 73 72 72 70
56 56 55 55 51 53 49 57 59 59 49 54 56 63 66 68 65 74 76 71 65 60 61 62 64 61 60 59 61 54 62 62 59 57 53 60 52 59 65 68 69 69 69 69 69
55 55 55 55 53 49 58 57 59 56 37 58 58 73 69 67 68 66 75 71 62 60 62 58 60 59 58 60 63 60 63 61 59 55 55 55 54 59 60 64 65 65 66 67 68
55 55 54 54 52 57 59 62 56 46 38 54 62 60 62 66 66 68 70 73 69 63 62 62 66 66 64 64 65 64 60 57 55 55 48 55 55 56 60 60 63 63 65 66 68
55 54 52 57 53 61 59 56 47 39 57 54 56 61 62 60 62 64 62 61 58 52 53 58 60 65 66 61 62 61 57 49 47 47 47 51 52 58 58 59 62 63 65 68 70
53 52 53 56 59 60 60 53 39 50 50 59 61 61 57 61 60 61 59 56 59 60 54 51 48 59 63 62 60 58 58 50 39 42 49 50 49 55 60 62 64 65 66 69 70
52 56 54 57 59 60 56 45 45 50 54 49 59 55 55 59 60 59 58 58 61 61 53 50 49 60 61 63 63 55 54 56 48 45 47 53 53 57 60 60 63 65 66 67 69
49 53 60 61 60 60 54 45 51 55 53 56 50 55 48 54 55 55 55 58 57 60 63 56 48 56 59 63 61 59 59 50 51 38 38 47 48 55 54 57 60 62 63 65 68
51 56 63 62 60 60 47 50 54 58 55 54 54 52 54 52 54 52 52 56 59 56 60 58 55 50 57 53 53 55 54 51 52 50 42 42 50 57 59 60 59 61 64 65 67
48 51 63 63 55 54 48 51 50 54 60 57 59 57 55 54 52 52 51 55 61 60 56 53 52 47 47 52 55 55 52 53 44 43 45 44 47 59 61 61 60 62 63 66 66
45 46 64 62 48 47 50 50 50 57 59 58 55 57 57 53 48 52 53 56 59 58 55 55 48 43 43 50 53 50 49 49 47 45 43 41 49 58 59 60 61 62 62 63 63
47 47 56 58 56 49 46 47 51 60 56 56 55 58 55 52 54 51 51 53 56 56 54 56 47 47 44 46 48 45 47 49 47 38 44 44 50 55 59 60 63 64 62 61 61
51 48 48 48 51 51 51 47 52 52 57 57 55 55 54 49 50 48 52 53 55 53 52 54 45 47 46 47 47 47 47 48 45 48 42 49 47 54 57 59 61 61 60 59 60
47 43 49 49 50 50 49 48 52 51 54 52 53 51 53 51 53 49 51 52 52 53 51 49 43 46 44 46 45 43 48 48 48 48 47 48 47 59 60 61 58 58 58 58 59
50 51 47 48 49 49 50 53 49 54 54 56 54 52 50 50 54 55 54 54 55 52 48 48 45 43 40 43 43 41 47 49 49 50 50 45 53 58 56 56 57 58 59 59 59